[[{"header":{"parameterUnit":"m.s-1","parameterCategory":1,"la1":30.6,"la2":29.2853,"lo1":-89.7004,"lo2":-87.6739,"dy":0.0162,"dx":0.0183,"nx":112,"ny":82,"refTime":"2023-05-20T12:00:00:Z","depth":0,"parameterNumber":2,"parameterNumberName":"U-component_of_WINDS"},"data":[0.0,0.0,0.0,0.0,0.0,0.0,0.0,0.0,0.0,0.0,0.0,0.0,0.0,0.0,0.0,0.0,0.0,0.0,0.0,0.0,0.0,0.0,0.0,0.0,0.0,0.0,0.0,0.0,0.0,0.0,0.0,0.0,0.0,0.0,0.0,0.0,0.0,0.0,0.0,0.0,0.0,0.0,0.0,0.0,0.0,0.0,0.0,0.0,0.0,0.0,0.0,0.0,0.0,0.0,0.0,0.0,0.0,0.0,0.0,0.0,0.0,0.0,0.0,0.0,0.0,0.0,0.0,0.0,0.0,0.0,0.0,0.0,0.0,0.0,0.0,0.0,0.0,0.0,0.0,0.0,0.0,0.0,0.0,0.0,0.0,0.0,0.0,0.0,0.0,0.0,3.9111,3.8281,3.9089,3.9284,3.8267,3.8933,3.9063,3.8214,0.0,0.0,0.0,0.0,0.0,0.0,0.0,0.0,0.0,0.0,0.0,0.0,0.0,0.0,0.0,0.0,0.0,0.0,0.0,0.0,0.0,0.0,0.0,0.0,0.0,0.0,0.0,0.0,0.0,0.0,0.0,0.0,0.0,0.0,0.0,0.0,0.0,0.0,0.0,0.0,0.0,0.0,0.0,0.0,0.0,0.0,0.0,0.0,0.0,0.0,0.0,0.0,0.0,0.0,0.0,0.0,0.0,0.0,0.0,0.0,0.0,0.0,0.0,0.0,0.0,0.0,0.0,0.0,0.0,0.0,0.0,0.0,0.0,0.0,0.0,0.0,0.0,0.0,0.0,0.0,0.0,0.0,0.0,0.0,0.0,0.0,0.0,0.0,0.0,0.0,0.0,0.0,0.0,0.0,0.0,0.0,0.0,0.0,0.0,0.0,0.0,0.0,0.0,0.0,3.8555,3.934,3.9581,3.9633,3.9452,3.8659,3.8542,3.9362,0.0,0.0,0.0,0.0,0.0,0.0,0.0,0.0,0.0,0.0,0.0,0.0,0.0,0.0,0.0,0.0,0.0,0.0,0.0,0.0,0.0,0.0,0.0,0.0,0.0,0.0,0.0,0.0,0.0,0.0,0.0,0.0,0.0,0.0,0.0,0.0,0.0,0.0,0.0,0.0,0.0,0.0,0.0,0.0,0.0,0.0,0.0,0.0,0.0,0.0,0.0,0.0,0.0,0.0,0.0,0.0,0.0,0.0,0.0,0.0,0.0,0.0,0.0,0.0,0.0,0.0,0.0,0.0,0.0,0.0,0.0,0.0,0.0,0.0,0.0,0.0,0.0,0.0,0.0,0.0,0.0,0.0,0.0,0.0,0.0,0.0,0.0,0.0,0.0,0.0,0.0,0.0,0.0,0.0,0.0,0.0,0.0,0.0,0.0,0.0,0.0,0.0,0.0,3.7914,3.8059,3.9558,3.9697,3.9167,3.7911,3.7858,3.7858,3.7805,3.8384,0.0,0.0,0.0,0.0,0.0,0.0,0.0,0.0,0.0,0.0,0.0,0.0,0.0,0.0,0.0,0.0,0.0,0.0,0.0,0.0,0.0,0.0,0.0,0.0,0.0,0.0,0.0,0.0,0.0,0.0,0.0,0.0,0.0,0.0,0.0,0.0,0.0,0.0,0.0,0.0,0.0,0.0,0.0,0.0,0.0,0.0,0.0,0.0,0.0,0.0,0.0,0.0,0.0,0.0,0.0,0.0,0.0,0.0,0.0,0.0,0.0,0.0,0.0,0.0,0.0,0.0,0.0,0.0,0.0,0.0,0.0,0.0,0.0,0.0,0.0,0.0,0.0,0.0,0.0,0.0,0.0,0.0,0.0,0.0,0.0,0.0,0.0,0.0,0.0,0.0,0.0,0.0,0.0,0.0,0.0,0.0,0.0,0.0,0.0,0.0,0.0,0.0,3.7477,3.7388,3.8715,3.8868,3.8161,3.6348,3.6738,3.6965,3.663,3.718,0.0,0.0,0.0,0.0,0.0,0.0,0.0,0.0,0.0,0.0,0.0,0.0,0.0,0.0,0.0,0.0,0.0,0.0,0.0,0.0,0.0,0.0,0.0,0.0,0.0,0.0,0.0,0.0,0.0,0.0,0.0,0.0,0.0,0.0,0.0,0.0,0.0,0.0,0.0,0.0,0.0,0.0,0.0,0.0,0.0,0.0,0.0,0.0,0.0,0.0,0.0,0.0,0.0,0.0,0.0,0.0,0.0,0.0,0.0,0.0,0.0,0.0,0.0,0.0,0.0,0.0,0.0,0.0,0.0,0.0,0.0,0.0,0.0,0.0,0.0,0.0,0.0,0.0,0.0,0.0,0.0,0.0,0.0,0.0,0.0,0.0,0.0,0.0,0.0,0.0,0.0,0.0,0.0,0.0,0.0,0.0,0.0,0.0,0.0,0.0,0.0,0.0,3.6362,3.6314,3.6429,3.6457,3.6375,3.6213,3.5306,3.5619,3.7646,3.6873,0.0,0.0,0.0,0.0,0.0,0.0,0.0,0.0,0.0,0.0,0.0,0.0,0.0,0.0,0.0,0.0,0.0,0.0,0.0,0.0,0.0,0.0,0.0,0.0,0.0,0.0,0.0,0.0,0.0,0.0,0.0,0.0,0.0,0.0,0.0,0.0,0.0,0.0,0.0,0.0,0.0,0.0,0.0,0.0,0.0,0.0,0.0,0.0,0.0,0.0,0.0,0.0,0.0,0.0,0.0,0.0,0.0,0.0,0.0,0.0,0.0,0.0,0.0,0.0,0.0,0.0,0.0,0.0,0.0,0.0,0.0,0.0,0.0,0.0,0.0,0.0,0.0,0.0,0.0,0.0,0.0,0.0,0.0,0.0,0.0,0.0,0.0,0.0,0.0,0.0,0.0,0.0,0.0,0.0,0.0,0.0,0.0,0.0,0.0,0.0,0.0,0.0,3.5961,3.5841,3.6151,3.6185,3.5925,3.5195,3.4747,3.5179,3.6738,0.0,0.0,0.0,0.0,0.0,0.0,0.0,0.0,0.0,0.0,0.0,0.0,0.0,0.0,0.0,0.0,0.0,0.0,0.0,0.0,0.0,0.0,0.0,0.0,0.0,0.0,0.0,0.0,0.0,0.0,0.0,0.0,0.0,0.0,0.0,0.0,0.0,0.0,0.0,0.0,0.0,0.0,0.0,0.0,0.0,0.0,0.0,0.0,0.0,0.0,0.0,0.0,0.0,0.0,0.0,0.0,0.0,0.0,0.0,0.0,0.0,0.0,0.0,0.0,0.0,0.0,0.0,0.0,0.0,0.0,0.0,0.0,0.0,0.0,0.0,0.0,0.0,0.0,0.0,0.0,0.0,0.0,0.0,0.0,0.0,0.0,0.0,0.0,0.0,0.0,0.0,0.0,0.0,0.0,0.0,0.0,0.0,0.0,0.0,0.0,0.0,0.0,3.5088,3.4815,3.4691,3.5052,3.5085,3.4764,3.3987,3.3931,3.4413,3.5608,0.0,0.0,0.0,0.0,0.0,0.0,0.0,0.0,0.0,0.0,0.0,0.0,0.0,0.0,0.0,0.0,0.0,0.0,0.0,0.0,0.0,0.0,0.0,0.0,0.0,0.0,0.0,0.0,0.0,0.0,0.0,0.0,0.0,0.0,0.0,0.0,0.0,0.0,0.0,0.0,0.0,0.0,0.0,0.0,0.0,0.0,0.0,0.0,0.0,0.0,0.0,0.0,0.0,0.0,0.0,0.0,0.0,0.0,0.0,0.0,0.0,0.0,0.0,0.0,0.0,0.0,0.0,0.0,0.0,0.0,0.0,0.0,0.0,0.0,0.0,0.0,0.0,0.0,0.0,0.0,0.0,0.0,0.0,0.0,0.0,0.0,0.0,0.0,0.0,0.0,0.0,0.0,0.0,0.0,0.0,0.0,0.0,0.0,0.0,0.0,0.0,0.0,3.2899,3.2797,3.2698,3.2698,3.2698,3.2698,3.2698,3.2698,3.3218,0.0,0.0,0.0,0.0,0.0,0.0,0.0,0.0,0.0,0.0,0.0,0.0,0.0,0.0,0.0,0.0,0.0,0.0,0.0,0.0,0.0,0.0,0.0,0.0,0.0,0.0,0.0,0.0,0.0,0.0,0.0,0.0,0.0,0.0,0.0,0.0,0.0,0.0,0.0,0.0,0.0,0.0,0.0,0.0,0.0,0.0,0.0,0.0,0.0,0.0,0.0,0.0,0.0,0.0,0.0,0.0,0.0,0.0,0.0,0.0,0.0,0.0,0.0,0.0,0.0,0.0,0.0,0.0,0.0,0.0,0.0,0.0,0.0,0.0,0.0,0.0,0.0,0.0,0.0,0.0,0.0,0.0,0.0,0.0,0.0,0.0,0.0,0.0,0.0,0.0,0.0,0.0,0.0,0.0,0.0,0.0,0.0,0.0,0.0,0.0,0.0,0.0,0.0,3.2818,3.2797,3.2698,3.2698,3.2698,3.2698,3.2698,3.2698,3.3218,3.4424,0.0,0.0,0.0,0.0,0.0,0.0,0.0,0.0,0.0,0.0,0.0,0.0,0.0,0.0,0.0,0.0,0.0,0.0,0.0,0.0,0.0,0.0,0.0,0.0,0.0,0.0,0.0,0.0,0.0,0.0,0.0,0.0,0.0,0.0,0.0,0.0,0.0,0.0,0.0,0.0,0.0,0.0,0.0,0.0,0.0,0.0,0.0,0.0,0.0,0.0,0.0,0.0,0.0,0.0,0.0,0.0,0.0,0.0,0.0,0.0,0.0,0.0,0.0,0.0,0.0,0.0,0.0,0.0,0.0,0.0,0.0,0.0,0.0,0.0,0.0,0.0,0.0,0.0,0.0,0.0,0.0,0.0,0.0,0.0,0.0,0.0,0.0,0.0,0.0,0.0,0.0,0.0,0.0,0.0,0.0,0.0,0.0,0.0,0.0,0.0,0.0,0.0,3.2216,3.2528,3.2698,3.2698,3.2698,3.2698,3.2698,3.2698,3.3001,3.3745,0.0,0.0,0.0,0.0,0.0,0.0,0.0,0.0,0.0,0.0,0.0,0.0,0.0,0.0,0.0,0.0,0.0,0.0,0.0,0.0,0.0,0.0,0.0,0.0,0.0,0.0,0.0,0.0,0.0,0.0,0.0,0.0,0.0,0.0,0.0,0.0,0.0,0.0,0.0,0.0,0.0,0.0,0.0,0.0,0.0,0.0,0.0,0.0,0.0,0.0,0.0,0.0,0.0,0.0,0.0,0.0,0.0,0.0,0.0,0.0,0.0,0.0,0.0,0.0,0.0,0.0,0.0,0.0,0.0,0.0,0.0,0.0,0.0,0.0,0.0,0.0,0.0,0.0,0.0,0.0,0.0,0.0,0.0,0.0,0.0,0.0,0.0,0.0,0.0,0.0,0.0,0.0,0.0,0.0,0.0,0.0,0.0,0.0,0.0,0.0,0.0,0.0,3.1471,3.2199,3.2698,3.2698,3.2698,3.2698,3.2698,3.2698,3.2698,3.2698,0.0,0.0,0.0,0.0,0.0,0.0,0.0,0.0,0.0,0.0,0.0,0.0,0.0,0.0,0.0,0.0,0.0,0.0,0.0,0.0,0.0,0.0,0.0,0.0,0.0,0.0,0.0,0.0,0.0,0.0,0.0,0.0,0.0,0.0,0.0,0.0,0.0,0.0,0.0,0.0,0.0,0.0,0.0,0.0,0.0,0.0,0.0,0.0,0.0,0.0,0.0,0.0,0.0,0.0,0.0,0.0,0.0,0.0,0.0,0.0,2.9746,2.9994,0.0,0.0,0.0,0.0,0.0,0.0,0.0,0.0,0.0,0.0,0.0,0.0,0.0,0.0,0.0,0.0,0.0,0.0,0.0,0.0,0.0,0.0,0.0,0.0,0.0,0.0,0.0,0.0,0.0,0.0,0.0,0.0,0.0,0.0,0.0,0.0,0.0,0.0,0.0,0.0,3.1871,3.2357,3.2698,3.2698,3.2698,3.2698,3.2698,3.2698,3.2698,3.2698,3.2955,0.0,0.0,0.0,0.0,0.0,0.0,0.0,0.0,0.0,0.0,0.0,0.0,0.0,0.0,0.0,0.0,0.0,0.0,0.0,0.0,0.0,0.0,0.0,0.0,0.0,0.0,0.0,0.0,0.0,0.0,0.0,0.0,0.0,0.0,0.0,0.0,0.0,0.0,0.0,0.0,0.0,0.0,0.0,0.0,0.0,0.0,0.0,0.0,0.0,0.0,0.0,0.0,0.0,0.0,0.0,0.0,0.0,0.0,0.0,2.9798,2.9994,0.0,0.0,0.0,0.0,0.0,0.0,0.0,0.0,0.0,0.0,0.0,0.0,0.0,0.0,0.0,0.0,0.0,0.0,0.0,0.0,0.0,0.0,0.0,0.0,0.0,0.0,0.0,0.0,0.0,0.0,0.0,0.0,0.0,0.0,0.0,0.0,0.0,0.0,0.0,0.0,3.2016,3.2419,3.2698,3.2698,3.2698,3.2698,3.2698,3.2698,3.2698,3.2698,3.2698,0.0,0.0,0.0,0.0,0.0,0.0,0.0,0.0,0.0,0.0,0.0,0.0,0.0,0.0,0.0,0.0,0.0,0.0,0.0,0.0,0.0,0.0,0.0,0.0,0.0,0.0,0.0,0.0,0.0,0.0,0.0,0.0,0.0,0.0,0.0,0.0,0.0,0.0,0.0,0.0,0.0,0.0,0.0,0.0,0.0,0.0,0.0,0.0,0.0,0.0,0.0,0.0,0.0,2.7831,2.8055,2.8169,2.9042,2.9425,2.9446,2.9829,2.9994,2.9994,2.9994,0.0,0.0,0.0,0.0,0.0,0.0,0.0,0.0,0.0,0.0,0.0,0.0,0.0,0.0,0.0,0.0,0.0,0.0,0.0,0.0,0.0,0.0,2.8506,2.895,2.9245,2.932,2.8927,0.0,0.0,0.0,0.0,0.0,0.0,0.0,0.0,0.0,0.0,0.0,3.2129,3.246,3.2698,3.2698,3.2698,3.2698,3.2698,3.2698,3.2698,3.2698,3.2698,3.2698,0.0,0.0,0.0,0.0,0.0,0.0,0.0,0.0,0.0,0.0,0.0,0.0,0.0,0.0,0.0,0.0,0.0,0.0,0.0,0.0,0.0,0.0,0.0,0.0,0.0,0.0,0.0,0.0,0.0,0.0,0.0,0.0,2.4492,2.4786,0.0,0.0,0.0,0.0,0.0,0.0,0.0,0.0,0.0,0.0,0.0,0.0,0.0,2.7309,2.7309,2.7309,2.7482,2.7841,2.8297,2.8706,2.9135,2.9663,2.9911,2.9911,2.9973,0.0,2.9994,2.9994,0.0,0.0,0.0,0.0,0.0,0.0,0.0,0.0,0.0,0.0,0.0,0.0,0.0,0.0,0.0,0.0,0.0,0.0,0.0,0.0,0.0,0.0,2.8838,2.892,2.9252,2.9556,2.9497,2.9915,3.0239,3.0006,3.0241,3.054,0.0,0.0,0.0,0.0,0.0,0.0,3.2605,3.2667,3.2698,3.2698,3.2698,3.2698,3.2698,3.2698,3.2698,3.2698,3.2698,3.2698,3.2698,3.2698,0.0,0.0,0.0,0.0,0.0,0.0,0.0,0.0,0.0,0.0,0.0,0.0,0.0,0.0,0.0,0.0,0.0,0.0,0.0,0.0,0.0,0.0,0.0,0.0,0.0,0.0,0.0,0.0,0.0,2.3128,2.3536,2.3791,2.4359,2.4786,0.0,0.0,0.0,0.0,0.0,0.0,0.0,0.0,0.0,2.638,2.5829,2.5504,2.5504,2.6353,2.6875,2.7066,2.8373,2.9104,2.9321,2.9787,2.9994,2.9994,2.9994,2.9994,2.9994,2.9994,2.9994,2.9994,0.0,0.0,0.0,0.0,2.9916,2.9722,2.9264,2.8999,2.8807,2.8424,0.0,0.0,0.0,0.0,0.0,0.0,0.0,2.835,2.8584,2.8779,2.8984,2.9228,2.9609,2.995,2.995,3.0326,3.0564,3.0097,3.0648,3.1208,3.1281,3.1797,0.0,0.0,0.0,3.2698,3.2698,3.2698,3.2698,3.2698,3.2698,3.2698,3.2698,3.2698,3.2698,3.2698,3.2698,3.2698,3.2698,3.2698,3.2698,0.0,0.0,0.0,0.0,0.0,0.0,0.0,0.0,0.0,0.0,0.0,0.0,0.0,0.0,0.0,0.0,0.0,0.0,0.0,0.0,0.0,0.0,0.0,0.0,0.0,0.0,0.0,0.0,2.2232,2.2484,2.2768,2.3219,2.3543,0.0,0.0,0.0,0.0,0.0,0.0,2.5246,2.4541,2.4514,2.5375,2.465,2.4274,2.435,2.5428,2.6049,2.6266,2.7639,2.856,2.9028,2.9375,2.9722,2.9994,2.9994,2.9994,2.9994,2.9994,2.9994,2.9994,2.9994,2.9994,2.9994,2.9916,2.9774,2.9527,2.9132,2.8877,2.8648,2.8381,2.8291,2.8291,2.8291,0.0,0.0,0.0,0.0,2.8444,2.8419,2.8576,2.8761,2.8785,2.9088,2.9391,2.9391,2.9918,3.0364,3.0237,3.1003,3.1648,3.1544,3.2119,0.0,3.2612,3.2669,3.2698,3.2698,3.2698,3.2698,3.2698,3.2698,3.2698,3.2698,3.2698,3.2698,3.2698,3.2698,3.2698,3.2698,3.2698,3.2698,3.2698,0.0,0.0,0.0,0.0,0.0,0.0,0.0,0.0,0.0,0.0,0.0,0.0,0.0,0.0,0.0,0.0,0.0,0.0,0.0,0.0,0.0,0.0,0.0,0.0,0.0,0.0,0.0,0.0,0.0,2.1362,2.2307,0.0,0.0,0.0,0.0,2.4088,2.4088,2.4113,2.4187,2.4137,2.4271,2.4631,2.459,2.4731,2.5062,2.4872,2.5123,2.5831,2.5681,2.6531,2.8247,2.8276,2.8916,2.9994,2.9994,2.9994,2.9994,2.9994,2.9994,2.9994,2.9994,2.9994,2.9968,2.9711,2.9606,2.9538,2.8913,2.8701,2.8648,2.8381,2.8291,2.8291,2.8291,2.8291,0.0,0.0,2.8584,2.8586,2.7401,2.7701,2.8037,2.6838,2.6875,2.7168,2.7168,2.8137,2.9364,3.0616,3.1102,3.1315,3.1324,0.0,3.2305,3.2305,3.2555,3.2698,3.2698,3.2698,3.2698,3.2698,3.2698,3.2698,3.2698,3.2698,3.2698,3.2698,3.2698,3.2698,3.2698,3.2698,3.2698,3.2698,3.2698,0.0,0.0,0.0,0.0,0.0,0.0,0.0,0.0,0.0,0.0,0.0,0.0,0.0,0.0,0.0,0.0,0.0,0.0,0.0,0.0,0.0,0.0,0.0,0.0,0.0,0.0,0.0,0.0,2.0259,2.0757,0.0,2.1607,2.1319,2.1391,2.2073,2.1789,2.2034,2.309,2.2516,2.2522,2.3304,2.2689,2.2393,2.2515,2.3381,2.3943,2.4206,2.5108,2.5973,2.6788,2.6788,2.7131,2.7795,2.8535,2.8837,2.8837,2.8837,2.9307,2.9994,2.9994,2.9994,2.9994,2.9879,2.9748,2.9527,2.9115,2.8824,2.8648,2.8381,2.8291,2.8291,2.8291,2.8476,2.8529,2.7701,2.7734,2.7855,2.6874,2.6848,2.7031,2.6837,2.6919,2.6983,2.6983,2.7375,2.7825,2.8313,2.9962,3.1296,3.1296,3.1672,3.1989,3.1989,3.2248,3.243,3.243,3.2584,3.2698,3.2698,3.2698,3.2698,3.2698,3.2698,3.2698,3.2698,3.2698,3.2698,3.2698,3.2698,3.2698,3.2698,3.2698,3.2698,0.0,0.0,0.0,0.0,0.0,0.0,0.0,0.0,0.0,0.0,0.0,0.0,0.0,0.0,0.0,0.0,0.0,0.0,0.0,0.0,0.0,0.0,0.0,0.0,0.0,1.9454,1.9665,1.996,2.0001,2.0255,2.0953,2.0403,2.0344,2.1104,2.0773,2.0964,2.2052,2.1538,2.1592,2.2371,2.1853,2.1623,2.1739,2.2604,2.3103,2.3213,2.4036,2.4837,2.558,2.5471,2.5827,2.6535,2.7302,2.7624,2.7624,2.7624,2.8099,2.8873,2.9244,2.9164,2.889,2.9475,2.9085,2.8242,2.8235,2.8361,2.8541,2.8344,2.8291,2.832,2.8467,2.8701,2.8671,2.7521,2.7505,2.7515,2.6105,2.5841,2.5909,2.5733,2.5676,2.5676,2.5676,2.6042,2.6346,2.6346,2.8325,2.9972,2.9854,3.0568,3.1131,3.1005,3.1749,3.2305,3.2305,3.2516,3.2698,3.2698,3.2698,3.2698,3.2698,3.2698,3.2698,3.2698,3.2698,3.2698,3.2698,3.2698,3.2698,3.2698,3.2698,3.2698,3.2698,0.0,0.0,0.0,0.0,0.0,0.0,0.0,0.0,0.0,0.0,0.0,0.0,0.0,0.0,0.0,0.0,0.0,0.0,0.0,0.0,0.0,0.0,0.0,1.932,1.932,1.9646,2.0487,2.0142,2.0376,2.1818,2.1148,2.0849,2.1426,2.1244,2.1116,2.1131,2.1368,2.1651,2.1993,2.2312,2.2617,2.2929,2.2683,2.2683,2.2929,2.2335,2.3006,2.4695,2.4381,2.502,2.6372,2.6436,2.6436,2.6454,2.6454,2.6454,2.6563,2.7678,2.7463,2.6698,2.8385,2.7573,2.5735,2.6354,2.7332,2.8291,2.8291,2.8301,2.8389,2.8762,2.8881,2.8713,2.7797,2.7858,2.7613,2.5035,2.4696,2.4702,2.3417,2.3106,2.3106,2.3106,2.4123,2.5041,2.5041,2.6308,2.7306,2.7043,2.8564,2.9698,2.9384,3.0966,0.0,3.2219,3.2459,3.2669,3.2698,3.2698,3.2698,3.2698,3.2698,3.2698,3.2698,3.2698,3.2698,3.2698,3.2698,3.2698,3.2698,3.2698,3.2698,3.2698,0.0,0.0,0.0,0.0,0.0,0.0,0.0,0.0,0.0,0.0,0.0,0.0,0.0,0.0,0.0,0.0,0.0,0.0,0.0,0.0,0.0,1.9503,1.9657,1.9657,1.9657,1.9907,2.0541,2.0288,2.0407,2.1275,2.0938,2.0818,2.1189,2.1191,2.1276,2.1517,2.1356,2.1429,2.1781,2.1639,2.1599,2.1689,2.1603,2.1603,2.1689,2.1518,2.1831,2.2562,2.2449,2.2857,2.372,2.4567,2.5029,2.5267,2.5267,2.5267,2.5368,2.6254,2.6408,2.6164,2.6472,2.6563,2.6689,2.7726,2.8184,2.8291,2.8291,2.8496,2.8769,2.8859,2.8706,2.8223,2.707,2.6372,2.559,2.3894,2.356,2.3565,2.3199,2.3106,2.3106,2.3106,2.3386,2.3658,2.3658,2.4023,2.4871,2.668,2.7435,2.7766,2.7667,2.8534,2.9521,3.0441,3.1005,3.1691,3.2612,3.2698,3.2698,3.2698,3.2698,3.2698,3.2698,3.2698,3.2698,3.2698,3.2698,3.2698,3.2698,3.2698,3.2698,0.0,0.0,0.0,0.0,0.0,0.0,0.0,0.0,0.0,0.0,0.0,0.0,0.0,0.0,0.0,0.0,0.0,0.0,0.0,0.0,0.0,0.0,1.9664,1.9884,2.0128,2.0047,2.0185,2.0776,2.0711,2.0853,2.145,2.1279,2.1167,2.1333,2.1264,2.1296,2.1489,2.1439,2.1497,2.1696,2.1603,2.1575,2.1575,2.1575,2.1575,2.1575,2.1468,2.1582,2.186,2.1753,2.1945,2.2428,2.3083,2.358,2.3868,2.3868,2.3952,2.4139,0.0,0.0,0.0,0.0,2.5242,2.6155,2.7376,2.7682,2.7657,2.8325,2.8358,2.8168,2.8547,2.8101,2.7261,2.618,2.5483,2.4795,2.3448,2.3106,2.3106,2.3106,2.3106,2.3106,2.3106,2.3106,2.3106,2.3106,2.3106,0.0,2.5094,2.5829,2.6194,2.6194,2.7224,2.8274,2.9018,3.0109,3.1092,3.1806,3.2373,3.2698,3.2698,3.2698,0.0,0.0,0.0,3.2698,3.2698,3.2698,0.0,0.0,0.0,3.2698,3.2698,3.2698,0.0,0.0,3.2574,3.2553,0.0,0.0,0.0,0.0,0.0,0.0,0.0,0.0,0.0,0.0,0.0,0.0,0.0,0.0,0.0,0.0,1.9877,2.0096,2.0612,2.0473,2.0532,2.1134,2.1199,2.1395,2.1943,2.181,2.1668,2.1639,2.1411,2.1283,2.1291,2.1549,0.0,0.0,0.0,2.2116,2.2116,2.2078,2.2055,2.2055,2.1768,2.1782,2.2002,2.1753,2.1782,2.2059,2.2059,2.223,2.2541,2.2541,2.2683,2.3014,2.4092,2.3644,2.2513,2.3123,2.3938,2.4865,2.5936,0.0,0.0,2.8124,2.7891,2.7257,2.7873,2.7232,2.6091,2.5312,2.4979,2.461,2.3417,2.3106,2.3106,2.3106,2.3106,2.3106,2.3106,2.3106,2.3106,2.3106,2.3106,2.3106,2.3106,2.4092,2.4856,2.4856,2.6368,2.7555,2.7697,2.9216,3.0373,3.0704,3.1738,0.0,3.2669,3.2698,3.2698,3.2698,3.2698,3.2698,3.2698,3.2698,3.2698,3.2698,3.2698,3.2698,3.2698,3.2698,3.2698,3.2698,3.2698,3.2698,0.0,0.0,0.0,0.0,0.0,0.0,0.0,0.0,0.0,0.0,0.0,0.0,0.0,0.0,0.0,2.0064,2.0334,2.0581,2.0678,2.0896,2.1042,2.1194,2.1201,2.1252,2.1375,2.1582,2.1582,2.1325,2.1497,2.1694,2.1896,2.1773,2.1928,2.2423,2.226,2.2171,2.2171,2.1906,2.1773,2.1773,2.145,0.0,2.1375,2.1325,2.1468,2.1782,2.1782,2.1953,2.2201,2.2201,2.223,2.2307,2.2526,2.2137,2.1603,2.2672,2.3771,2.4727,2.4975,2.6546,2.8161,2.6455,2.6893,2.7891,2.7035,2.6107,0.0,2.514,2.4301,2.3417,2.3168,2.3106,2.3106,2.3106,2.3106,2.3106,2.3106,2.3106,2.3106,2.3106,2.3106,2.3106,2.3106,2.3324,2.3479,2.3479,2.4031,2.4818,2.5857,2.6555,2.7811,3.0149,3.0626,3.1285,3.2584,3.2698,3.2698,3.2698,3.2698,3.2698,3.2698,3.2698,3.2698,3.2698,3.2698,3.2698,3.2698,3.2698,3.2698,3.2698,3.2698,3.2698,0.0,0.0,0.0,0.0,0.0,0.0,0.0,0.0,0.0,0.0,0.0,1.9642,1.9938,0.0,2.0106,2.04,2.059,2.0809,2.1138,2.135,2.1393,2.1233,2.1354,2.1382,2.1211,2.1609,2.177,2.1481,2.1751,2.2002,2.2135,2.2024,2.2105,2.2378,2.2273,2.2214,2.2214,2.2023,2.1942,2.1942,2.1774,2.1613,2.1452,2.1452,2.1451,2.1439,2.1439,2.1603,2.1932,2.2242,2.2351,2.2358,2.2358,2.2057,2.1792,2.2853,2.3327,2.3614,2.479,2.5733,2.6331,2.5941,2.6035,2.6266,2.5854,2.4982,2.4092,2.4092,2.3635,2.3106,2.3106,2.3106,2.3106,2.3106,2.3106,2.3106,2.3106,2.3106,2.3106,2.3106,2.3106,2.3106,2.3106,2.3106,2.3106,2.3106,2.3393,2.3821,2.4471,2.5415,2.6797,2.8911,2.9855,3.0888,3.2363,3.2612,3.2698,3.2698,3.2584,3.2555,3.2698,3.2584,3.2555,3.2698,3.2584,3.2487,3.2487,3.2315,3.2258,3.2258,3.2258,3.2344,0.0,0.0,0.0,0.0,0.0,0.0,0.0,1.9393,1.9488,1.9818,1.9884,1.9952,2.0247,2.0305,2.0429,2.0824,2.0882,2.1115,2.1708,2.1789,2.1693,2.143,2.1632,2.1689,2.143,2.1832,2.2016,2.1818,2.2067,2.2206,2.2264,2.2264,2.2301,2.2359,2.2631,2.2631,2.2367,2.2571,2.2534,2.2264,2.2213,2.2045,2.1789,2.1789,2.165,2.1401,2.1401,2.1545,2.1827,2.2321,2.2526,2.2535,2.2535,2.2401,2.2267,2.2981,2.293,2.2759,2.4426,2.473,2.4512,2.5382,2.515,2.4555,2.4678,2.3969,2.3106,2.3106,2.3106,2.3106,2.3106,2.3106,2.3106,2.3106,2.3106,2.3106,2.3106,2.3106,2.3106,2.3106,2.3106,2.3106,2.3106,2.3106,2.3106,2.3106,2.3331,2.3518,2.3518,2.4625,2.5965,2.7366,2.8635,2.9925,3.1314,3.195,3.2104,3.1796,3.2047,3.219,3.2172,3.219,3.2315,3.2526,3.2315,3.219,3.219,3.1932,3.1787,3.1787,3.173,3.1874,2.0047,2.0128,1.9886,1.942,1.9305,1.9378,0.0,1.9737,1.9825,2.0093,2.0159,2.0254,2.0583,2.0641,2.0839,2.1489,2.1591,2.1715,2.2081,2.2132,2.2148,2.2081,2.2134,2.2134,2.2104,2.214,2.2185,2.2155,2.2192,2.2301,2.2526,2.2571,2.2703,2.2996,2.4163,2.4194,2.3003,2.3893,2.3739,2.2541,2.2308,2.2192,2.2132,2.2132,2.2111,2.2104,2.2104,2.2104,2.2134,2.223,2.2237,2.2244,2.2244,2.2376,2.2544,2.24,2.2929,2.3588,2.2848,2.414,2.5779,2.371,2.394,2.4809,2.3682,2.323,2.3106,2.3106,2.3106,2.3106,2.3106,2.3106,2.3106,2.3106,2.3106,2.3106,2.3106,2.3106,2.3106,2.3106,2.3106,2.3106,2.3106,2.3106,2.3106,2.3106,2.3144,2.3175,2.3175,2.3324,2.4046,2.5613,2.594,2.669,2.825,2.9787,3.0032,2.8518,3.0597,3.1373,3.0265,3.1276,3.1874,3.1903,3.1874,3.1845,3.1845,3.1816,3.1787,3.1787,3.1498,3.1527,1.9656,1.9704,1.9576,1.935,1.9444,1.962,1.9759,1.9935,2.0128,2.0422,2.0495,2.059,2.0919,2.1159,2.1379,2.165,2.1854,2.2089,2.2396,2.244,2.2506,2.2696,2.2725,2.2579,2.222,2.2337,2.244,2.244,2.2615,2.2776,2.287,2.2877,2.2967,2.3106,2.3635,2.4031,2.4247,2.4684,2.4971,2.5175,2.5038,2.4509,2.3601,2.3601,2.3089,2.2244,2.2989,2.3416,2.3601,2.3601,2.3716,2.381,2.3024,2.2798,2.2864,2.2557,2.2854,2.3368,2.2902,2.3489,2.4292,2.3233,2.3368,2.3845,2.3261,2.3106,2.3106,2.3106,2.3106,2.3106,2.3106,2.3106,2.3106,2.3106,2.3106,2.3106,2.3106,2.3106,2.3106,2.3106,2.3106,2.3106,2.3106,2.3106,2.3106,2.3106,2.3106,2.3106,2.3106,2.3783,2.5178,2.7512,2.8417,2.8931,2.905,3.0402,3.0616,2.9178,3.0587,3.1354,3.1014,3.1315,3.1585,3.1787,3.1614,3.1498,3.1498,3.1334,3.1286,3.1286,3.1141,3.1269,1.9413,1.9468,1.9534,1.9463,1.9679,1.9916,2.0038,2.0201,2.0437,2.0765,2.0831,2.0926,2.1284,2.154,2.1752,2.1928,2.2147,2.241,2.271,2.2724,2.2842,2.3084,2.3106,2.293,2.2484,2.263,2.2724,2.2724,2.2974,2.3106,2.3106,2.3448,2.3658,2.3658,2.4324,2.4994,2.5615,2.5973,2.6247,2.6468,2.6468,2.5872,2.4751,2.5105,2.4623,2.3563,2.4487,2.4841,2.4781,2.5105,2.5198,2.501,2.4031,2.3658,2.3574,2.2965,2.2877,2.3106,2.3106,2.3106,2.3106,2.3106,2.3106,2.3106,2.3106,2.3106,2.3106,2.3106,2.3106,2.3106,2.3106,2.3106,2.3106,2.3106,2.3106,2.3106,2.3106,2.3106,2.3106,2.3106,2.3106,2.3106,2.3106,2.3106,2.3106,2.3106,2.3106,2.3106,2.3106,2.3938,2.5362,2.7452,2.8911,2.9403,2.8653,3.0148,3.0568,2.9196,3.0402,3.1121,3.1014,3.1121,3.1305,3.1537,3.1305,3.1189,3.1189,3.0995,3.0947,3.1064,3.1064,3.1289,1.975,1.9919,2.0112,1.9854,1.9989,2.0276,2.0597,2.0678,2.0773,2.113,2.1196,2.1298,2.162,2.1686,2.1891,2.2468,2.257,2.2694,2.3047,2.3091,2.3098,2.3106,2.3106,2.3098,2.3084,2.3091,2.3091,2.3091,2.3106,2.3106,2.3106,2.434,2.5041,2.5041,2.7448,2.8146,2.6952,2.8176,2.7568,2.5164,2.5164,2.5125,2.5117,2.636,2.6905,2.6858,2.6888,2.623,2.5178,2.6421,2.6216,2.5102,2.5071,2.5041,2.4887,2.3558,2.3098,2.3106,2.3106,2.3106,2.3106,2.3106,2.3106,2.3106,2.3106,2.3106,2.3106,2.3106,2.3106,2.3106,2.3106,2.3106,2.3106,2.3106,2.3106,2.3106,2.3106,2.3106,2.3106,2.3106,2.3106,2.3106,2.3106,2.3106,2.3106,2.3106,2.3106,2.3106,2.3106,2.3137,2.3199,2.3293,2.4764,2.5623,2.5286,2.7847,2.879,2.7194,2.949,3.0333,2.9039,3.0245,3.0918,3.0918,3.0918,3.0918,3.0918,3.0889,3.1103,3.1474,3.1474,3.1728,1.9772,1.986,1.9974,2.0052,2.0291,2.0561,2.067,2.086,2.105,2.1189,2.1211,2.1313,2.1635,2.1876,2.2154,2.2526,2.2806,2.2981,2.3091,2.3106,2.3106,2.3106,2.3106,2.3106,2.3106,2.3106,2.3479,2.4363,2.4425,2.4425,2.4425,2.5646,2.5554,2.3845,2.6308,2.7435,2.6983,2.8265,2.8929,2.8948,2.8056,2.7628,2.7598,2.7194,2.6529,2.5829,2.7547,2.7547,2.6468,2.7727,2.7516,2.6346,2.6346,2.5309,2.3845,2.4278,2.3845,2.3106,2.3106,2.3106,2.3106,2.3106,2.3106,2.3106,2.3106,2.3106,2.3106,2.3106,2.3106,2.3106,2.3106,2.3106,2.3106,2.3106,2.3106,2.3106,2.3106,2.3106,2.3106,2.3106,2.3106,2.3106,2.3106,2.3106,2.3106,2.3106,2.3106,2.372,2.5462,2.5676,2.6338,2.8095,2.879,2.871,2.7718,2.9333,2.9785,2.8355,2.9912,3.0704,3.0245,3.0645,3.0889,3.0889,3.0889,3.1025,3.1309,3.1309,3.1533,3.1953,3.1953,3.2178,1.9754,1.9869,2.0011,2.0305,2.0627,2.0868,2.0868,2.1057,2.1211,2.1211,2.1211,2.1342,2.1789,2.2045,2.2323,2.2732,2.2974,2.3106,2.3106,2.3106,2.3106,2.3106,2.3106,2.3106,2.3106,2.3534,2.3969,2.4363,2.4394,2.4579,2.5071,2.6316,2.6437,2.5201,2.7276,2.8373,2.8373,2.9205,2.9815,3.0177,2.9314,2.889,2.889,2.8552,2.7954,2.7246,2.89,2.8602,2.7134,2.89,2.8573,2.6983,2.6983,2.5973,2.4479,2.4394,2.3845,2.3106,2.3106,2.3106,2.3106,2.3106,2.3106,2.3106,2.3106,2.3106,2.3106,2.3106,2.3106,2.3106,2.3106,2.3106,2.3106,2.3106,2.3106,2.3106,2.3106,2.3106,2.3106,2.3106,2.3106,2.3106,2.3106,2.3106,2.3106,2.3106,2.3106,2.372,2.5401,2.6012,2.6952,2.865,2.9638,2.9844,2.8979,3.0118,3.0518,2.9658,3.0421,3.0889,3.0889,3.0889,3.0957,3.1113,3.1113,3.1328,3.1748,3.1748,3.1973,3.2423,3.2423,3.2617,1.9723,2.0018,2.0312,2.0641,2.0955,2.1211,2.1211,2.1211,2.1211,2.1211,2.1211,2.1408,2.2089,2.2214,2.2389,2.301,2.3106,2.3106,2.3106,2.3168,2.3199,2.3199,2.3261,2.3293,2.3293,2.4456,2.4672,2.3417,2.3355,2.3938,2.5225,2.6498,2.7705,2.8772,3.0177,3.0859,3.0801,3.0859,3.0274,2.9009,2.9009,2.9009,2.9039,3.0333,3.0859,3.0791,3.0859,2.946,2.7284,2.9863,2.9372,2.7021,2.7073,2.7013,2.6589,2.4116,2.3199,2.3199,2.3106,2.3106,2.3106,2.3106,2.3106,2.3106,2.3106,2.3106,2.3106,2.3106,2.3106,2.3106,2.3106,2.3106,2.3106,2.3106,2.3106,2.3106,2.3106,2.3106,2.3106,2.3106,2.3106,2.3106,2.3106,2.3106,2.3106,2.3106,2.3106,2.3137,2.3293,2.4394,2.5256,2.537,2.7568,2.9009,2.9009,3.0177,3.0889,3.0889,3.0889,3.0898,3.0918,3.0928,3.1123,3.1543,3.1553,3.1768,3.2237,3.2237,3.2452,3.2832,3.2832,3.3037,2.0033,2.0327,2.0649,2.1006,2.1152,2.1211,2.1211,2.1211,2.1211,2.1211,2.1211,2.1408,2.2089,2.2214,2.2389,2.301,2.3106,2.3106,2.3106,2.3969,2.4579,2.4579,2.5431,2.6012,2.6012,2.6316,2.6377,2.6042,2.6875,2.7559,2.7898,2.9185,2.9155,2.7555,2.9706,3.0431,2.9412,3.0392,3.0733,3.0401,3.0401,3.0401,3.0392,3.0733,3.0333,2.9471,3.046,2.9942,2.8534,3.0216,2.9372,2.7103,2.8026,2.7267,2.5501,2.4826,2.4579,2.4456,2.3448,2.3106,2.3106,2.3106,2.3106,2.3106,2.3106,2.3106,2.3106,2.3106,2.3106,2.3106,2.3106,2.3106,2.3106,2.3106,2.3106,2.3106,2.3106,2.3106,2.3106,2.3106,2.3106,2.3106,2.3106,2.3106,2.3106,2.3106,2.3106,2.3814,2.576,2.6316,2.7254,2.9224,3.0001,3.0401,3.0401,3.0704,3.0889,3.0889,3.0889,3.1035,3.1318,3.1357,3.1562,3.1992,3.2032,3.2237,3.2637,3.2637,3.2851,3.3262,3.3262,3.3289,2.0298,2.0561,2.0773,2.113,2.1211,2.1211,2.1211,2.1211,2.1211,2.1211,2.1211,2.1408,2.2089,2.2214,2.2389,2.301,2.3106,2.3324,2.3907,2.4641,2.5317,2.5867,2.6559,2.6983,2.6983,2.7525,2.7817,2.7817,2.7966,2.8325,2.8861,2.9599,2.9608,2.874,3.0128,3.0548,2.9785,3.0518,3.0889,3.0889,3.0889,3.0889,3.0889,3.0889,3.0489,2.9815,3.0587,3.0147,2.9009,3.0333,2.9706,2.7907,2.8623,2.7688,2.5867,2.5317,2.4733,2.4116,2.3355,2.3479,2.3876,2.3293,2.3106,2.3106,2.3106,2.3106,2.3106,2.3106,2.3106,2.3106,2.3106,2.3106,2.3106,2.3106,2.3106,2.3106,2.3106,2.3106,2.3106,2.3106,2.3106,2.3293,2.3876,2.3472,2.3472,2.4633,2.4332,2.491,2.7486,2.7345,2.7766,2.9815,3.0548,3.0889,3.0889,3.0889,3.0976,3.1152,3.1162,3.1357,3.1787,3.1807,3.2002,3.2432,3.2472,3.2656,3.3066,3.3066,3.3193,3.3386,3.3386,3.3386,2.0574,2.0729,2.0831,2.1137,2.1211,2.1211,2.1211,2.1211,2.1211,2.1211,2.124,2.1459,2.2067,2.2213,2.2432,2.3018,2.3106,2.351,2.4672,2.4979,2.5554,2.6862,2.7164,2.7315,2.7504,2.8513,2.9166,2.9166,2.8155,2.8005,2.9107,2.9166,2.9687,3.0859,3.0889,3.0889,3.0889,3.0889,3.0889,3.0889,3.0889,3.0889,3.0889,3.0889,3.0889,3.0889,3.0889,3.0245,2.9255,3.0431,3.0118,2.889,2.889,2.8116,2.6862,2.5562,2.4363,2.3355,2.3355,2.4,2.4641,2.3479,2.323,2.3324,2.3137,2.3106,2.3106,2.3106,2.3106,2.3106,2.3106,2.3106,2.3106,2.3106,2.323,2.3324,2.3137,2.323,2.3355,2.3355,2.351,2.3938,2.4918,2.4278,2.4332,2.6437,2.5951,2.6216,2.8584,2.7937,2.7727,2.9018,3.0216,3.0918,3.0976,3.0976,3.1152,3.1582,3.1572,3.1797,3.2267,3.2286,3.2482,3.2871,3.2881,3.3057,3.3386,3.3386,3.3386,3.3386,3.3386,3.3386,2.0663,2.089,2.1137,2.1196,2.1211,2.1211,2.1211,2.1211,2.1211,2.1211,2.1423,2.173,2.2148,2.2381,2.2667,2.3047,2.3106,2.3168,2.3417,2.4394,2.5584,2.6836,2.7928,2.9027,3.0128,3.0431,3.0548,3.0548,3.0343,3.0313,3.0548,3.0548,3.0645,3.0889,3.0889,3.0889,3.0889,3.0889,3.0889,3.0889,3.0889,3.0889,3.0889,3.0889,3.0889,3.0889,3.0889,3.0772,3.0587,3.0791,3.0118,2.889,2.889,2.8116,2.6862,2.5562,2.4949,2.4733,2.4733,2.4178,2.3417,2.3175,2.3845,2.4548,2.3448,2.3106,2.3106,2.3106,2.3106,2.3106,2.3106,2.3106,2.3106,2.3106,2.3938,2.4456,2.3355,2.3969,2.4733,2.4733,2.5615,2.6073,2.5256,2.5768,2.6133,2.5531,2.6133,2.7224,2.8712,2.8712,2.9087,3.0401,3.0762,3.1035,3.1377,3.1406,3.1592,3.2061,3.2091,3.2276,3.2666,3.2685,3.2891,3.3301,3.331,3.3318,3.3386,3.3386,3.3386,3.3386,3.3386,3.3386,2.0904,2.1094,2.1211,2.1211,2.1211,2.1211,2.1211,2.1211,2.1211,2.1211,2.1467,2.1796,2.2155,2.2992,2.3757,2.4093,2.4154,2.4602,2.5926,2.6095,2.6831,2.8811,2.9569,3.0186,3.083,3.0889,3.0889,3.0889,3.0889,3.0889,3.0889,3.0889,3.0889,3.0889,3.0889,3.0889,3.0889,3.0889,3.0889,3.0889,3.0889,3.0889,3.0889,3.0889,3.0889,3.0889,3.0889,3.0889,3.0889,3.0889,3.0518,2.9932,2.9932,2.9146,2.7907,2.7297,2.6672,2.5981,2.5317,2.5094,2.491,2.3534,2.3534,2.3938,2.3293,2.3106,2.3106,2.3106,2.3106,2.3106,2.3106,2.3635,2.4154,2.4154,2.5125,2.592,2.5278,2.5615,2.6103,2.6103,2.6589,2.7013,2.7056,2.7026,2.7237,2.8005,2.8026,2.8453,2.9785,3.0122,3.0502,3.1152,3.1211,3.1387,3.1816,3.1855,3.2041,3.2471,3.2521,3.2685,3.3105,3.3115,3.3213,3.3386,3.3386,3.3386,3.3386,3.3386,3.3386,3.3386,3.3386,3.3386,2.1137,2.1211,2.1211,2.1211,2.1211,2.1211,2.1211,2.1211,2.1211,2.1211,2.175,2.2274,2.2565,2.3969,2.52,2.5452,2.5501,2.6225,2.8206,2.7645,2.7864,3.0186,3.046,3.0577,3.0859,3.0889,3.0889,3.0889,3.0889,3.0889,3.0889,3.0889,3.0889,3.0889,3.0889,3.0889,3.0889,3.0889,3.0889,3.0889,3.0889,3.0889,3.0889,3.0889,3.0889,3.0889,3.0889,3.0889,3.0889,3.0889,3.0889,3.0889,3.0889,3.0089,2.8861,2.8593,2.7847,2.687,2.5859,2.6164,2.665,2.461,2.3752,2.3479,2.3199,2.3106,2.3106,2.3106,2.3106,2.3168,2.3448,2.4309,2.5256,2.5798,2.6468,2.7073,2.7345,2.7405,2.7405,2.7405,2.7645,2.8065,2.8772,2.8316,2.8444,3.0216,2.9881,2.9849,3.0898,3.1396,3.1689,3.1777,3.1709,3.1826,3.2296,3.2335,3.2511,3.29,3.293,3.3076,3.3377,3.3386,3.3386,3.3386,3.3386,3.3386,3.3386,3.3386,3.3386,3.3386,3.3386,3.3386,2.1203,2.1211,2.1211,2.1211,2.1211,2.1211,2.1211,2.1211,2.1211,2.1211,2.2633,2.3895,2.3927,2.5492,2.6797,2.6831,2.6831,2.6922,2.7134,2.7073,2.7525,2.892,2.9078,2.956,3.0762,3.0889,3.0889,3.0889,3.0889,3.0889,3.0889,3.0889,3.0889,3.0889,3.0889,3.0889,3.0889,3.0889,3.0889,3.0889,3.0889,3.0889,3.0889,3.0889,3.0889,3.0889,3.0889,3.0889,3.0889,3.0889,3.0889,3.0889,3.0889,3.0089,2.8772,2.7607,2.7103,2.6983,2.6862,2.6892,2.6952,2.671,2.5859,2.4702,2.3479,2.3106,2.3106,2.3106,2.3106,2.3386,2.461,2.501,2.5676,2.7988,2.7757,2.7315,2.8474,2.8742,2.8742,2.8742,2.9697,3.0186,2.9078,2.9815,3.0216,2.9226,3.0344,3.1306,3.1435,3.1836,3.2286,3.2637,3.2334,3.2316,3.2705,3.2734,3.292,3.3308,3.3328,3.3347,3.3386,3.3386,3.3386,3.3386,3.3386,3.3386,3.3386,3.3386,3.3386,3.3386,3.3386,3.3386,2.1211,2.1211,2.1211,2.1211,2.1211,2.1403,2.2121,2.2292,2.2482,2.3163,2.3666,2.4221,2.5024,2.6173,2.7254,2.8026,2.8146,2.8424,2.9224,2.8641,2.8632,2.9932,3.0089,3.0304,3.0859,3.0889,3.0889,3.0889,3.0889,3.0889,3.0889,3.0889,3.0889,3.0889,3.0889,3.0889,3.0889,3.0889,3.0889,3.0889,3.0889,3.0889,3.0889,3.0889,3.0889,3.0889,3.0889,3.0889,3.0889,3.0889,3.0889,3.0889,3.0889,3.0587,3.003,2.952,2.9342,2.9224,2.8424,2.8146,2.8026,2.7254,2.665,2.5859,2.3752,2.3106,2.3106,2.3106,2.3689,2.4425,2.4949,2.6247,2.7847,2.9667,2.9736,2.949,3.0001,3.0089,3.0089,3.0089,3.0518,3.0733,3.0216,3.0548,3.0791,3.0511,3.107,3.1611,3.1875,3.2316,3.2607,3.2773,3.2646,3.2715,3.3135,3.3174,3.3242,3.3377,3.3386,3.3386,3.3386,3.3386,3.3386,3.3386,3.3386,3.3386,3.3386,3.3386,3.3386,3.3386,3.3386,3.3386,2.1289,2.1211,2.1211,2.1211,2.1461,2.1959,2.2813,2.3247,2.3743,2.4533,2.488,2.5344,2.6299,2.7385,2.8462,2.9353,2.9501,2.9815,3.0772,3.0089,2.9844,3.0801,3.0889,3.0889,3.0889,3.0889,3.0889,3.0889,3.0889,3.0889,3.0889,3.0889,3.0889,3.0889,3.0889,3.0889,3.0889,3.0889,3.0889,3.0889,3.0889,3.0889,3.0889,3.0889,3.0889,3.0889,3.0889,3.0889,3.0889,3.0889,3.0889,3.0889,3.0889,3.0889,3.0859,3.046,3.0548,3.0704,2.9383,2.9166,2.9294,2.7966,2.7547,2.7155,2.4941,2.424,2.424,2.424,2.5209,2.6216,2.6216,2.7847,2.9717,3.0674,3.0889,3.0889,3.0889,3.0889,3.0889,3.0889,3.0889,3.0889,3.0889,3.0996,3.1172,3.1475,3.1728,3.2002,3.2345,3.2725,3.2978,3.2978,3.2978,3.3105,3.3367,3.3386,3.3386,3.3386,3.3386,3.3386,3.3386,3.3386,3.3386,3.3386,3.3386,3.3386,3.3386,3.3386,3.3386,3.3386,3.3386,3.3386,2.151,2.1211,2.1211,2.1211,2.2093,2.2982,2.3002,2.3883,2.4699,2.4699,2.6331,2.7747,2.7776,2.9469,3.0859,3.0889,3.0889,3.0889,3.0889,3.0889,3.0889,3.0889,3.0889,3.0889,3.0889,3.0889,3.0889,3.0889,3.0889,3.0889,3.0889,3.0889,3.0889,3.0889,3.0889,3.0889,3.0889,3.0889,3.0889,3.0889,3.0889,3.0889,3.0889,3.0889,3.0889,3.0889,3.0889,3.0889,3.0889,3.0889,3.0889,3.0889,3.0889,3.0889,3.0733,2.9412,2.9746,3.0704,2.9383,2.9785,3.0645,2.9324,2.889,2.8653,2.7345,2.6952,2.6952,2.6952,2.7877,2.8861,2.8861,2.9873,3.0889,3.0889,3.0889,3.0889,3.0889,3.0889,3.0889,3.0889,3.0889,3.0889,3.0889,3.124,3.1514,3.1484,3.2236,3.2783,3.2793,3.3154,3.3386,3.3386,3.3386,3.3386,3.3386,3.3386,3.3386,3.3386,3.3386,3.3386,3.3386,3.3386,3.3386,3.3386,3.3386,3.3386,3.3386,3.3386,3.3386,3.3386,3.3386,3.3386,2.3715,2.3603,2.3603,2.3603,2.3874,2.4375,2.5194,2.5662,2.6154,2.6979,2.7438,2.7955,2.885,2.9306,2.9844,3.0743,3.0889,3.0889,3.0889,3.0889,3.0889,3.0889,3.0889,3.0889,3.0889,3.0889,3.0889,3.0889,3.0889,3.0889,3.0889,3.0889,3.0889,3.0889,3.0889,3.0889,3.0889,3.0889,3.0889,3.0889,3.0889,3.0889,3.0889,3.0889,3.0889,3.0889,3.0889,3.0889,3.0889,3.0889,3.0889,3.0889,3.0889,3.0889,3.0859,3.0421,3.0548,3.083,3.0401,3.0548,3.083,3.0392,3.0274,3.0186,2.9795,2.8412,2.7194,2.8056,2.8593,2.9107,3.003,3.0577,3.0889,3.0889,3.0889,3.0889,3.0889,3.0889,3.0889,3.0889,3.1123,3.1318,3.1318,3.168,3.206,3.2353,3.2617,3.29,3.3152,3.3308,3.3386,3.3386,3.3386,3.3386,3.3386,3.3386,3.3386,3.3386,3.3386,3.3386,3.3386,3.3386,3.3386,3.3386,3.3386,3.3386,3.3386,3.3386,3.3386,3.3386,3.3386,3.3386,2.4948,2.4699,2.4699,2.4699,2.5031,2.5571,2.6327,2.6853,2.7376,2.8157,2.8324,2.8615,2.9458,2.9632,2.9932,3.0762,3.0889,3.0889,3.0889,3.0889,3.0889,3.0889,3.0889,3.0889,3.0889,3.0889,3.0889,3.0889,3.0889,3.0889,3.0889,3.0889,3.0889,3.0889,3.0889,3.0889,3.0889,3.0889,3.0889,3.0889,3.0889,3.0889,3.0889,3.0889,3.0889,3.0889,3.0889,3.0889,0.0,3.0889,3.0889,3.0889,3.0889,3.0889,3.0889,3.0889,3.0889,3.0889,3.0889,3.0889,3.0889,3.0889,3.0889,3.0889,3.0889,2.9765,2.865,2.9422,2.9658,2.9844,3.0674,3.0889,3.0889,3.0889,3.0889,3.0889,3.0889,3.1016,3.1133,3.1133,3.1475,3.1768,3.1768,3.2119,3.2521,3.2754,3.293,3.3125,3.3357,3.3386,3.3386,3.3386,3.3386,3.3386,3.3386,3.3386,3.3386,3.3386,3.3386,3.3386,3.3386,3.3386,3.3386,3.3386,3.3386,3.3386,3.3386,3.3386,3.3506,3.3672,3.3672,3.375,0.0,2.4948,2.4948,2.4948,2.579,2.6636,2.6636,2.7493,0.0,2.833,2.9021,2.9608,2.9637,3.0341,3.0889,3.0889,3.0889,3.0889,3.0889,3.0889,3.0889,3.0889,3.0889,3.0889,3.0889,3.0889,3.0889,3.0889,3.0889,3.0889,3.0889,3.0889,3.0889,3.0889,3.0889,3.0889,3.0889,3.0889,3.0889,3.0889,3.0889,3.0889,3.0889,3.0889,3.0889,3.0889,3.0889,3.0889,3.0889,3.0889,3.0889,3.0889,3.0889,3.0889,3.0889,3.0889,3.0889,3.0889,3.0889,3.0889,3.0889,3.0889,3.0889,3.0889,3.0889,3.0889,3.0889,3.0889,3.0889,3.0889,3.0889,3.0889,3.0898,3.0928,3.0937,3.0947,3.0976,3.1289,3.1562,3.1562,3.1914,3.2247,3.2247,3.2589,3.2842,3.2842,3.3174,3.3386,3.3386,3.3386,3.3386,3.3386,3.3386,3.3386,3.3386,3.3386,3.3386,3.3386,3.3386,3.3386,3.3386,3.3386,3.3386,3.3386,3.3386,3.3406,3.3435,3.3435,3.3691,3.4153,3.4153,3.4359,2.7618,0.0,2.7457,2.7457,2.7682,2.7879,0.0,2.8094,2.8389,2.8711,2.9199,2.9696,2.999,3.0508,3.0889,3.0889,3.0889,3.0889,3.0889,3.0889,3.0889,3.0889,3.0889,3.0889,3.0889,3.0889,3.0889,3.0889,3.0889,3.0889,3.0889,3.0889,3.0889,3.0889,3.0889,3.0889,3.0889,3.0889,3.0889,3.0889,3.0889,3.0889,3.0889,3.0889,3.0889,3.0889,3.0889,3.0889,3.0889,3.0889,3.0889,3.0889,3.0889,3.0889,3.0889,3.0889,3.0889,3.0889,3.0889,3.0889,3.0889,3.0889,3.0889,3.0889,3.0889,3.0889,3.0889,3.0889,3.0889,3.0889,3.0889,3.0889,3.0976,3.1299,3.1367,3.1465,3.1827,3.1973,3.2042,3.2042,3.2363,3.2646,3.2646,3.2998,3.3271,3.3271,3.3328,3.3386,3.3386,3.3386,3.3386,3.3386,3.3386,3.3386,3.3386,3.3386,3.3386,3.3386,3.3386,3.3386,3.3386,3.3386,3.3386,3.3386,3.3386,3.3584,3.3948,3.3948,3.4141,3.4551,3.4551,3.4773,2.8291,2.8291,2.8291,2.8291,2.8291,2.8291,2.8291,2.8291,2.8408,2.8811,2.9268,2.9725,3.0117,3.0576,3.0889,3.0889,3.0889,3.0889,3.0889,3.0889,3.0889,3.0889,3.0889,3.0889,3.0889,3.0889,3.0889,3.0889,3.0889,3.0889,3.0889,3.0889,3.0889,3.0889,3.0889,3.0889,3.0889,3.0889,3.0889,3.0889,3.0889,3.0889,3.0889,3.0889,3.0889,3.0889,3.0889,3.0889,3.0889,3.0889,3.0889,3.0889,3.0889,3.0889,3.0889,3.0889,3.0889,3.0889,3.0889,3.0889,3.0889,3.0889,3.0889,3.0889,3.0889,3.0889,3.0889,3.0889,3.0889,3.0889,3.0889,3.1035,3.124,3.1435,3.167,3.1875,3.2149,3.2355,3.2482,3.2482,3.2793,3.3086,3.3086,3.3271,3.3386,3.3386,3.3386,3.3386,3.3386,3.3386,3.3386,3.3386,3.3386,3.3386,3.3386,3.3386,3.3386,3.3386,3.3386,3.3386,3.3386,3.3386,3.3516,3.3721,3.3721,3.3935,3.4388,3.4388,3.459,3.5019,3.5165,3.5372,2.8291,2.8291,2.8291,2.8291,2.8291,2.8291,2.8291,2.8291,2.8428,2.8916,2.9316,2.9745,3.0215,3.0625,3.0889,3.0889,3.0889,3.0889,3.0889,3.0889,3.0889,3.0889,3.0889,3.0889,3.0889,3.0889,3.0889,3.0889,3.0889,3.0889,3.0889,3.0889,3.0889,3.0889,3.0889,3.0889,3.0889,3.0889,3.0889,3.0889,3.0889,3.0889,3.0889,3.0889,3.0889,3.0889,3.0889,3.0889,3.0889,3.0889,3.0889,3.0889,3.0889,3.0889,3.0889,3.0889,3.0889,3.0889,3.0889,3.0889,3.0889,3.0889,3.0889,3.0889,3.0889,3.0889,3.0889,3.0889,3.0889,3.0908,3.0976,3.125,3.1523,3.168,3.1992,3.2316,3.2374,3.2637,3.2891,3.2891,3.3174,3.3386,3.3386,3.3386,3.3386,3.3386,3.3386,3.3386,3.3386,3.3386,3.3386,3.3386,3.3386,3.3386,3.3386,3.3386,3.3386,3.3386,3.3386,3.3416,3.3516,3.3525,3.3721,3.4192,3.4202,3.4375,3.4805,3.4805,3.5039,3.5488,3.5793,3.6024,2.8291,2.8291,2.8291,2.8291,2.8291,2.8291,2.8291,2.8291,2.8516,2.9334,2.9549,2.9843,3.0664,3.084,3.0889,3.0889,3.0889,3.0889,3.0889,3.0889,3.0889,3.0889,3.0889,3.0889,3.0889,3.0889,3.0889,3.0889,3.0889,3.0889,3.0889,3.0889,3.0889,3.0889,3.0889,3.0889,3.0889,3.0889,3.0889,3.0889,3.0889,3.0889,3.0889,3.0889,3.0889,3.0889,3.0889,3.0889,3.0889,3.0889,3.0889,3.0889,3.0889,3.0889,3.0889,3.0889,3.0889,3.0889,3.0889,3.0889,3.0889,3.0889,3.0889,3.0889,3.0889,3.0889,3.0889,3.0889,3.0889,3.0976,3.1328,3.1445,3.1699,3.2432,3.2656,3.2793,3.3154,3.325,3.333,3.333,3.3347,3.3386,3.3386,3.3386,3.3386,3.3386,3.3386,3.3386,3.3386,3.3386,3.3386,3.3386,3.3386,3.3386,3.3386,3.3386,3.3386,3.3386,3.3386,3.3584,3.3997,3.4007,3.4202,3.46,3.46,3.4824,3.5293,3.5293,3.5508,3.5928,3.5952,3.632,2.8291,2.8291,2.8291,2.8291,2.8291,2.8291,2.8291,2.8467,2.8809,2.9471,2.9784,3.0107,3.0771,3.0889,3.0889,3.0889,3.0889,3.0889,3.0889,3.0889,3.0889,3.0889,3.0889,3.0889,3.0889,3.0889,3.0889,3.0889,3.0889,3.0889,3.0889,3.0889,3.0889,3.0889,3.0889,3.0889,3.0889,3.0889,3.0889,3.0889,3.0889,3.0889,3.0889,3.0889,3.0889,3.0889,3.0889,3.0889,3.0889,3.0889,3.0889,3.0889,3.0889,3.0889,3.0889,3.0889,3.0889,3.0889,3.0889,3.0889,3.0889,3.0889,3.0889,3.0889,3.0889,3.0889,3.0889,3.0889,3.0889,3.0986,3.1406,3.1699,3.2031,3.2646,3.2969,3.3152,3.3347,3.3386,3.3386,3.3386,3.3386,3.3386,3.3386,3.3386,3.3386,3.3386,3.3386,3.3386,3.3386,3.3386,3.3386,3.3386,3.3386,3.3386,3.3386,3.3386,3.3525,3.376,3.3769,3.3965,3.4427,3.4404,3.4619,3.5068,3.5078,3.5293,3.5732,3.5732,3.583,3.6016,3.6413,3.6674,2.8291,2.8291,2.8291,2.8291,2.8291,2.832,2.8418,2.8682,2.9072,2.9637,2.9999,3.0342,3.0801,3.0889,3.0889,3.0889,3.0889,3.0889,3.0889,3.0889,3.0889,3.0889,3.0889,3.0889,3.0889,3.0889,3.0889,3.0889,3.0889,3.0889,3.0889,3.0889,3.0889,3.0889,3.0889,3.0889,3.0889,3.0889,3.0889,3.0889,3.0889,3.0889,3.0889,3.0889,3.0889,3.0889,3.0889,3.0889,3.0889,3.0889,3.0889,3.0889,3.0889,3.0889,3.0889,3.0889,3.0889,3.0889,3.0889,3.0889,3.0889,3.0889,3.0889,3.0889,3.0889,3.0889,3.0889,3.0889,3.0957,3.1133,3.1562,3.1992,3.2452,3.2842,3.3193,3.3386,3.3386,3.3386,3.3386,3.3386,3.3386,3.3386,3.3386,3.3386,3.3386,3.3386,3.3386,3.3386,3.3386,3.3386,3.3386,3.3386,3.3386,3.3425,3.3564,3.3574,3.3799,3.4378,3.431,3.4414,3.4844,3.4863,3.5078,3.5527,3.5537,3.5703,3.5982,3.6084,3.6118,3.6142,3.6775,3.6978,2.8291,2.8291,2.8291,2.8291,2.8291,2.8398,2.8779,2.8869,2.915,2.998,3.0176,3.0342,3.0801,3.0889,3.0889,3.0889,3.0889,3.0889,3.0889,3.0889,3.0889,3.0889,3.0889,3.0889,3.0889,3.0889,3.0889,3.0889,3.0889,3.0889,3.0889,3.0889,3.0889,3.0889,3.0889,3.0889,3.0889,3.0889,3.0889,3.0889,3.0889,3.0889,3.0889,3.0889,3.0889,3.0889,3.0889,3.0889,3.0889,3.0889,3.0889,3.0889,3.0889,3.0889,3.0889,3.0889,3.0889,3.0889,3.0889,3.0889,3.0889,3.0889,3.0889,3.0889,3.0889,3.0889,3.0889,3.0889,3.1172,3.1572,3.2042,3.2432,3.2861,3.325,3.3367,3.3386,3.3386,3.3386,3.3386,3.3386,3.3386,3.3386,3.3386,3.3386,3.3386,3.3386,3.3386,3.3386,3.3386,3.3386,3.3386,3.3386,3.3386,3.3584,3.4026,3.4055,3.4417,3.5244,3.4892,3.4863,3.5322,3.5342,3.5537,3.5933,3.5976,3.5952,3.5982,3.6292,3.6451,3.6485,3.69,3.7247,2.8291,2.8291,2.8291,2.8291,2.8486,2.8694,2.8859,2.9336,2.9805,3.0127,3.043,3.0684,3.0859,3.0889,3.0889,3.0889,3.0889,3.0889,3.0889,3.0889,3.0889,3.0889,3.0889,3.0889,3.0889,3.0889,3.0889,3.0889,3.0889,3.0889,3.0889,3.0889,3.0889,3.0889,3.0889,3.0889,3.0889,3.0889,3.0889,3.0889,3.0889,3.0889,3.0889,3.0889,3.0889,3.0889,3.0889,3.0889,3.0889,3.0889,3.0889,3.0889,3.0889,3.0889,3.0889,3.0889,3.0889,3.0889,3.0889,3.0889,3.0889,3.0889,3.0889,3.0889,3.0889,3.1074,3.1279,3.1279,3.1777,3.2295,3.2228,3.2511,3.29,3.3289,3.3386,3.3386,3.3386,3.3386,3.3386,3.3386,3.3386,3.3386,3.3386,3.3386,3.3386,3.3386,3.3386,3.3386,3.3386,3.3386,3.3494,3.3799,3.4062,3.4287,3.4453,3.4726,3.5039,3.5371,3.5225,3.5332,3.5762,3.5781,3.5825,3.6016,3.62,3.6292,3.6292,3.6698,3.6866,3.6866,3.7247,3.7482,2.8291,2.8291,2.833,2.8457,2.8809,2.916,2.9287,2.9775,3.0234,3.0391,3.0674,3.0889,3.0889,3.0889,3.0889,3.0889,3.0889,3.0889,3.0889,3.0889,3.0889,3.0889,3.0889,3.0889,3.0889,3.0889,3.0889,3.0889,3.0889,3.0889,3.0889,3.0889,3.0889,3.0889,3.0889,3.0889,3.0889,3.0889,3.0889,3.0889,3.0889,3.0889,3.0889,3.0889,3.0889,3.0889,3.0889,3.0889,3.0889,3.0889,3.0889,3.0889,3.0889,3.0889,3.0889,3.0889,3.0889,3.0889,3.0889,3.0889,3.0889,3.0889,3.0986,3.1094,3.1094,3.1387,3.1728,3.1728,3.2236,3.2725,3.2472,3.2676,3.3066,3.3318,3.3386,3.3386,3.3386,3.3386,3.3386,3.3386,3.3386,3.3386,3.3386,3.3386,3.3386,3.3386,3.3386,3.3386,3.3386,3.3545,3.3789,3.4228,3.4531,3.4756,3.4912,3.5215,3.5449,3.5586,3.5687,3.5814,3.5972,3.5982,3.605,3.6142,3.6393,3.6553,3.6688,3.6978,3.7146,3.7247,3.7482,3.7659,2.8291,2.8291,2.8398,2.8791,2.9248,2.9706,3.0098,3.0205,3.0332,3.0801,3.0889,3.0889,3.0889,3.0889,3.0889,3.0889,3.0889,3.0889,3.0889,3.0889,3.0889,3.0889,3.0889,3.0889,3.0889,3.0889,3.0889,3.0889,3.0889,3.0889,3.0889,3.0889,3.0889,3.0889,3.0889,3.0889,3.0889,3.0889,3.0889,3.0889,3.0889,3.0889,3.0889,3.0889,3.0889,3.0889,3.0889,3.0889,3.0889,3.0889,3.0889,3.0889,3.0889,3.0889,3.0889,3.0889,3.0889,3.0898,3.0898,3.0898,3.0898,3.0898,3.1182,3.1523,3.1523,3.1826,3.2208,3.2208,3.2511,3.2803,3.2803,3.3105,3.3386,3.3386,3.3386,3.3386,3.3386,3.3386,3.3386,3.3386,3.3386,3.3386,3.3386,3.3386,3.3386,3.3386,3.3428,3.3396,3.3437,3.3809,3.428,3.4658,3.4707,3.4892,3.5361,3.54,3.5576,3.5996,3.6336,3.636,3.6025,3.6016,3.6176,3.6485,3.6519,3.6688,3.7112,3.7112,3.728,3.7626,3.7626,3.7827,2.8291,2.8291,2.8398,2.8791,2.9248,2.9706,3.0098,3.0449,3.0723,3.0859,3.0889,3.0889,3.0889,3.0889,3.0889,3.0889,3.0889,3.0889,3.0889,3.0889,3.0889,3.0889,3.0889,3.0889,3.0889,3.0889,3.0889,3.0889,3.0889,3.0889,3.0889,3.0889,3.0889,3.0889,3.0889,3.0889,3.0889,3.0889,3.0889,3.0889,3.0889,3.0889,3.0889,3.0889,3.0889,3.0889,3.0889,3.0889,3.0889,3.0889,3.0889,3.0889,3.0889,3.0889,3.0889,3.0889,3.1074,3.1328,3.1328,3.1533,3.1817,3.1817,3.1905,3.2003,3.2003,3.2306,3.2607,3.2607,3.291,3.3232,3.3232,3.3299,3.3386,3.3386,3.3386,3.3386,3.3386,3.3386,3.3386,3.3386,3.3386,3.3386,3.3386,3.3386,3.3386,3.3386,3.3872,3.4369,3.4685,3.489,3.5049,3.5176,3.5449,3.5684,3.582,3.6047,3.6231,3.635,3.6698,3.6732,3.636,3.6606,3.6674,3.6519,3.6765,3.6978,3.7112,3.7348,3.7659,3.8004,3.8004,3.8081,2.8291,2.8418,2.8643,2.9072,2.9502,2.996,3.0371,3.0693,3.0889,3.0889,3.0889,3.0889,3.0889,3.0889,3.0889,3.0889,3.0889,3.0889,3.0889,3.0889,3.0889,3.0889,3.0889,3.0889,3.0889,3.0889,3.0889,3.0889,3.0889,3.0889,3.0889,3.0889,3.0889,3.0889,3.0889,3.0889,3.0889,3.0889,3.0889,3.0889,3.0889,3.0889,3.0889,3.0889,3.0889,3.0889,3.0889,3.0889,3.0889,3.0889,3.0889,3.0889,3.0889,3.0996,3.1143,3.1143,3.1406,3.1777,3.1777,3.1953,3.2198,3.2198,3.2316,3.2452,3.2452,3.2715,3.3047,3.3047,3.3191,3.3386,3.3386,3.3386,3.3386,3.3386,3.3386,3.3386,3.3386,3.3386,3.3386,3.3386,3.3386,3.3386,3.3386,3.3513,3.3544,3.3418,3.398,3.462,3.5274,3.5391,3.5516,3.5807,3.6053,3.6278,3.6413,3.663,3.6732,3.6732,3.7102,3.718,3.6968,3.7035,3.6978,3.6732,3.7112,3.7391,3.7525,3.7592,3.7803,3.8181,3.8048,3.8048,2.8291,2.8603,2.8996,2.9491,2.9912,3.0371,3.0791,3.0889,3.0889,3.0889,3.0889,3.0889,3.0889,3.0889,3.0889,3.0889,3.0889,3.0889,3.0889,3.0889,3.0889,3.0889,3.0889,3.0889,3.0889,3.0889,3.0889,3.0889,3.0889,3.0889,3.0889,3.0889,3.0889,3.0889,3.0889,3.0889,3.0889,3.0889,3.0889,3.0889,3.0889,3.0889,3.0889,3.0889,3.0889,3.0889,3.0889,3.0889,3.0889,3.0889,3.0889,3.0898,3.0928,3.1182,3.1523,3.1562,3.1855,3.2257,3.2257,3.2276,3.2316,3.2316,3.257,3.2851,3.2851,3.3115,3.3386,3.3386,3.3386,3.3386,3.3386,3.3386,3.3386,3.3386,3.3386,3.3386,3.3386,3.3386,3.3386,3.3386,3.3386,3.3418,3.3449,3.367,3.3794,3.3652,3.397,3.459,3.5509,3.5583,3.5821,3.6479,3.6553,3.6688,3.7079,3.7146,3.7146,3.7146,3.7482,3.7649,3.7582,3.7348,3.718,3.7146,3.7448,3.7793,3.8148,3.7793,3.7803,3.8181,3.7827,3.786,2.8291,2.8603,2.8996,2.9491,3.0194,3.0771,3.0869,3.0889,3.0889,3.0889,3.0889,3.0889,3.0889,3.0889,3.0889,3.0889,3.0889,3.0889,3.0889,3.0889,3.0889,3.0889,3.0889,3.0889,3.0889,3.0889,3.0889,3.0889,3.0889,3.0889,3.0889,3.0889,3.0889,3.0889,3.0889,3.0889,3.0889,3.0889,3.0889,3.0889,3.0889,3.0889,3.0889,3.0889,3.0889,3.0889,3.0889,3.0889,3.0889,3.0889,3.0889,3.0928,3.126,3.1406,3.1533,3.1904,3.2295,3.2656,3.2656,3.2871,3.3154,3.3154,3.3213,3.3281,3.3281,3.3318,3.3386,3.3386,3.3386,3.3386,3.3386,3.3386,3.3386,3.3386,3.3386,3.3386,3.3386,3.3386,3.3386,3.3386,3.3386,3.3481,3.3765,3.3639,3.3906,3.5111,3.5427,3.5895,3.6978,3.6914,3.681,3.6958,3.6968,3.7011,3.7079,3.7348,3.7482,3.7482,3.787,3.7937,3.7616,3.7837,3.7803,3.7482,3.7549,3.7649,3.7726,3.7649,3.7803,3.8181,3.8114,3.8114,2.8291,2.875,2.9385,3.0067,3.0547,3.0889,3.0889,3.0889,3.0889,3.0889,3.0889,3.0889,3.0889,3.0889,3.0889,3.0889,3.0889,3.0889,3.0889,3.0889,3.0889,3.0889,3.0889,3.0889,3.0889,3.0889,3.0889,3.0889,3.0889,3.0889,3.0889,3.0889,3.0889,3.0889,3.0889,3.0889,3.0889,3.0889,3.0889,3.0889,3.0889,3.0889,3.0889,3.0889,3.0889,3.0889,3.0889,3.0889,3.0889,3.0889,3.0889,3.0928,3.1348,3.165,3.1885,3.2335,3.2734,3.3096,3.3096,3.3211,3.3386,3.3386,3.3386,3.3386,3.3386,3.3386,3.3386,3.3386,3.3386,3.3386,3.3386,3.3386,3.3386,3.3386,3.3386,3.3386,3.3386,3.3386,3.3386,3.3386,3.3386,3.3459,3.3639,3.3847,3.4472,3.5877,3.6132,3.6443,3.7263,3.7213,3.7146,3.7314,3.7348,3.7425,3.7592,3.7803,3.7904,3.7904,3.8081,3.8114,3.7904,3.8081,3.8004,3.7626,3.7793,3.7904,3.7904,3.7904,3.8004,3.8181,3.8181,3.8181,2.8291,2.8943,2.9813,3.0664,3.0889,3.0889,3.0889,3.0889,3.0889,3.0889,3.0889,3.0889,3.0889,3.0889,3.0889,3.0889,3.0889,3.0889,3.0889,3.0889,3.0889,3.0889,3.0889,3.0889,3.0889,3.0889,3.0889,3.0889,3.0889,3.0889,3.0889,3.0889,3.0889,3.0889,3.0889,3.0889,3.0889,3.0889,3.0889,3.0889,3.0889,3.0889,3.0889,3.0889,3.0889,3.0889,3.0889,3.0889,3.0889,3.0889,3.0889,3.0947,3.1435,3.1846,3.2257,3.2725,3.3125,3.3386,3.3386,3.3386,3.3386,3.3386,3.3386,3.3386,3.3386,3.3386,3.3386,3.3386,3.3386,3.3386,3.3386,3.3386,3.3386,3.3386,3.3386,3.3386,3.3386,3.3386,3.3386,3.3386,3.3481,3.3573,3.361,3.4302,3.5254,3.6327,3.6541,3.6766,3.724,3.729,3.7391,3.7659,3.7693,3.7837,3.8181,3.8181,3.8181,3.8181,3.8181,3.8181,3.8181,3.8181,3.8048,3.7726,3.8037,3.8181,3.8181,3.8181,3.8181,3.8181,3.8181,3.8181,2.8291,2.8943,2.9813,3.0664,3.0889,3.0889,3.0889,3.0889,3.0889,3.0889,3.0889,3.0889,3.0889,3.0889,3.0889,3.0889,3.0889,3.0889,3.0889,3.0889,3.0889,3.0889,3.0889,3.0889,3.0889,3.0889,3.0889,3.0889,3.0889,3.0889,3.0889,3.0889,3.0889,3.0889,3.0889,3.0889,3.0889,3.0889,3.0889,3.0889,3.0889,3.0889,3.0889,3.0889,3.0889,3.0889,3.0889,3.0889,3.0889,3.0889,3.0889,3.0976,3.1798,3.2149,3.2296,3.3047,3.3347,3.3386,3.3386,3.3386,3.3386,3.3386,3.3386,3.3386,3.3386,3.3386,3.3386,3.3386,3.3386,3.3386,3.3386,3.3386,3.3386,3.3386,3.3386,3.3386,3.3386,3.3386,3.3386,3.3386,3.3859,3.4293,3.4427,3.5346,3.6274,3.6815,3.7213,3.7588,3.8004,3.8048,3.8081,3.8114,3.8114,3.8148,3.8181,3.8181,3.8181,3.8181,3.8181,3.8181,3.8181,3.8181,3.8181,3.8114,3.8181,3.8181,3.8181,3.8181,3.8181,3.8181,3.8181,3.8181,2.8904,2.9315,2.9813,3.0664,3.0889,3.0889,3.0889,3.0889,3.0889,3.0889,3.0889,3.0889,3.0889,3.0889,3.0889,3.0889,3.0889,3.0889,3.0889,3.0889,3.0889,3.0889,3.0889,3.0889,3.0889,3.0889,3.0889,3.0889,3.0889,3.0889,3.0889,3.0889,3.0889,3.0889,3.0889,3.0889,3.0889,3.0889,3.0889,3.0889,3.0889,3.0889,3.0889,3.0889,3.0889,3.0889,3.0889,3.0889,3.0889,3.0889,3.0889,3.0976,3.1866,3.2198,3.2306,3.3115,3.3386,3.3386,3.3386,3.3386,3.3386,3.3386,3.3386,3.3386,3.3386,3.3386,3.3386,3.3386,3.3386,3.3386,3.3386,3.3386,3.3386,3.3386,3.3386,3.3386,3.3386,3.3386,3.3459,3.3639,3.4079,3.4581,3.5188,3.5824,3.6556,3.7228,3.767,3.8004,3.8181,3.8181,3.8181,3.8181,3.8181,3.8181,3.8181,3.8181,3.8181,3.8181,3.8181,3.8181,3.8181,3.8181,3.8181,3.8181,3.8181,3.8181,3.8181,3.8181,3.8181,3.8181,3.8181,3.8181,2.9364,2.9598,2.9813,3.0664,3.0889,3.0889,3.0889,3.0889,3.0889,3.0889,3.0889,3.0889,3.0889,3.0889,3.0889,3.0889,3.0889,3.0889,3.0889,3.0889,3.0889,3.0889,3.0889,3.0889,3.0889,3.0889,3.0889,3.0889,3.0889,3.0889,3.0889,3.0889,3.0889,3.0889,3.0889,3.0889,3.0889,3.0889,3.0889,3.0889,3.0889,3.0889,3.0898,3.0996,3.1055,3.1045,3.0937,3.0889,3.0889,3.0889,3.0889,3.0976,3.1866,3.2198,3.2306,3.3115,3.3386,3.3386,3.3386,3.3386,3.3386,3.3386,3.3386,3.3386,3.3386,3.3386,3.3386,3.3386,3.3386,3.3386,3.3386,3.3386,3.3386,3.3386,3.3386,3.3418,3.3513,3.3544,3.3639,3.3953,3.4388,3.4972,3.5792,3.6316,3.6859,3.7647,3.8014,3.8181,3.8181,3.8181,3.8181,3.8181,3.8181,3.8181,3.8181,3.8181,3.8181,3.8181,3.8181,3.8181,3.8181,3.8181,3.8181,3.8181,3.8181,3.8181,3.8181,3.8181,3.8181,3.8181,3.8181,3.8181,2.9364,2.9598,2.9813,3.0664,3.0889,3.0889,3.0889,3.0889,3.0889,3.0889,3.0889,3.0889,3.0889,3.0889,3.0889,3.0889,3.0889,3.0889,3.0889,3.0889,3.0889,3.0889,3.0889,3.0889,3.0889,3.0889,3.0889,3.0889,3.0889,3.0889,3.0889,3.0889,3.0889,3.0889,3.0889,3.0889,3.0889,3.0889,3.0889,3.0889,3.0889,3.0889,3.0898,3.1299,3.1484,3.1465,3.1064,3.0889,3.0889,3.0889,3.0889,3.0976,3.1866,3.2198,3.2306,3.3115,3.3386,3.3386,3.3386,3.3386,3.3386,3.3386,3.3386,3.3386,3.3386,3.3386,3.3386,3.3386,3.3386,3.3386,3.3386,3.3386,3.3386,3.3386,3.3386,3.3481,3.3796,3.3859,3.3985,3.4298,3.4986,3.5686,3.6197,3.6907,3.7589,3.8109,3.8191,3.8181,3.8181,3.8181,3.8181,3.8181,3.8181,3.8181,3.8181,3.8181,3.8181,3.8181,3.8181,3.8181,3.8181,3.8181,3.8181,3.8181,3.8181,3.8181,3.8181,3.8181,3.8181,3.8181,3.8181,3.8181,2.8994,2.9355,2.9745,3.0293,3.0674,3.0889,3.0889,3.0889,3.0889,3.0889,3.0889,3.0889,3.0889,3.0889,3.0889,3.0889,3.0889,3.0889,3.0889,3.0889,3.0889,3.0889,3.0889,3.0889,3.0889,3.0889,3.0889,3.0889,3.0889,3.0889,3.0889,3.0889,3.0889,3.0889,3.0889,3.0889,3.0889,3.0889,3.0889,3.0898,3.1162,3.1299,3.1309,3.1738,3.1934,3.1924,3.1807,3.1739,3.1739,3.1739,3.1739,3.1798,3.2374,3.2609,3.2637,3.3213,3.3386,3.3386,3.3386,3.3386,3.3386,3.3386,3.3386,3.3386,3.3386,3.3386,3.3386,3.3386,3.3386,3.3386,3.3386,3.3386,3.3386,3.3386,3.3386,3.3544,3.411,3.4235,3.4357,3.4764,3.543,3.6159,3.6953,3.7319,3.7653,3.8119,3.8181,3.8181,3.8181,3.8181,3.8181,3.8181,3.8181,3.8181,3.8181,3.8181,3.8181,3.8181,3.8181,3.8181,3.8181,3.8181,3.8181,3.8181,3.8181,3.8181,3.8181,3.8181,3.8181,3.8181,3.8181,3.8181,2.8781,2.9238,2.9706,3.0098,3.0854,3.1402,3.1005,3.1199,3.1392,3.0976,3.0889,3.0889,3.0889,3.0889,3.0889,3.0889,3.0889,3.0889,3.0889,3.0889,3.0889,3.0889,3.0889,3.0889,3.0889,3.0889,3.0889,3.0889,3.0889,3.0889,3.0889,3.0889,3.0889,3.0889,3.0889,3.0889,3.0889,3.1035,3.1103,3.1103,3.1533,3.1738,3.1748,3.2208,3.2413,3.2413,3.2529,3.2462,3.2198,3.2198,3.2198,3.2237,3.2627,3.2793,3.2842,3.324,3.3386,3.3386,3.3386,3.3386,3.3386,3.3386,3.3386,3.3386,3.3386,3.3386,3.3386,3.3386,3.3386,3.3386,3.3386,3.3386,3.3386,3.3386,3.3481,3.3741,3.4331,3.456,3.4798,3.5322,3.6042,3.6773,3.7384,3.7622,3.7829,3.814,3.8181,3.8181,3.8181,3.8181,3.8181,3.8181,3.8181,3.8181,3.8181,3.8181,3.8181,3.8181,3.8181,3.8181,3.8181,3.8181,3.8181,3.8181,3.8181,3.8181,3.8181,3.8181,3.8181,3.8181,3.8181,3.8181,0.0,0.0,0.0,3.0135,3.1482,3.241,3.1257,3.1903,3.241,3.1199,3.0947,3.0947,3.0928,3.0889,3.0889,3.0889,3.0889,3.0889,3.0889,3.0889,3.0889,3.0889,3.0889,3.0889,3.0889,3.0889,3.0889,3.0889,3.0889,3.0889,3.0889,3.0889,3.0889,3.0889,3.0898,3.0908,3.0908,3.1328,3.1503,3.1543,3.1982,3.2218,3.2237,3.2627,3.2812,3.2832,3.3242,3.2959,3.2237,3.2237,3.2237,3.2276,3.2687,3.2812,3.2861,3.3271,3.3386,3.3386,3.3386,3.3386,3.3386,3.3386,3.3386,3.3386,3.3386,3.3386,3.3386,3.3386,3.3386,3.3386,3.3386,3.3428,3.3428,3.3437,3.369,3.4061,3.4539,3.4936,3.536,3.5995,3.6877,3.7498,3.7508,3.7891,3.8181,3.8181,3.8181,3.8181,3.8181,3.8181,3.8181,3.8181,3.8181,3.8181,3.8181,3.8181,3.8181,3.8181,3.8181,3.8181,3.8181,3.8181,3.8181,3.8181,3.8181,3.8181,3.8181,3.8181,3.8181,3.8181,3.8181,3.8181,2.8437,0.0,0.0,0.0,0.0,0.0,3.3318,3.3702,3.3589,3.2428,3.2209,3.1932,3.1054,3.0889,3.0889,3.0889,3.0889,3.0889,3.0889,3.0889,3.0889,3.0889,3.0889,3.0889,3.0889,3.0889,3.0889,3.0889,3.0889,3.0889,3.0889,3.0889,3.0889,3.0889,3.1182,3.1318,3.1318,3.1777,3.2022,3.2022,3.2412,3.2627,3.2637,3.3057,3.322,3.322,3.3338,3.3259,3.3076,3.3076,3.3076,3.3086,3.3203,3.322,3.3262,3.3347,3.3386,3.3386,3.3386,3.3386,3.3386,3.3386,3.3386,3.3386,3.3386,3.3386,3.3386,3.3386,3.3386,3.3386,3.3386,3.3576,3.3843,3.4201,3.4525,3.4963,3.5672,3.6156,3.652,3.6715,3.7159,3.7601,3.7933,3.8098,3.8181,3.8181,3.8181,3.8181,3.8181,3.8181,3.8181,3.8181,3.8181,3.8181,3.8181,3.8181,3.8181,3.8181,3.8181,3.8181,3.8181,3.8181,3.8181,3.8181,3.8181,3.8181,3.8181,3.8181,3.8181,3.8181,3.8181,3.8181,2.8291,2.9315,3.0512,3.1206,0.0,0.0,3.3758,3.4056,3.3916,3.2295,3.196,3.173,3.1034,3.0889,3.0889,3.0889,3.0889,3.0889,3.0889,3.0889,3.0889,3.0889,3.0889,3.0889,3.0889,3.0889,3.0889,3.0889,3.0889,3.0889,3.0889,3.0889,3.0889,3.0889,3.1299,3.1484,3.1484,3.2129,3.2462,3.2472,3.2861,3.3057,3.3066,3.3279,3.3386,3.3386,3.3386,3.3386,3.3386,3.3386,3.3386,3.3386,3.3386,3.3386,3.3386,3.3386,3.3386,3.3386,3.3386,3.3386,3.3386,3.3386,3.3386,3.3386,3.3386,3.3386,3.3386,3.3386,3.3386,3.3498,3.3801,3.4041,3.434,3.4947,3.5379,3.5789,3.643,3.691,3.7193,3.7193,3.7522,3.7871,3.814,3.8181,3.8181,3.8181,3.8181,3.8181,3.8181,3.8181,3.8181,3.8181,3.8181,3.8181,3.8181,3.8181,3.8181,3.8181,3.8181,3.8181,3.8181,3.8181,3.8181,3.8181,3.8181,3.8181,3.8181,3.8181,3.8181,3.8181,3.8181,3.8181,2.8451,2.9917,3.1452,3.1713,3.3998,0.0,3.3741,3.4067,3.4168,3.195,3.1479,3.145,3.1305,3.1276,3.1276,3.1276,3.117,3.1064,3.0918,3.1034,3.1093,3.1093,3.1199,3.1276,3.1276,3.117,3.1093,3.1093,3.0976,3.0889,3.0889,3.0889,3.0918,3.0957,3.1367,3.1611,3.163,3.2461,3.2861,3.2871,3.3242,3.3386,3.3386,3.3386,3.3386,3.3386,3.3386,3.3386,3.3386,3.3386,3.3386,3.3386,3.3386,3.3386,3.3386,3.3386,3.3386,3.3386,3.3386,3.3386,3.3386,3.3386,3.3386,3.3386,3.3386,3.3386,3.3386,3.3386,3.3457,3.3711,3.4413,3.468,3.4989,3.5763,3.6199,3.6548,3.7041,3.7373,3.757,3.757,3.7902,3.8181,3.8181,3.8181,3.8181,3.8181,3.8181,3.8181,3.8181,3.8181,3.8181,3.8181,3.8181,3.8181,3.8181,3.8181,3.8181,3.8181,3.8181,3.8181,3.8181,3.8181,3.8181,3.8181,3.8181,3.8181,3.8181,3.8181,3.8181,3.8181,3.8181,3.8281,2.9339,3.0461,3.1849,3.3696,3.518,0.0,3.6854,3.715,3.6881,3.5454,3.5179,3.4875,3.3899,3.373,3.373,3.373,3.296,3.2018,3.1034,3.173,3.2352,3.2352,3.3148,3.373,3.373,3.2903,3.2352,3.2352,3.145,3.0889,3.0889,3.0889,3.1045,3.1357,3.1816,3.2237,3.2539,3.3047,3.3269,3.3269,3.3347,3.3386,3.3386,3.3386,3.3386,3.3386,3.3386,3.3386,3.3386,3.3386,3.3386,3.3386,3.3386,3.3386,3.3386,3.3386,3.3386,3.3386,3.3386,3.3386,3.3386,3.3386,3.3386,3.3386,3.3386,3.3386,3.3386,3.3386,3.3862,3.4413,3.4556,3.5262,3.6107,3.663,3.7026,3.7389,3.7844,3.8013,3.8046,3.8046,3.8119,3.8181,3.8181,3.8181,3.8181,3.8181,3.8181,3.8181,3.8181,3.8181,3.8181,3.8181,3.8181,3.8181,3.8181,3.8181,3.8181,3.8181,3.8181,3.8181,3.8181,3.8181,3.8181,3.8181,3.8181,3.8181,3.8181,3.8181,3.8181,3.8181,3.8181,3.8791,3.0842,3.2306,3.3758,3.4914,3.6149,0.0,0.0,3.7108,3.6746,3.5564,3.5317,3.5113,3.4503,3.4391,3.4391,3.4391,3.3431,3.2685,3.2646,3.2152,3.2047,3.2628,3.3204,3.3786,3.4336,3.3899,3.3318,3.2742,3.1566,3.0889,3.0889,3.0889,3.1084,3.1474,3.1973,3.2394,3.2793,3.3213,3.3386,3.3386,3.3386,3.3386,3.3386,3.3386,3.3386,3.3386,3.3386,3.3386,3.3386,3.3386,3.3386,3.3386,3.3386,3.3386,3.3386,3.3386,3.3386,3.3386,3.3386,3.3386,3.3386,3.3386,3.3386,3.3386,3.3386,3.3513,3.3639,3.3639,3.4239,3.4956,3.5336,3.6053,3.6803,3.7462,3.774,3.7902,3.814,3.8181,3.8181,3.8181,3.8181,3.8181,3.8181,3.8181,3.8181,3.8181,3.8181,3.8181,3.8181,3.8181,3.8181,3.8181,3.8181,3.8181,3.8181,3.8181,3.8181,3.8181,3.8181,3.8181,3.8181,3.8181,3.8181,3.8181,3.8181,3.8536,3.9199,3.9199,3.9199,3.9199,3.9199,3.9921,3.2505,3.42,3.5648,3.586,3.6959,3.7735,0.0,0.0,0.0,3.5306,3.5085,3.5085,3.5085,3.5085,3.5052,3.4963,3.4058,3.3652,3.4482,3.2858,3.2008,3.3243,3.3572,3.4095,3.4991,3.4891,3.4179,3.2799,3.1787,3.1151,3.0918,3.0889,3.1123,3.1621,3.2013,3.2443,3.291,3.3252,3.3386,3.3386,3.3386,3.3386,3.3386,3.3386,3.3386,3.3386,3.3386,3.3386,3.3386,3.3386,3.3386,3.3386,3.3386,3.3386,3.3386,3.3386,3.3386,3.3386,3.3386,3.3386,3.3386,3.3386,3.3386,3.3418,3.3481,3.3702,3.3942,3.4084,3.4717,3.5489,3.6224,3.6824,3.7386,3.8065,3.8181,3.8181,3.8181,3.8181,3.8181,3.8181,3.8181,3.8181,3.8181,3.8181,3.8181,3.8181,3.8181,3.8181,3.8181,3.8181,3.8181,3.8181,3.8181,3.8181,3.8181,3.8181,3.8181,3.8181,3.8181,3.8181,3.8181,3.8181,3.8181,3.8181,3.8437,3.9133,4.0203,4.0452,4.0581,4.0581,4.0581,4.13,3.3934,3.5052,3.5834,3.679,3.751,3.7959,3.7826,0.0,3.7761,3.7628,0.0,3.759,3.759,0.0,0.0,3.6944,3.6256,3.5679,3.5348,3.456,3.4447,3.5658,3.6746,3.7456,3.759,3.6611,3.5068,3.2885,3.2571,3.2047,3.0947,3.0889,3.1289,3.2101,3.2179,3.2549,3.3308,3.3367,3.3386,3.3386,3.3386,3.3386,3.3386,3.3386,3.3386,3.3386,3.3386,3.3386,3.3386,3.3386,3.3386,3.3386,3.3386,3.3386,3.3386,3.3386,3.3386,3.3386,3.3386,3.3386,3.3386,3.3386,3.3386,3.3459,3.3765,3.3859,3.4033,3.4747,3.5531,3.6277,3.6801,3.7493,3.8086,3.8171,3.8181,3.8181,3.8181,3.8181,3.8181,3.8181,3.8181,3.8181,3.8181,3.8181,3.8181,3.8181,3.8181,3.8181,3.8181,3.8181,3.8181,3.8181,3.8181,3.8181,3.8181,3.8181,3.8181,3.8181,3.8181,3.8181,3.8181,3.8181,3.8181,3.8181,3.9386,4.004,4.0203,4.1396,4.1959,4.1959,4.1959,4.2718,3.5756,3.6706,3.7283,3.7596,3.7949,3.8198,3.8039,3.8012,3.8012,3.8012,0.0,0.0,0.0,0.0,0.0,0.0,3.6833,3.6379,3.6856,3.6055,3.5619,3.615,3.665,3.7215,3.7921,3.692,3.5509,3.3814,3.3073,3.2496,3.196,3.1286,3.1594,3.3145,3.2542,3.2609,3.3386,3.3386,3.3386,3.3386,3.3386,3.3386,3.3386,3.3386,3.3386,3.3386,3.3386,3.3386,3.3386,3.3386,3.3386,3.3386,3.3386,3.3386,3.3386,3.3386,3.3386,3.3386,3.3386,3.3386,3.3418,3.3639,3.3702,3.3765,3.4079,3.451,3.495,3.5291,3.6158,3.7054,3.725,3.774,3.8181,3.8181,3.8181,3.8181,3.8181,3.8181,3.8181,3.8181,3.8181,3.8181,3.8181,3.8181,3.8181,3.8181,3.8181,3.8181,3.8181,3.8181,3.8181,3.8181,3.8181,3.8181,3.8181,3.8181,3.8181,3.8181,3.8181,3.857,3.932,3.9353,3.9735,4.0516,4.1075,4.1779,4.2572,4.3138,4.3805,4.454,4.3774,4.4158,3.7318,3.8064,3.8461,3.8277,3.8368,3.8473,3.825,3.8171,3.8118,3.8118,3.8065,0.0,0.0,0.0,3.7964,3.7793,0.0,3.6954,3.7676,3.716,3.6692,3.6692,3.6692,3.7027,3.7894,3.7215,3.6057,3.4531,3.3927,3.3243,3.2266,3.1672,3.2014,3.3374,3.2633,3.2609,3.3386,3.3386,3.3386,3.3386,3.3386,3.3386,3.3386,3.3386,3.3386,3.3386,3.3386,3.3386,3.3386,3.3386,3.3386,3.3386,3.3386,3.3386,3.3386,3.3386,3.3386,3.3386,3.3386,3.3449,3.3576,3.3827,3.3953,3.411,3.4454,3.5018,3.5657,3.5886,3.6684,3.7529,3.7653,3.7933,3.8181,3.8181,3.8181,3.8181,3.8181,3.8181,3.8181,3.8181,3.8181,3.8181,3.8181,3.8181,3.8181,3.8181,3.8181,3.8181,3.8181,3.8181,3.8181,3.8181,3.8181,3.8181,3.8181,3.8181,3.8181,3.8181,3.8526,3.9188,4.017,4.0549,4.1203,4.2169,4.2592,4.3294,4.4312,4.4663,4.5342,4.6283,4.5312,4.5373,3.8346,3.8776,3.8788,3.8788,3.8788,3.8788,3.8788,3.8566,3.8382,3.8382,3.8171,3.8012,3.8012,3.8012,3.7844,3.73,3.7623,0.0,0.0,3.7635,3.7947,3.7947,3.7947,3.7959,3.8012,3.7959,3.6962,3.4586,3.5454,3.4597,3.1141,3.2047,3.253,3.226,3.2229,3.2609,3.3386,3.3386,3.3386,3.3386,3.3386,3.3386,3.3386,3.3386,3.3386,3.3386,3.3386,3.3386,3.3386,3.3386,3.3386,3.3386,3.3386,3.3386,3.3386,3.3386,3.3386,3.3386,3.3386,3.3607,3.389,3.389,3.411,3.4454,3.4766,3.5207,3.5761,3.6521,3.7125,3.7591,3.8046,3.8171,3.8181,3.8181,3.8181,3.8181,3.8181,3.8181,3.8181,3.8181,3.8181,3.8181,3.8181,3.8181,3.8181,3.8181,3.8181,3.8181,3.8181,3.8181,3.8181,3.8181,3.8181,3.8181,3.8181,3.8181,3.8181,3.8181,3.9418,4.017,4.0203,4.146,4.2149,4.2213,4.3544,4.4251,4.4312,4.5598,4.6253,4.6313,4.6253,4.6253,0.0,0.0,3.8788,3.8788,0.0,3.9076,3.8841,3.8605,3.8435,3.8631,3.8303,3.8065,3.8224,3.8118,3.7952,3.7772,3.7892,3.7952,0.0,3.7904,3.8012,3.8012,3.8012,3.8012,3.8012,3.8012,3.7322,3.5701,3.5963,3.569,3.4486,3.3318,3.3272,3.4482,3.3005,3.2609,3.3386,3.3386,3.3386,3.3386,3.3386,3.3386,3.3386,3.3386,3.3386,3.3386,3.3386,3.3386,3.3386,3.3386,3.3386,3.3386,3.3386,3.3386,3.3386,3.3386,3.3386,3.3386,3.3386,3.3765,3.4235,3.4235,3.4454,3.4797,3.5139,3.5561,3.6046,3.6638,3.7136,3.7601,3.8067,3.8181,3.8181,3.8181,3.8181,3.8181,3.8181,3.8181,3.8181,3.8181,3.8181,3.8181,3.8181,3.8181,3.8181,3.8181,3.8181,3.8181,3.8181,3.8181,3.8181,3.8181,3.8181,3.8181,3.8181,3.9001,3.9506,3.9506,4.0796,4.1938,4.2855,4.3357,4.4003,4.4902,4.5373,4.5629,4.5629,4.6077,4.6313,4.6313,4.6313,4.6313,3.8788,3.8998,0.0,3.9114,3.9296,0.0,3.9166,0.0,3.8631,3.8919,3.8461,3.8118,3.8488,3.825,3.8039,3.8145,3.8065,3.8012,0.0,3.8012,3.8012,3.8012,3.8012,3.8012,3.8012,3.8012,3.7495,3.6286,3.6599,3.648,3.5619,3.4123,3.3844,3.5029,3.3215,3.2609,3.3386,3.3386,3.3386,3.3386,3.3386,3.3386,3.3386,3.3386,3.3386,3.3386,3.3386,3.3386,3.3386,3.3386,3.3386,3.3386,3.3386,3.3692,3.4069,3.3576,3.3481,3.3576,3.3576,3.4016,3.4579,3.4579,3.4797,3.5108,3.5325,3.5718,3.6299,3.7245,3.7513,3.7733,3.8665,3.857,3.8314,3.8781,3.8913,3.9034,3.9506,3.9637,3.9637,3.9637,3.9221,3.8913,3.8913,3.8536,3.8181,3.8181,3.8181,3.8181,3.8181,3.8181,3.8181,3.8181,3.8181,3.8381,3.888,4.0138,4.0925,4.0925,4.2181,4.3357,4.4251,4.4767,4.5588,4.6835,4.6502,4.6502,4.6878,4.6502,4.6313,4.6313,4.6313,4.6313]},{"header":{"parameterUnit":"m.s-1","parameterCategory":1,"la1":30.6,"la2":29.2853,"lo1":-89.7004,"lo2":-87.6739,"dy":0.0162,"dx":0.0183,"nx":112,"ny":82,"refTime":"2023-05-20T12:00:00:Z","depth":0,"parameterNumber":3,"parameterNumberName":"V-component_of_WINDS"},"data":[0.0,0.0,0.0,0.0,0.0,0.0,0.0,0.0,0.0,0.0,0.0,0.0,0.0,0.0,0.0,0.0,0.0,0.0,0.0,0.0,0.0,0.0,0.0,0.0,0.0,0.0,0.0,0.0,0.0,0.0,0.0,0.0,0.0,0.0,0.0,0.0,0.0,0.0,0.0,0.0,0.0,0.0,0.0,0.0,0.0,0.0,0.0,0.0,0.0,0.0,0.0,0.0,0.0,0.0,0.0,0.0,0.0,0.0,0.0,0.0,0.0,0.0,0.0,0.0,0.0,0.0,0.0,0.0,0.0,0.0,0.0,0.0,0.0,0.0,0.0,0.0,0.0,0.0,0.0,0.0,0.0,0.0,0.0,0.0,0.0,0.0,0.0,0.0,0.0,0.0,4.734,4.8288,4.7737,4.7602,4.8324,4.7864,4.7758,4.8366,0.0,0.0,0.0,0.0,0.0,0.0,0.0,0.0,0.0,0.0,0.0,0.0,0.0,0.0,0.0,0.0,0.0,0.0,0.0,0.0,0.0,0.0,0.0,0.0,0.0,0.0,0.0,0.0,0.0,0.0,0.0,0.0,0.0,0.0,0.0,0.0,0.0,0.0,0.0,0.0,0.0,0.0,0.0,0.0,0.0,0.0,0.0,0.0,0.0,0.0,0.0,0.0,0.0,0.0,0.0,0.0,0.0,0.0,0.0,0.0,0.0,0.0,0.0,0.0,0.0,0.0,0.0,0.0,0.0,0.0,0.0,0.0,0.0,0.0,0.0,0.0,0.0,0.0,0.0,0.0,0.0,0.0,0.0,0.0,0.0,0.0,0.0,0.0,0.0,0.0,0.0,0.0,0.0,0.0,0.0,0.0,0.0,0.0,0.0,0.0,0.0,0.0,0.0,0.0,4.6101,4.7353,4.7381,4.7337,4.7488,4.8061,4.813,4.7538,0.0,0.0,0.0,0.0,0.0,0.0,0.0,0.0,0.0,0.0,0.0,0.0,0.0,0.0,0.0,0.0,0.0,0.0,0.0,0.0,0.0,0.0,0.0,0.0,0.0,0.0,0.0,0.0,0.0,0.0,0.0,0.0,0.0,0.0,0.0,0.0,0.0,0.0,0.0,0.0,0.0,0.0,0.0,0.0,0.0,0.0,0.0,0.0,0.0,0.0,0.0,0.0,0.0,0.0,0.0,0.0,0.0,0.0,0.0,0.0,0.0,0.0,0.0,0.0,0.0,0.0,0.0,0.0,0.0,0.0,0.0,0.0,0.0,0.0,0.0,0.0,0.0,0.0,0.0,0.0,0.0,0.0,0.0,0.0,0.0,0.0,0.0,0.0,0.0,0.0,0.0,0.0,0.0,0.0,0.0,0.0,0.0,0.0,0.0,0.0,0.0,0.0,0.0,4.625,4.6738,4.7248,4.7309,4.7673,4.8579,4.862,4.862,4.8661,4.8256,0.0,0.0,0.0,0.0,0.0,0.0,0.0,0.0,0.0,0.0,0.0,0.0,0.0,0.0,0.0,0.0,0.0,0.0,0.0,0.0,0.0,0.0,0.0,0.0,0.0,0.0,0.0,0.0,0.0,0.0,0.0,0.0,0.0,0.0,0.0,0.0,0.0,0.0,0.0,0.0,0.0,0.0,0.0,0.0,0.0,0.0,0.0,0.0,0.0,0.0,0.0,0.0,0.0,0.0,0.0,0.0,0.0,0.0,0.0,0.0,0.0,0.0,0.0,0.0,0.0,0.0,0.0,0.0,0.0,0.0,0.0,0.0,0.0,0.0,0.0,0.0,0.0,0.0,0.0,0.0,0.0,0.0,0.0,0.0,0.0,0.0,0.0,0.0,0.0,0.0,0.0,0.0,0.0,0.0,0.0,0.0,0.0,0.0,0.0,0.0,0.0,0.0,4.738,4.807,4.7916,4.7892,4.8407,4.9686,4.9423,4.9278,4.9503,4.9116,0.0,0.0,0.0,0.0,0.0,0.0,0.0,0.0,0.0,0.0,0.0,0.0,0.0,0.0,0.0,0.0,0.0,0.0,0.0,0.0,0.0,0.0,0.0,0.0,0.0,0.0,0.0,0.0,0.0,0.0,0.0,0.0,0.0,0.0,0.0,0.0,0.0,0.0,0.0,0.0,0.0,0.0,0.0,0.0,0.0,0.0,0.0,0.0,0.0,0.0,0.0,0.0,0.0,0.0,0.0,0.0,0.0,0.0,0.0,0.0,0.0,0.0,0.0,0.0,0.0,0.0,0.0,0.0,0.0,0.0,0.0,0.0,0.0,0.0,0.0,0.0,0.0,0.0,0.0,0.0,0.0,0.0,0.0,0.0,0.0,0.0,0.0,0.0,0.0,0.0,0.0,0.0,0.0,0.0,0.0,0.0,0.0,0.0,0.0,0.0,0.0,0.0,4.8363,4.9639,4.9627,4.9607,4.9666,4.9785,5.048,5.0283,4.8785,4.9323,0.0,0.0,0.0,0.0,0.0,0.0,0.0,0.0,0.0,0.0,0.0,0.0,0.0,0.0,0.0,0.0,0.0,0.0,0.0,0.0,0.0,0.0,0.0,0.0,0.0,0.0,0.0,0.0,0.0,0.0,0.0,0.0,0.0,0.0,0.0,0.0,0.0,0.0,0.0,0.0,0.0,0.0,0.0,0.0,0.0,0.0,0.0,0.0,0.0,0.0,0.0,0.0,0.0,0.0,0.0,0.0,0.0,0.0,0.0,0.0,0.0,0.0,0.0,0.0,0.0,0.0,0.0,0.0,0.0,0.0,0.0,0.0,0.0,0.0,0.0,0.0,0.0,0.0,0.0,0.0,0.0,0.0,0.0,0.0,0.0,0.0,0.0,0.0,0.0,0.0,0.0,0.0,0.0,0.0,0.0,0.0,0.0,0.0,0.0,0.0,0.0,0.0,4.8102,4.9331,4.9758,4.9805,5.0017,5.0557,5.0914,5.0592,4.9423,0.0,0.0,0.0,0.0,0.0,0.0,0.0,0.0,0.0,0.0,0.0,0.0,0.0,0.0,0.0,0.0,0.0,0.0,0.0,0.0,0.0,0.0,0.0,0.0,0.0,0.0,0.0,0.0,0.0,0.0,0.0,0.0,0.0,0.0,0.0,0.0,0.0,0.0,0.0,0.0,0.0,0.0,0.0,0.0,0.0,0.0,0.0,0.0,0.0,0.0,0.0,0.0,0.0,0.0,0.0,0.0,0.0,0.0,0.0,0.0,0.0,0.0,0.0,0.0,0.0,0.0,0.0,0.0,0.0,0.0,0.0,0.0,0.0,0.0,0.0,0.0,0.0,0.0,0.0,0.0,0.0,0.0,0.0,0.0,0.0,0.0,0.0,0.0,0.0,0.0,0.0,0.0,0.0,0.0,0.0,0.0,0.0,0.0,0.0,0.0,0.0,0.0,4.7364,4.8866,5.0123,5.0586,5.0634,5.0878,5.1471,5.1508,5.114,5.0267,0.0,0.0,0.0,0.0,0.0,0.0,0.0,0.0,0.0,0.0,0.0,0.0,0.0,0.0,0.0,0.0,0.0,0.0,0.0,0.0,0.0,0.0,0.0,0.0,0.0,0.0,0.0,0.0,0.0,0.0,0.0,0.0,0.0,0.0,0.0,0.0,0.0,0.0,0.0,0.0,0.0,0.0,0.0,0.0,0.0,0.0,0.0,0.0,0.0,0.0,0.0,0.0,0.0,0.0,0.0,0.0,0.0,0.0,0.0,0.0,0.0,0.0,0.0,0.0,0.0,0.0,0.0,0.0,0.0,0.0,0.0,0.0,0.0,0.0,0.0,0.0,0.0,0.0,0.0,0.0,0.0,0.0,0.0,0.0,0.0,0.0,0.0,0.0,0.0,0.0,0.0,0.0,0.0,0.0,0.0,0.0,0.0,0.0,0.0,0.0,0.0,0.0,4.9004,5.0988,5.2391,5.2391,5.2391,5.2391,5.2391,5.2391,5.2017,0.0,0.0,0.0,0.0,0.0,0.0,0.0,0.0,0.0,0.0,0.0,0.0,0.0,0.0,0.0,0.0,0.0,0.0,0.0,0.0,0.0,0.0,0.0,0.0,0.0,0.0,0.0,0.0,0.0,0.0,0.0,0.0,0.0,0.0,0.0,0.0,0.0,0.0,0.0,0.0,0.0,0.0,0.0,0.0,0.0,0.0,0.0,0.0,0.0,0.0,0.0,0.0,0.0,0.0,0.0,0.0,0.0,0.0,0.0,0.0,0.0,0.0,0.0,0.0,0.0,0.0,0.0,0.0,0.0,0.0,0.0,0.0,0.0,0.0,0.0,0.0,0.0,0.0,0.0,0.0,0.0,0.0,0.0,0.0,0.0,0.0,0.0,0.0,0.0,0.0,0.0,0.0,0.0,0.0,0.0,0.0,0.0,0.0,0.0,0.0,0.0,0.0,0.0,4.9058,5.0988,5.2391,5.2391,5.2391,5.2391,5.2391,5.2391,5.2017,5.1156,0.0,0.0,0.0,0.0,0.0,0.0,0.0,0.0,0.0,0.0,0.0,0.0,0.0,0.0,0.0,0.0,0.0,0.0,0.0,0.0,0.0,0.0,0.0,0.0,0.0,0.0,0.0,0.0,0.0,0.0,0.0,0.0,0.0,0.0,0.0,0.0,0.0,0.0,0.0,0.0,0.0,0.0,0.0,0.0,0.0,0.0,0.0,0.0,0.0,0.0,0.0,0.0,0.0,0.0,0.0,0.0,0.0,0.0,0.0,0.0,0.0,0.0,0.0,0.0,0.0,0.0,0.0,0.0,0.0,0.0,0.0,0.0,0.0,0.0,0.0,0.0,0.0,0.0,0.0,0.0,0.0,0.0,0.0,0.0,0.0,0.0,0.0,0.0,0.0,0.0,0.0,0.0,0.0,0.0,0.0,0.0,0.0,0.0,0.0,0.0,0.0,0.0,4.9549,5.1182,5.2391,5.2391,5.2391,5.2391,5.2391,5.2391,5.2178,5.1653,0.0,0.0,0.0,0.0,0.0,0.0,0.0,0.0,0.0,0.0,0.0,0.0,0.0,0.0,0.0,0.0,0.0,0.0,0.0,0.0,0.0,0.0,0.0,0.0,0.0,0.0,0.0,0.0,0.0,0.0,0.0,0.0,0.0,0.0,0.0,0.0,0.0,0.0,0.0,0.0,0.0,0.0,0.0,0.0,0.0,0.0,0.0,0.0,0.0,0.0,0.0,0.0,0.0,0.0,0.0,0.0,0.0,0.0,0.0,0.0,0.0,0.0,0.0,0.0,0.0,0.0,0.0,0.0,0.0,0.0,0.0,0.0,0.0,0.0,0.0,0.0,0.0,0.0,0.0,0.0,0.0,0.0,0.0,0.0,0.0,0.0,0.0,0.0,0.0,0.0,0.0,0.0,0.0,0.0,0.0,0.0,0.0,0.0,0.0,0.0,0.0,0.0,5.0302,5.1529,5.2391,5.2391,5.2391,5.2391,5.2391,5.2391,5.2391,5.2391,0.0,0.0,0.0,0.0,0.0,0.0,0.0,0.0,0.0,0.0,0.0,0.0,0.0,0.0,0.0,0.0,0.0,0.0,0.0,0.0,0.0,0.0,0.0,0.0,0.0,0.0,0.0,0.0,0.0,0.0,0.0,0.0,0.0,0.0,0.0,0.0,0.0,0.0,0.0,0.0,0.0,0.0,0.0,0.0,0.0,0.0,0.0,0.0,0.0,0.0,0.0,0.0,0.0,0.0,0.0,0.0,0.0,0.0,0.0,0.0,4.7603,4.8001,0.0,0.0,0.0,0.0,0.0,0.0,0.0,0.0,0.0,0.0,0.0,0.0,0.0,0.0,0.0,0.0,0.0,0.0,0.0,0.0,0.0,0.0,0.0,0.0,0.0,0.0,0.0,0.0,0.0,0.0,0.0,0.0,0.0,0.0,0.0,0.0,0.0,0.0,0.0,0.0,5.1066,5.1845,5.2391,5.2391,5.2391,5.2391,5.2391,5.2391,5.2391,5.2391,5.223,0.0,0.0,0.0,0.0,0.0,0.0,0.0,0.0,0.0,0.0,0.0,0.0,0.0,0.0,0.0,0.0,0.0,0.0,0.0,0.0,0.0,0.0,0.0,0.0,0.0,0.0,0.0,0.0,0.0,0.0,0.0,0.0,0.0,0.0,0.0,0.0,0.0,0.0,0.0,0.0,0.0,0.0,0.0,0.0,0.0,0.0,0.0,0.0,0.0,0.0,0.0,0.0,0.0,0.0,0.0,0.0,0.0,0.0,0.0,4.7686,4.8001,0.0,0.0,0.0,0.0,0.0,0.0,0.0,0.0,0.0,0.0,0.0,0.0,0.0,0.0,0.0,0.0,0.0,0.0,0.0,0.0,0.0,0.0,0.0,0.0,0.0,0.0,0.0,0.0,0.0,0.0,0.0,0.0,0.0,0.0,0.0,0.0,0.0,0.0,0.0,0.0,5.1298,5.1944,5.2391,5.2391,5.2391,5.2391,5.2391,5.2391,5.2391,5.2391,5.2391,0.0,0.0,0.0,0.0,0.0,0.0,0.0,0.0,0.0,0.0,0.0,0.0,0.0,0.0,0.0,0.0,0.0,0.0,0.0,0.0,0.0,0.0,0.0,0.0,0.0,0.0,0.0,0.0,0.0,0.0,0.0,0.0,0.0,0.0,0.0,0.0,0.0,0.0,0.0,0.0,0.0,0.0,0.0,0.0,0.0,0.0,0.0,0.0,0.0,0.0,0.0,0.0,0.0,4.4539,4.4952,4.5134,4.6477,4.709,4.7123,4.7736,4.8001,4.8001,4.8001,0.0,0.0,0.0,0.0,0.0,0.0,0.0,0.0,0.0,0.0,0.0,0.0,0.0,0.0,0.0,0.0,0.0,0.0,0.0,0.0,0.0,0.0,4.9125,4.8842,4.9462,4.9962,4.9354,0.0,0.0,0.0,0.0,0.0,0.0,0.0,0.0,0.0,0.0,0.0,5.148,5.201,5.2391,5.2391,5.2391,5.2391,5.2391,5.2391,5.2391,5.2391,5.2391,5.2391,0.0,0.0,0.0,0.0,0.0,0.0,0.0,0.0,0.0,0.0,0.0,0.0,0.0,0.0,0.0,0.0,0.0,0.0,0.0,0.0,0.0,0.0,0.0,0.0,0.0,0.0,0.0,0.0,0.0,0.0,0.0,0.0,4.5108,4.4947,0.0,0.0,0.0,0.0,0.0,0.0,0.0,0.0,0.0,0.0,0.0,0.0,0.0,4.3598,4.3598,4.3598,4.3928,4.4556,4.5284,4.5996,4.6626,4.7471,4.7868,4.7868,4.7968,0.0,4.8001,4.8001,0.0,0.0,0.0,0.0,0.0,0.0,0.0,0.0,0.0,0.0,0.0,0.0,0.0,0.0,0.0,0.0,0.0,0.0,0.0,0.0,0.0,0.0,4.9949,4.9901,5.0476,5.1,5.0898,5.0722,5.0575,5.0623,5.0642,5.0577,0.0,0.0,0.0,0.0,0.0,0.0,5.2242,5.2342,5.2391,5.2391,5.2391,5.2391,5.2391,5.2391,5.2391,5.2391,5.2391,5.2391,5.2391,5.2391,0.0,0.0,0.0,0.0,0.0,0.0,0.0,0.0,0.0,0.0,0.0,0.0,0.0,0.0,0.0,0.0,0.0,0.0,0.0,0.0,0.0,0.0,0.0,0.0,0.0,0.0,0.0,0.0,0.0,4.5822,4.5636,4.5459,4.5157,4.4947,0.0,0.0,0.0,0.0,0.0,0.0,0.0,0.0,0.0,4.4121,4.4401,4.4566,4.4566,4.4683,4.4895,4.5213,4.6019,4.6576,4.6924,4.7669,4.8001,4.8001,4.8001,4.8001,4.8001,4.8001,4.8001,4.8001,0.0,0.0,0.0,0.0,4.805,4.8147,4.8404,4.8563,4.8722,4.8924,0.0,0.0,0.0,0.0,0.0,0.0,0.0,4.9103,4.9509,4.9847,5.0202,5.0625,5.1285,5.181,5.181,5.2066,5.2017,5.1159,5.1514,5.1747,5.1109,5.1571,0.0,0.0,0.0,5.2391,5.2391,5.2391,5.2391,5.2391,5.2391,5.2391,5.2391,5.2391,5.2391,5.2391,5.2391,5.2391,5.2391,5.2391,5.2391,0.0,0.0,0.0,0.0,0.0,0.0,0.0,0.0,0.0,0.0,0.0,0.0,0.0,0.0,0.0,0.0,0.0,0.0,0.0,0.0,0.0,0.0,0.0,0.0,0.0,0.0,0.0,0.0,4.6285,4.6163,4.598,4.5754,4.5588,0.0,0.0,0.0,0.0,0.0,0.0,4.4735,4.5081,4.5207,4.5021,4.54,4.5713,4.5916,4.611,4.6277,4.6425,4.7098,4.7414,4.7427,4.7994,4.8147,4.8001,4.8001,4.8001,4.8001,4.8001,4.8001,4.8001,4.8001,4.8001,4.8001,4.805,4.8115,4.8243,4.8483,4.8658,4.8816,4.8972,4.9001,4.9001,4.9001,0.0,0.0,0.0,0.0,4.9454,5.0166,5.0638,5.1094,5.1797,5.2544,5.3091,5.3091,5.3423,5.3329,5.1914,5.2371,5.2736,5.2046,5.2222,0.0,5.2445,5.2409,5.2391,5.2391,5.2391,5.2391,5.2391,5.2391,5.2391,5.2391,5.2391,5.2391,5.2391,5.2391,5.2391,5.2391,5.2391,5.2391,5.2391,0.0,0.0,0.0,0.0,0.0,0.0,0.0,0.0,0.0,0.0,0.0,0.0,0.0,0.0,0.0,0.0,0.0,0.0,0.0,0.0,0.0,0.0,0.0,0.0,0.0,0.0,0.0,0.0,0.0,4.6672,4.6184,0.0,0.0,0.0,0.0,4.5303,4.5303,4.529,4.525,4.5276,4.5648,4.6385,4.6429,4.6819,4.7572,4.7715,4.8069,4.8645,4.8747,4.8801,4.8801,4.8852,4.8544,4.8001,4.8001,4.8001,4.8001,4.8001,4.8001,4.8001,4.8001,4.8001,4.8017,4.813,4.8195,4.826,4.8659,4.8785,4.8816,4.8972,4.9001,4.9001,4.9001,4.9001,0.0,0.0,4.9509,5.0206,5.0862,5.2097,5.3289,5.3903,5.4647,5.5243,5.5243,5.4778,5.4152,5.35,5.3264,5.3162,5.3111,0.0,5.2589,5.2589,5.248,5.2391,5.2391,5.2391,5.2391,5.2391,5.2391,5.2391,5.2391,5.2391,5.2391,5.2391,5.2391,5.2391,5.2391,5.2391,5.2391,5.2391,5.2391,0.0,0.0,0.0,0.0,0.0,0.0,0.0,0.0,0.0,0.0,0.0,0.0,0.0,0.0,0.0,0.0,0.0,0.0,0.0,0.0,0.0,0.0,0.0,0.0,0.0,0.0,0.0,0.0,4.7225,4.6965,0.0,4.6602,4.6713,4.6938,4.7268,4.74,4.7523,4.7606,4.7945,4.8093,4.8045,4.8381,4.8713,4.8979,4.9156,4.9363,4.9561,4.9679,4.9696,4.9595,4.9595,4.9453,4.9127,4.8746,4.8591,4.8591,4.8591,4.8355,4.8001,4.8001,4.8001,4.8001,4.8049,4.8131,4.8243,4.8516,4.869,4.8816,4.8972,4.9001,4.9001,4.9001,4.9323,4.9788,5.0231,5.0881,5.1705,5.2814,5.3483,5.4068,5.4797,5.5191,5.5399,5.5399,5.5207,5.4981,5.4753,5.3913,5.3196,5.3196,5.2972,5.2781,5.2781,5.2624,5.2535,5.2535,5.2463,5.2391,5.2391,5.2391,5.2391,5.2391,5.2391,5.2391,5.2391,5.2391,5.2391,5.2391,5.2391,5.2391,5.2391,5.2391,5.2391,0.0,0.0,0.0,0.0,0.0,0.0,0.0,0.0,0.0,0.0,0.0,0.0,0.0,0.0,0.0,0.0,0.0,0.0,0.0,0.0,0.0,0.0,0.0,0.0,0.0,4.7625,4.7623,4.7818,4.7843,4.7863,4.7903,4.814,4.844,4.8753,4.8938,4.909,4.9168,4.9459,4.9585,4.9517,4.9812,5.0103,5.0372,5.0547,5.0622,5.0571,5.0748,5.0643,5.0272,5.0328,5.0146,4.9775,4.9381,4.9201,4.9201,4.9201,4.8977,4.8592,4.837,4.8418,4.856,4.8276,4.8466,4.8917,4.8966,4.8938,4.8879,4.897,4.9001,4.9052,4.9306,4.9712,5.0292,5.1219,5.2002,5.2857,5.4197,5.4712,5.509,5.5819,5.6017,5.6017,5.6017,5.5848,5.5705,5.5705,5.4703,5.3863,5.3928,5.355,5.3247,5.3298,5.2904,5.2589,5.2589,5.2481,5.2391,5.2391,5.2391,5.2391,5.2391,5.2391,5.2391,5.2391,5.2391,5.2391,5.2391,5.2391,5.2391,5.2391,5.2391,5.2391,5.2391,0.0,0.0,0.0,0.0,0.0,0.0,0.0,0.0,0.0,0.0,0.0,0.0,0.0,0.0,0.0,0.0,0.0,0.0,0.0,0.0,0.0,0.0,0.0,4.7743,4.7743,4.7947,4.8486,4.8778,4.9041,4.9293,4.967,4.9796,4.9572,4.9671,4.9747,4.9783,4.966,4.9942,5.0731,5.0634,5.0948,5.1728,5.1858,5.1858,5.1728,5.1987,5.1672,5.0843,5.0973,5.0597,4.9861,4.985,4.985,4.9818,4.9818,4.9818,4.976,4.9171,4.9291,4.9688,4.8856,4.9297,5.0237,4.9959,4.9498,4.9001,4.9001,4.9018,4.9171,4.988,5.0149,5.0493,5.1869,5.281,5.3686,5.4935,5.5794,5.6474,5.7061,5.7188,5.7188,5.7188,5.6745,5.6325,5.6325,5.5701,5.5219,5.537,5.4579,5.3992,5.4119,5.3298,0.0,5.2641,5.2517,5.2409,5.2391,5.2391,5.2391,5.2391,5.2391,5.2391,5.2391,5.2391,5.2391,5.2391,5.2391,5.2391,5.2391,5.2391,5.2391,5.2391,0.0,0.0,0.0,0.0,0.0,0.0,0.0,0.0,0.0,0.0,0.0,0.0,0.0,0.0,0.0,0.0,0.0,0.0,0.0,0.0,0.0,4.8196,4.8576,4.8576,4.8576,4.8811,4.9438,4.9668,4.9725,4.9594,4.978,5.0105,5.0606,5.069,5.0972,5.1549,5.1637,5.1734,5.1862,5.1921,5.2065,5.2281,5.2317,5.2317,5.2281,5.2352,5.2222,5.1889,5.1938,5.1717,5.1305,5.0862,5.0614,5.054,5.054,5.054,5.0467,4.9901,4.9798,4.9927,4.9786,4.976,4.9737,4.9256,4.9063,4.9001,4.9001,4.9357,4.983,5.0049,5.1192,5.2593,5.3415,5.4523,5.5669,5.6461,5.6791,5.6979,5.715,5.7188,5.7188,5.7188,5.7074,5.6941,5.6941,5.6767,5.6357,5.5546,5.5177,5.5011,5.5039,5.4595,5.4089,5.3599,5.3298,5.2938,5.2445,5.2391,5.2391,5.2391,5.2391,5.2391,5.2391,5.2391,5.2391,5.2391,5.2391,5.2391,5.2391,5.2391,5.2391,0.0,0.0,0.0,0.0,0.0,0.0,0.0,0.0,0.0,0.0,0.0,0.0,0.0,0.0,0.0,0.0,0.0,0.0,0.0,0.0,0.0,0.0,4.8594,4.9137,4.9818,4.9619,4.9647,5.0313,5.0466,5.0577,5.0687,5.0823,5.1102,5.1583,5.1654,5.1894,5.2364,5.2405,5.2382,5.2299,5.2317,5.2328,5.2328,5.2328,5.2328,5.2328,5.2393,5.2346,5.221,5.2275,5.2174,5.1968,5.1617,5.137,5.1258,5.1258,5.1219,5.111,0.0,0.0,0.0,0.0,5.0421,4.9976,4.9451,4.9303,4.9385,4.9433,4.9931,5.062,5.1236,5.2504,5.3865,5.4811,5.5676,5.6434,5.7049,5.7188,5.7188,5.7188,5.7188,5.7188,5.7188,5.7188,5.7188,5.7188,5.7188,0.0,5.628,5.5947,5.5776,5.5776,5.5281,5.4751,5.4361,5.3764,5.3247,5.2869,5.257,5.2391,5.2391,5.2391,0.0,0.0,0.0,5.2391,5.2391,5.2391,0.0,0.0,0.0,5.2391,5.2391,5.2391,0.0,0.0,5.2192,5.2159,0.0,0.0,0.0,0.0,0.0,0.0,0.0,0.0,0.0,0.0,0.0,0.0,0.0,0.0,0.0,0.0,4.9119,4.9662,5.1097,5.0753,5.0581,5.1179,5.1258,5.1494,5.209,5.2252,5.2311,5.2323,5.2417,5.2511,5.2613,5.2508,0.0,0.0,0.0,5.242,5.242,5.233,5.2276,5.2276,5.2311,5.2264,5.215,5.2275,5.2264,5.2126,5.2126,5.2054,5.1919,5.1919,5.1858,5.169,5.1154,5.1362,5.1932,5.1556,5.1118,5.063,5.0156,0.0,0.0,5.022,5.0773,5.1603,5.2978,5.388,5.4701,5.5946,5.6352,5.6515,5.7061,5.7188,5.7188,5.7188,5.7188,5.7188,5.7188,5.7188,5.7188,5.7188,5.7188,5.7188,5.7188,5.6758,5.6407,5.6407,5.5673,5.5117,5.5024,5.4232,5.3616,5.3449,5.2887,0.0,5.2409,5.2391,5.2391,5.2391,5.2391,5.2391,5.2391,5.2391,5.2391,5.2391,5.2391,5.2391,5.2391,5.2391,5.2391,5.2391,5.2391,5.2391,0.0,0.0,0.0,0.0,0.0,0.0,0.0,0.0,0.0,0.0,0.0,0.0,0.0,0.0,0.0,4.9738,5.0408,5.0941,5.126,5.1719,5.2082,5.221,5.2228,5.2271,5.241,5.2346,5.2346,5.2452,5.2382,5.2617,5.3273,5.3387,5.3682,5.4218,5.4327,5.4363,5.4363,5.3712,5.3387,5.3387,5.2759,0.0,5.241,5.2452,5.2393,5.2264,5.2264,5.2192,5.2066,5.2066,5.2054,5.1999,5.1883,5.2072,5.2317,5.1756,5.1196,5.0697,5.0575,5.0322,5.0221,5.1228,5.2146,5.3013,5.3783,5.4889,0.0,5.6217,5.6648,5.7061,5.7163,5.7188,5.7188,5.7188,5.7188,5.7188,5.7188,5.7188,5.7188,5.7188,5.7188,5.7188,5.7188,5.71,5.7036,5.7036,5.6785,5.6402,5.5847,5.5519,5.4878,5.3697,5.3449,5.3111,5.2463,5.2391,5.2391,5.2391,5.2391,5.2391,5.2391,5.2391,5.2391,5.2391,5.2391,5.2391,5.2391,5.2391,5.2391,5.2391,5.2391,5.2391,0.0,0.0,0.0,0.0,0.0,0.0,0.0,0.0,0.0,0.0,0.0,4.854,4.9347,0.0,4.9764,5.0572,5.1042,5.1586,5.2401,5.2842,5.2951,5.2552,5.244,5.2428,5.2498,5.2737,5.2966,5.3084,5.3417,5.3779,5.4189,5.4255,5.4454,5.4785,5.487,5.4894,5.4894,5.4508,5.4309,5.4309,5.3892,5.3494,5.3096,5.3096,5.2843,5.2405,5.2405,5.2317,5.2222,5.2558,5.2978,5.3399,5.3399,5.3249,5.2936,5.2401,5.247,5.2727,5.212,5.1966,5.2169,5.2821,5.3602,5.4379,5.5051,5.5945,5.6758,5.6758,5.6972,5.7188,5.7188,5.7188,5.7188,5.7188,5.7188,5.7188,5.7188,5.7188,5.7188,5.7188,5.7188,5.7188,5.7188,5.7188,5.7188,5.7188,5.7092,5.6894,5.6532,5.6093,5.5402,5.4374,5.3861,5.3298,5.2553,5.2445,5.2391,5.2391,5.2463,5.248,5.2391,5.2463,5.248,5.2391,5.2463,5.2499,5.2499,5.2605,5.264,5.264,5.264,5.2588,0.0,0.0,0.0,0.0,0.0,0.0,0.0,4.7924,4.8159,4.8974,4.9137,4.9383,5.0191,5.0336,5.0644,5.1622,5.1767,5.2263,5.3729,5.3929,5.3693,5.3041,5.2875,5.2851,5.2957,5.3447,5.3815,5.3917,5.4532,5.4961,5.5106,5.5106,5.5196,5.5341,5.5231,5.5231,5.5359,5.5086,5.4996,5.5106,5.4979,5.4562,5.3929,5.3929,5.3585,5.2969,5.2969,5.291,5.2858,5.3393,5.4048,5.4742,5.4742,5.4417,5.3923,5.341,5.3857,5.4607,5.3753,5.3722,5.41,5.4431,5.4947,5.5558,5.6251,5.6811,5.7188,5.7188,5.7188,5.7188,5.7188,5.7188,5.7188,5.7188,5.7188,5.7188,5.7188,5.7188,5.7188,5.7188,5.7188,5.7188,5.7188,5.7188,5.7188,5.7188,5.7118,5.7041,5.7041,5.6465,5.5841,5.5189,5.4498,5.3778,5.3094,5.2782,5.2712,5.2852,5.2746,5.2659,5.2693,5.2659,5.2605,5.2498,5.2605,5.2659,5.2659,5.2816,5.2903,5.2903,5.2938,5.2851,4.5763,4.643,4.7277,4.7618,4.7707,4.7888,0.0,4.8775,4.8992,4.9811,4.9974,5.0209,5.1024,5.1169,5.1658,5.3186,5.344,5.3748,5.4653,5.478,5.4731,5.4653,5.4611,5.4611,5.4623,5.4713,5.4738,5.475,5.484,5.5196,5.5842,5.5866,5.6192,5.6917,5.641,5.6397,5.6935,5.5697,5.5338,5.5879,5.5214,5.484,5.478,5.478,5.4725,5.4623,5.4623,5.4623,5.4611,5.4677,5.478,5.4882,5.4882,5.5208,5.5624,5.4924,5.443,5.4169,5.457,5.446,5.4352,5.5435,5.5974,5.6299,5.691,5.7138,5.7188,5.7188,5.7188,5.7188,5.7188,5.7188,5.7188,5.7188,5.7188,5.7188,5.7188,5.7188,5.7188,5.7188,5.7188,5.7188,5.7188,5.7188,5.7188,5.7188,5.7194,5.7181,5.7181,5.71,5.6736,5.596,5.5787,5.5411,5.4632,5.3876,5.3763,5.4492,5.3466,5.3128,5.3699,5.3162,5.2851,5.2834,5.2851,5.2868,5.2868,5.2886,5.2903,5.2903,5.3076,5.3059,4.6802,4.7205,4.7554,4.7668,4.8051,4.8485,4.8829,4.9264,4.9818,5.0626,5.0807,5.1042,5.1858,5.2371,5.2915,5.3585,5.4092,5.4671,5.5432,5.554,5.5703,5.6174,5.6247,5.5884,5.4997,5.5287,5.554,5.554,5.5975,5.6373,5.6694,5.6712,5.6844,5.7188,5.6972,5.6785,5.6692,5.6098,5.5757,5.5644,5.5341,5.5129,5.5015,5.5015,5.4977,5.4882,5.4489,5.4584,5.5015,5.5015,5.5284,5.5754,5.6104,5.6428,5.6591,5.583,5.5688,5.5898,5.6154,5.6101,5.6035,5.6525,5.6765,5.6863,5.7125,5.7188,5.7188,5.7188,5.7188,5.7188,5.7188,5.7188,5.7188,5.7188,5.7188,5.7188,5.7188,5.7188,5.7188,5.7188,5.7188,5.7188,5.7188,5.7188,5.7188,5.7188,5.7188,5.7188,5.7188,5.6889,5.6221,5.5029,5.4589,5.4341,5.4277,5.3599,5.35,5.4231,5.3516,5.3161,5.3315,5.3162,5.3024,5.2903,5.3007,5.3076,5.3076,5.3195,5.3246,5.3246,5.3331,5.3551,4.7452,4.7809,4.7972,4.8022,4.863,4.9293,4.9517,4.9999,5.0662,5.1477,5.164,5.1876,5.2679,5.3313,5.3838,5.4273,5.4816,5.5468,5.621,5.6331,5.6536,5.7134,5.7188,5.6754,5.5649,5.6011,5.6331,5.6331,5.6862,5.7188,5.7188,5.7049,5.6941,5.6941,5.6617,5.6303,5.6045,5.5858,5.573,5.5647,5.5647,5.5561,5.5428,5.5247,5.5143,5.501,5.4519,5.4745,5.5414,5.5247,5.5612,5.6339,5.6785,5.6941,5.6912,5.6486,5.6712,5.7188,5.7188,5.7188,5.7188,5.7188,5.7188,5.7188,5.7188,5.7188,5.7188,5.7188,5.7188,5.7188,5.7188,5.7188,5.7188,5.7188,5.7188,5.7188,5.7188,5.7188,5.7188,5.7188,5.7188,5.7188,5.7188,5.7188,5.7188,5.7188,5.7188,5.7188,5.7188,5.6824,5.6138,5.5059,5.4374,5.4154,5.4532,5.3765,5.355,5.4265,5.3667,5.3298,5.3315,5.3298,5.3212,5.3075,5.3212,5.3281,5.3281,5.3416,5.3602,5.3805,5.3805,5.4194,4.7461,4.8089,4.8706,4.8833,4.9474,5.0264,5.1061,5.126,5.1495,5.2299,5.2462,5.2715,5.3512,5.3675,5.4182,5.5697,5.5951,5.6259,5.7043,5.7152,5.717,5.7188,5.7188,5.717,5.7134,5.7152,5.7152,5.7152,5.7188,5.7188,5.7188,5.6653,5.6325,5.6325,5.5127,5.4795,5.5414,5.478,5.5067,5.627,5.627,5.6266,5.6248,5.5655,5.5394,5.5373,5.5358,5.5695,5.6221,5.5626,5.5744,5.6298,5.6311,5.6325,5.6393,5.6961,5.717,5.7188,5.7188,5.7188,5.7188,5.7188,5.7188,5.7188,5.7188,5.7188,5.7188,5.7188,5.7188,5.7188,5.7188,5.7188,5.7188,5.7188,5.7188,5.7188,5.7188,5.7188,5.7188,5.7188,5.7188,5.7188,5.7188,5.7188,5.7188,5.7188,5.7188,5.7188,5.7188,5.7176,5.715,5.7112,5.6447,5.6063,5.6215,5.4948,5.4504,5.5296,5.4173,5.375,5.4328,5.38,5.3484,5.3484,5.3484,5.3484,5.3484,5.3501,5.3873,5.4583,5.4583,5.4955,4.8255,4.862,4.8974,4.9553,5.03,5.097,5.1242,5.1713,5.2184,5.2444,5.2498,5.2752,5.3548,5.4146,5.4834,5.5842,5.6446,5.688,5.7152,5.7188,5.7188,5.7188,5.7188,5.7188,5.7188,5.7188,5.7036,5.6621,5.6595,5.6595,5.6595,5.6031,5.6073,5.6863,5.5701,5.5177,5.5399,5.4734,5.4408,5.4443,5.4841,5.5037,5.5052,5.5296,5.5618,5.5947,5.5099,5.5099,5.5647,5.5009,5.5114,5.5705,5.5705,5.6184,5.6863,5.6679,5.6863,5.7188,5.7188,5.7188,5.7188,5.7188,5.7188,5.7188,5.7188,5.7188,5.7188,5.7188,5.7188,5.7188,5.7188,5.7188,5.7188,5.7188,5.7188,5.7188,5.7188,5.7188,5.7188,5.7188,5.7188,5.7188,5.7188,5.7188,5.7188,5.7188,5.7188,5.6915,5.6114,5.6017,5.5687,5.4844,5.4504,5.4568,5.4991,5.4236,5.4011,5.4688,5.3963,5.3584,5.38,5.3618,5.3501,5.3501,5.3501,5.3737,5.4228,5.4228,5.4617,5.5344,5.5344,5.5733,4.8663,4.9101,4.9528,5.0336,5.1133,5.1731,5.1731,5.2118,5.2498,5.2498,5.2498,5.2824,5.3929,5.4562,5.5251,5.6265,5.6862,5.7188,5.7188,5.7188,5.7188,5.7188,5.7188,5.7188,5.7188,5.6992,5.6811,5.6621,5.6608,5.6528,5.6311,5.5719,5.5661,5.6189,5.5234,5.4722,5.4722,5.4283,5.3995,5.3816,5.4202,5.4407,5.4407,5.4629,5.4937,5.5249,5.4424,5.4581,5.5325,5.4424,5.4596,5.5399,5.5399,5.5858,5.655,5.6608,5.6863,5.7188,5.7188,5.7188,5.7188,5.7188,5.7188,5.7188,5.7188,5.7188,5.7188,5.7188,5.7188,5.7188,5.7188,5.7188,5.7188,5.7188,5.7188,5.7188,5.7188,5.7188,5.7188,5.7188,5.7188,5.7188,5.7188,5.7188,5.7188,5.7188,5.7188,5.6915,5.6142,5.5862,5.5414,5.46,5.4092,5.3979,5.4359,5.3849,5.3668,5.4059,5.3701,5.3501,5.3501,5.3501,5.3619,5.389,5.389,5.4262,5.4989,5.4989,5.5378,5.6088,5.6088,5.6494,4.8739,4.9546,5.0354,5.1169,5.1948,5.2498,5.2498,5.2498,5.2498,5.2498,5.2498,5.2987,5.4587,5.4894,5.5414,5.6953,5.7188,5.7188,5.7188,5.7163,5.715,5.715,5.7125,5.7112,5.7112,5.6582,5.6488,5.7061,5.7087,5.6824,5.6243,5.5633,5.5041,5.4469,5.3816,5.3517,5.3551,5.3517,5.3783,5.4343,5.4343,5.4343,5.4328,5.375,5.3517,5.3534,5.3517,5.4189,5.5251,5.4013,5.4237,5.5402,5.5355,5.5385,5.5589,5.6727,5.715,5.715,5.7188,5.7188,5.7188,5.7188,5.7188,5.7188,5.7188,5.7188,5.7188,5.7188,5.7188,5.7188,5.7188,5.7188,5.7188,5.7188,5.7188,5.7188,5.7188,5.7188,5.7188,5.7188,5.7188,5.7188,5.7188,5.7188,5.7188,5.7188,5.7188,5.7176,5.7112,5.6608,5.6229,5.6156,5.5067,5.4343,5.4343,5.3816,5.3501,5.3501,5.3501,5.3518,5.3551,5.3568,5.3907,5.4634,5.4651,5.5023,5.5767,5.5767,5.6139,5.6867,5.6867,5.7222,4.9582,5.039,5.1187,5.1991,5.2353,5.2498,5.2498,5.2498,5.2498,5.2498,5.2498,5.2987,5.4587,5.4894,5.5414,5.6953,5.7188,5.7188,5.7188,5.6811,5.6528,5.6528,5.6128,5.5862,5.5862,5.5719,5.569,5.5848,5.5408,5.5049,5.49,5.4316,5.4332,5.5117,5.4077,5.3718,5.4171,5.3717,5.3568,5.3734,5.3734,5.3734,5.3717,5.3568,5.375,5.4139,5.3701,5.3947,5.4595,5.3816,5.4237,5.534,5.4857,5.5216,5.6118,5.642,5.6528,5.6582,5.7049,5.7188,5.7188,5.7188,5.7188,5.7188,5.7188,5.7188,5.7188,5.7188,5.7188,5.7188,5.7188,5.7188,5.7188,5.7188,5.7188,5.7188,5.7188,5.7188,5.7188,5.7188,5.7188,5.7188,5.7188,5.7188,5.7188,5.7188,5.7188,5.6876,5.5957,5.5719,5.5266,5.4317,5.3914,5.3734,5.3734,5.3584,5.3501,5.3501,5.3501,5.3754,5.4313,5.4313,5.4668,5.5412,5.5411,5.5767,5.6528,5.6528,5.69,5.7611,5.7611,5.773,5.0318,5.097,5.1495,5.2299,5.2498,5.2498,5.2498,5.2498,5.2498,5.2498,5.2498,5.2987,5.4587,5.4894,5.5414,5.6953,5.7188,5.71,5.6837,5.6501,5.6201,5.595,5.5604,5.5399,5.5399,5.5132,5.4963,5.4963,5.4887,5.4703,5.4422,5.4091,5.4108,5.4553,5.3866,5.3651,5.4011,5.3668,5.3501,5.3501,5.3501,5.3501,5.3501,5.3501,5.3684,5.3995,5.3651,5.3832,5.4343,5.375,5.4077,5.4918,5.4548,5.5006,5.595,5.6201,5.6461,5.6727,5.7087,5.7036,5.685,5.7112,5.7188,5.7188,5.7188,5.7188,5.7188,5.7188,5.7188,5.7188,5.7188,5.7188,5.7188,5.7188,5.7188,5.7188,5.7188,5.7188,5.7188,5.7188,5.7188,5.7112,5.685,5.7018,5.7018,5.6483,5.6635,5.6362,5.5129,5.5221,5.5011,5.3995,5.3651,5.3501,5.3501,5.3501,5.3653,5.3957,5.3974,5.4313,5.5057,5.5091,5.5429,5.6173,5.6172,5.6562,5.7273,5.7273,5.7492,5.79,5.79,5.79,5.0923,5.1387,5.164,5.2317,5.2498,5.2498,5.2498,5.2498,5.2498,5.2498,5.257,5.3114,5.4617,5.4979,5.5522,5.6971,5.7188,5.7023,5.6488,5.6352,5.6073,5.5458,5.5311,5.5236,5.5164,5.4627,5.4281,5.4281,5.4813,5.4889,5.4313,5.4281,5.4043,5.3517,5.3501,5.3501,5.3501,5.3501,5.3501,5.3501,5.3501,5.3501,5.3501,5.3501,5.3501,5.3501,5.3501,5.38,5.4234,5.3718,5.3849,5.4407,5.4407,5.4811,5.5458,5.609,5.6621,5.7087,5.7087,5.6798,5.6501,5.7036,5.7138,5.71,5.7176,5.7188,5.7188,5.7188,5.7188,5.7188,5.7188,5.7188,5.7188,5.7188,5.7138,5.71,5.7176,5.7138,5.7087,5.7087,5.7023,5.6824,5.638,5.6679,5.6635,5.5661,5.589,5.5744,5.4546,5.4903,5.5009,5.4361,5.3816,5.3551,5.3653,5.3653,5.3957,5.4702,5.4753,5.5074,5.5817,5.5851,5.6189,5.6934,5.6951,5.7256,5.79,5.79,5.79,5.79,5.79,5.79,5.1224,5.1785,5.2317,5.2462,5.2498,5.2498,5.2498,5.2498,5.2498,5.2498,5.3023,5.3784,5.4731,5.5395,5.6102,5.7043,5.7188,5.7163,5.7061,5.6608,5.6059,5.5405,5.4885,5.4378,5.3866,5.3718,5.3651,5.3651,5.3767,5.3784,5.3651,5.3651,5.3618,5.3501,5.3501,5.3501,5.3501,5.3501,5.3501,5.3501,5.3501,5.3501,5.3501,5.3501,5.3501,5.3501,5.3501,5.3568,5.3651,5.3534,5.3849,5.4407,5.4407,5.4811,5.5458,5.609,5.6366,5.6461,5.6461,5.6701,5.7061,5.7181,5.6863,5.6541,5.7049,5.7188,5.7188,5.7188,5.7188,5.7188,5.7188,5.7188,5.7188,5.7188,5.6824,5.6582,5.7087,5.6811,5.6461,5.6461,5.6045,5.5833,5.6229,5.5975,5.5805,5.6104,5.5805,5.5281,5.4501,5.4501,5.4346,5.3734,5.3551,5.3754,5.4346,5.4397,5.4718,5.5462,5.5513,5.5834,5.6579,5.6613,5.6968,5.7679,5.7695,5.7781,5.79,5.79,5.79,5.79,5.79,5.79,5.1821,5.2208,5.2498,5.2498,5.2498,5.2498,5.2498,5.2498,5.2498,5.2498,5.3132,5.3947,5.475,5.5251,5.5798,5.6588,5.6732,5.6497,5.5837,5.5801,5.5473,5.4471,5.4107,5.3833,5.3534,5.3501,5.3501,5.3501,5.3501,5.3501,5.3501,5.3501,5.3501,5.3501,5.3501,5.3501,5.3501,5.3501,5.3501,5.3501,5.3501,5.3501,5.3501,5.3501,5.3501,5.3501,5.3501,5.3501,5.3501,5.3501,5.3668,5.393,5.393,5.4314,5.4918,5.5201,5.5528,5.5876,5.6201,5.628,5.6362,5.6992,5.6992,5.6824,5.7112,5.7188,5.7188,5.7188,5.7188,5.7188,5.7188,5.6972,5.6732,5.6732,5.6266,5.5904,5.6197,5.6045,5.5819,5.5819,5.5589,5.5385,5.532,5.5335,5.5231,5.4889,5.4857,5.4658,5.4011,5.4271,5.4395,5.4093,5.4059,5.4363,5.5108,5.5175,5.5497,5.6241,5.6257,5.6613,5.734,5.7357,5.7526,5.79,5.79,5.79,5.79,5.79,5.79,5.79,5.79,5.79,5.2317,5.2498,5.2498,5.2498,5.2498,5.2498,5.2498,5.2498,5.2498,5.2498,5.3164,5.3941,5.4561,5.4962,5.5376,5.6012,5.6118,5.5762,5.4765,5.5072,5.4983,5.3833,5.3701,5.3634,5.3517,5.3501,5.3501,5.3501,5.3501,5.3501,5.3501,5.3501,5.3501,5.3501,5.3501,5.3501,5.3501,5.3501,5.3501,5.3501,5.3501,5.3501,5.3501,5.3501,5.3501,5.3501,5.3501,5.3501,5.3501,5.3501,5.3501,5.3501,5.3501,5.3865,5.4422,5.4563,5.4948,5.5476,5.5932,5.5791,5.556,5.6515,5.6902,5.7036,5.715,5.7188,5.7188,5.7188,5.7188,5.7163,5.7049,5.6666,5.6229,5.5961,5.5647,5.5355,5.5221,5.5192,5.5192,5.5192,5.5072,5.4859,5.4469,5.4686,5.4641,5.3816,5.4115,5.4266,5.3788,5.438,5.4888,5.504,5.4921,5.5124,5.5868,5.5936,5.624,5.6985,5.7036,5.7289,5.7883,5.79,5.79,5.79,5.79,5.79,5.79,5.79,5.79,5.79,5.79,5.79,5.248,5.2498,5.2498,5.2498,5.2498,5.2498,5.2498,5.2498,5.2498,5.2498,5.324,5.3906,5.3978,5.4746,5.5402,5.5473,5.5473,5.5429,5.5325,5.5355,5.5132,5.4391,5.4329,5.409,5.3551,5.3501,5.3501,5.3501,5.3501,5.3501,5.3501,5.3501,5.3501,5.3501,5.3501,5.3501,5.3501,5.3501,5.3501,5.3501,5.3501,5.3501,5.3501,5.3501,5.3501,5.3501,5.3501,5.3501,5.3501,5.3501,5.3501,5.3501,5.3501,5.3865,5.4469,5.5069,5.534,5.5399,5.5458,5.5443,5.5414,5.5531,5.5932,5.6474,5.7036,5.7188,5.7188,5.7188,5.7188,5.7074,5.6515,5.6339,5.6017,5.4855,5.4994,5.5236,5.4626,5.4485,5.4485,5.4485,5.406,5.3833,5.4329,5.3995,5.3816,5.4249,5.4461,5.4567,5.4516,5.5141,5.5851,5.6528,5.6004,5.5902,5.6647,5.6697,5.7019,5.7764,5.7798,5.7832,5.79,5.79,5.79,5.79,5.79,5.79,5.79,5.79,5.79,5.79,5.79,5.79,5.2498,5.2498,5.2498,5.2498,5.2498,5.2399,5.2036,5.1963,5.186,5.1495,5.2768,5.3846,5.3435,5.4489,5.5266,5.4857,5.4795,5.4674,5.4317,5.4582,5.4565,5.393,5.3865,5.3767,5.3517,5.3501,5.3501,5.3501,5.3501,5.3501,5.3501,5.3501,5.3501,5.3501,5.3501,5.3501,5.3501,5.3501,5.3501,5.3501,5.3501,5.3501,5.3501,5.3501,5.3501,5.3501,5.3501,5.3501,5.3501,5.3501,5.3501,5.3501,5.3501,5.3651,5.3898,5.4157,5.4253,5.4317,5.4674,5.4795,5.4857,5.5266,5.556,5.5932,5.6902,5.7188,5.7188,5.7188,5.6928,5.6595,5.6366,5.573,5.4948,5.4076,5.4061,5.4173,5.3914,5.3865,5.3865,5.3865,5.3668,5.3568,5.3816,5.3651,5.3737,5.4412,5.4568,5.4752,5.5209,5.5902,5.6478,5.6765,5.6545,5.6664,5.7391,5.7459,5.7577,5.7883,5.79,5.79,5.79,5.79,5.79,5.79,5.79,5.79,5.79,5.79,5.79,5.79,5.79,5.79,5.2445,5.2498,5.2498,5.2498,5.2375,5.2126,5.1694,5.1457,5.1209,5.0792,5.2163,5.3284,5.2819,5.389,5.4676,5.4203,5.4123,5.3995,5.3568,5.3865,5.3979,5.3551,5.3501,5.3501,5.3501,5.3501,5.3501,5.3501,5.3501,5.3501,5.3501,5.3501,5.3501,5.3501,5.3501,5.3501,5.3501,5.3501,5.3501,5.3501,5.3501,5.3501,5.3501,5.3501,5.3501,5.3501,5.3501,5.3501,5.3501,5.3501,5.3501,5.3501,5.3501,5.3501,5.3517,5.3701,5.3651,5.3584,5.4187,5.4281,5.4235,5.4887,5.5099,5.5293,5.6348,5.6674,5.6674,5.6674,5.6207,5.5744,5.5744,5.4948,5.4027,5.3601,5.3501,5.3501,5.3501,5.3501,5.3501,5.3501,5.3501,5.3501,5.3501,5.3687,5.3991,5.4515,5.4955,5.5429,5.5953,5.6681,5.712,5.712,5.712,5.734,5.7866,5.79,5.79,5.79,5.79,5.79,5.79,5.79,5.79,5.79,5.79,5.79,5.79,5.79,5.79,5.79,5.79,5.79,5.2334,5.2498,5.2498,5.2498,5.2048,5.1619,5.1588,5.1144,5.0711,5.0711,5.1468,5.2117,5.2101,5.2891,5.3517,5.3501,5.3501,5.3501,5.3501,5.3501,5.3501,5.3501,5.3501,5.3501,5.3501,5.3501,5.3501,5.3501,5.3501,5.3501,5.3501,5.3501,5.3501,5.3501,5.3501,5.3501,5.3501,5.3501,5.3501,5.3501,5.3501,5.3501,5.3501,5.3501,5.3501,5.3501,5.3501,5.3501,5.3501,5.3501,5.3501,5.3501,5.3501,5.3501,5.3568,5.4171,5.401,5.3584,5.4187,5.4011,5.3618,5.4219,5.4407,5.4532,5.5221,5.5414,5.5414,5.5414,5.4933,5.4422,5.4422,5.3962,5.3501,5.3501,5.3501,5.3501,5.3501,5.3501,5.3501,5.3501,5.3501,5.3501,5.3501,5.411,5.4583,5.46,5.5835,5.6782,5.6799,5.7425,5.79,5.79,5.79,5.79,5.79,5.79,5.79,5.79,5.79,5.79,5.79,5.79,5.79,5.79,5.79,5.79,5.79,5.79,5.79,5.79,5.79,5.79,5.1222,5.1273,5.1273,5.1273,5.1126,5.0889,5.0532,5.0296,5.0042,4.9625,5.0931,5.2027,5.1582,5.2937,5.3979,5.3585,5.3501,5.3501,5.3501,5.3501,5.3501,5.3501,5.3501,5.3501,5.3501,5.3501,5.3501,5.3501,5.3501,5.3501,5.3501,5.3501,5.3501,5.3501,5.3501,5.3501,5.3501,5.3501,5.3501,5.3501,5.3501,5.3501,5.3501,5.3501,5.3501,5.3501,5.3501,5.3501,5.3501,5.3501,5.3501,5.3501,5.3501,5.3501,5.3517,5.3701,5.3651,5.3534,5.3734,5.3651,5.3534,5.3717,5.3783,5.3833,5.4028,5.4724,5.5296,5.4841,5.4563,5.4313,5.3898,5.3634,5.3501,5.3501,5.3501,5.3501,5.3501,5.3501,5.3501,5.3501,5.3907,5.4245,5.4245,5.4871,5.553,5.6038,5.6494,5.6985,5.7494,5.7764,5.79,5.79,5.79,5.79,5.79,5.79,5.79,5.79,5.79,5.79,5.79,5.79,5.79,5.79,5.79,5.79,5.79,5.79,5.79,5.79,5.79,5.79,5.0589,5.0711,5.0711,5.0711,5.0548,5.0321,4.9974,4.9715,4.9451,4.9078,5.0511,5.169,5.1282,5.2777,5.393,5.3551,5.3501,5.3501,5.3501,5.3501,5.3501,5.3501,5.3501,5.3501,5.3501,5.3501,5.3501,5.3501,5.3501,5.3501,5.3501,5.3501,5.3501,5.3501,5.3501,5.3501,5.3501,5.3501,5.3501,5.3501,5.3501,5.3501,5.3501,5.3501,5.3501,5.3501,5.3501,5.3501,0.0,5.3501,5.3501,5.3501,5.3501,5.3501,5.3501,5.3501,5.3501,5.3501,5.3501,5.3501,5.3501,5.3501,5.3501,5.3501,5.3501,5.4045,5.46,5.4188,5.4059,5.3979,5.3601,5.3501,5.3501,5.3501,5.3501,5.3501,5.3501,5.3721,5.3923,5.3923,5.4515,5.5023,5.5023,5.5632,5.6257,5.6731,5.7036,5.7374,5.7849,5.79,5.79,5.79,5.79,5.79,5.79,5.79,5.79,5.79,5.79,5.79,5.79,5.79,5.79,5.79,5.79,5.79,5.79,5.79,5.8034,5.8321,5.8321,5.8457,0.0,5.0589,5.0589,5.0589,5.0209,4.9832,4.9832,4.9409,0.0,4.9069,5.0203,5.1218,5.1269,5.2486,5.3501,5.3501,5.3501,5.3501,5.3501,5.3501,5.3501,5.3501,5.3501,5.3501,5.3501,5.3501,5.3501,5.3501,5.3501,5.3501,5.3501,5.3501,5.3501,5.3501,5.3501,5.3501,5.3501,5.3501,5.3501,5.3501,5.3501,5.3501,5.3501,5.3501,5.3501,5.3501,5.3501,5.3501,5.3501,5.3501,5.3501,5.3501,5.3501,5.3501,5.3501,5.3501,5.3501,5.3501,5.3501,5.3501,5.3501,5.3501,5.3501,5.3501,5.3501,5.3501,5.3501,5.3501,5.3501,5.3501,5.3501,5.3501,5.3518,5.3568,5.3585,5.3602,5.3653,5.4194,5.4668,5.4668,5.5277,5.5783,5.5783,5.6375,5.6884,5.6884,5.7459,5.79,5.79,5.79,5.79,5.79,5.79,5.79,5.79,5.79,5.79,5.79,5.79,5.79,5.79,5.79,5.79,5.79,5.79,5.7934,5.7984,5.7984,5.8355,5.9081,5.9081,5.9436,4.9316,0.0,4.9406,4.9406,4.9303,4.9214,0.0,4.9092,4.9171,4.9729,5.0574,5.137,5.1944,5.2841,5.3501,5.3501,5.3501,5.3501,5.3501,5.3501,5.3501,5.3501,5.3501,5.3501,5.3501,5.3501,5.3501,5.3501,5.3501,5.3501,5.3501,5.3501,5.3501,5.3501,5.3501,5.3501,5.3501,5.3501,5.3501,5.3501,5.3501,5.3501,5.3501,5.3501,5.3501,5.3501,5.3501,5.3501,5.3501,5.3501,5.3501,5.3501,5.3501,5.3501,5.3501,5.3501,5.3501,5.3501,5.3501,5.3501,5.3501,5.3501,5.3501,5.3501,5.3501,5.3501,5.3501,5.3501,5.3501,5.3501,5.3501,5.3501,5.3653,5.4211,5.4329,5.4499,5.5056,5.531,5.5428,5.5428,5.6055,5.6545,5.6545,5.7154,5.7628,5.7628,5.7798,5.79,5.79,5.79,5.79,5.79,5.79,5.79,5.79,5.79,5.79,5.79,5.79,5.79,5.79,5.79,5.79,5.79,5.79,5.8169,5.8726,5.8726,5.9133,5.9844,5.9844,5.985,4.9001,4.9001,4.9001,4.9001,4.9001,4.9001,4.9001,4.9001,4.9204,4.9964,5.0693,5.1421,5.2164,5.2959,5.3501,5.3501,5.3501,5.3501,5.3501,5.3501,5.3501,5.3501,5.3501,5.3501,5.3501,5.3501,5.3501,5.3501,5.3501,5.3501,5.3501,5.3501,5.3501,5.3501,5.3501,5.3501,5.3501,5.3501,5.3501,5.3501,5.3501,5.3501,5.3501,5.3501,5.3501,5.3501,5.3501,5.3501,5.3501,5.3501,5.3501,5.3501,5.3501,5.3501,5.3501,5.3501,5.3501,5.3501,5.3501,5.3501,5.3501,5.3501,5.3501,5.3501,5.3501,5.3501,5.3501,5.3501,5.3501,5.3501,5.3501,5.3754,5.411,5.4516,5.4854,5.5209,5.5614,5.5969,5.6189,5.6189,5.6799,5.7306,5.7306,5.7628,5.79,5.79,5.79,5.79,5.79,5.79,5.79,5.79,5.79,5.79,5.79,5.79,5.79,5.79,5.79,5.79,5.79,5.79,5.8051,5.8406,5.8406,5.8778,5.9487,5.9487,5.9911,6.0655,6.0526,6.0654,4.9001,4.9001,4.9001,4.9001,4.9001,4.9001,4.9001,4.9001,4.9238,5.0084,5.0777,5.1455,5.2334,5.3044,5.3501,5.3501,5.3501,5.3501,5.3501,5.3501,5.3501,5.3501,5.3501,5.3501,5.3501,5.3501,5.3501,5.3501,5.3501,5.3501,5.3501,5.3501,5.3501,5.3501,5.3501,5.3501,5.3501,5.3501,5.3501,5.3501,5.3501,5.3501,5.3501,5.3501,5.3501,5.3501,5.3501,5.3501,5.3501,5.3501,5.3501,5.3501,5.3501,5.3501,5.3501,5.3501,5.3501,5.3501,5.3501,5.3501,5.3501,5.3501,5.3501,5.3501,5.3501,5.3501,5.3501,5.3501,5.3501,5.3534,5.3653,5.4126,5.4668,5.4871,5.5412,5.5902,5.6003,5.6528,5.6968,5.6968,5.7459,5.79,5.79,5.79,5.79,5.79,5.79,5.79,5.79,5.79,5.79,5.79,5.79,5.79,5.79,5.79,5.79,5.79,5.79,5.795,5.8051,5.8068,5.8406,5.9148,5.9165,5.9539,6.0283,6.0283,6.0689,6.1467,6.1222,6.154,4.9001,4.9001,4.9001,4.9001,4.9001,4.9001,4.9001,4.9001,4.939,5.0744,5.1116,5.1624,5.3044,5.3416,5.3501,5.3501,5.3501,5.3501,5.3501,5.3501,5.3501,5.3501,5.3501,5.3501,5.3501,5.3501,5.3501,5.3501,5.3501,5.3501,5.3501,5.3501,5.3501,5.3501,5.3501,5.3501,5.3501,5.3501,5.3501,5.3501,5.3501,5.3501,5.3501,5.3501,5.3501,5.3501,5.3501,5.3501,5.3501,5.3501,5.3501,5.3501,5.3501,5.3501,5.3501,5.3501,5.3501,5.3501,5.3501,5.3501,5.3501,5.3501,5.3501,5.3501,5.3501,5.3501,5.3501,5.3501,5.3501,5.3653,5.4262,5.4533,5.4905,5.6173,5.6562,5.6799,5.7425,5.7663,5.7729,5.7729,5.7832,5.79,5.79,5.79,5.79,5.79,5.79,5.79,5.79,5.79,5.79,5.79,5.79,5.79,5.79,5.79,5.79,5.79,5.79,5.8169,5.881,5.8827,5.9165,5.9928,5.9928,6.0317,6.1129,6.1129,6.1501,6.2229,6.2192,6.2046,4.9001,4.9001,4.9001,4.9001,4.9001,4.9001,4.9001,4.9306,4.9898,5.0981,5.1522,5.2147,5.3298,5.3501,5.3501,5.3501,5.3501,5.3501,5.3501,5.3501,5.3501,5.3501,5.3501,5.3501,5.3501,5.3501,5.3501,5.3501,5.3501,5.3501,5.3501,5.3501,5.3501,5.3501,5.3501,5.3501,5.3501,5.3501,5.3501,5.3501,5.3501,5.3501,5.3501,5.3501,5.3501,5.3501,5.3501,5.3501,5.3501,5.3501,5.3501,5.3501,5.3501,5.3501,5.3501,5.3501,5.3501,5.3501,5.3501,5.3501,5.3501,5.3501,5.3501,5.3501,5.3501,5.3501,5.3501,5.3501,5.3501,5.367,5.4397,5.4905,5.548,5.6545,5.7103,5.7494,5.7832,5.79,5.79,5.79,5.79,5.79,5.79,5.79,5.79,5.79,5.79,5.79,5.79,5.79,5.79,5.79,5.79,5.79,5.79,5.79,5.8068,5.8473,5.849,5.8829,5.9554,5.959,5.9962,6.074,6.0757,6.1129,6.189,6.189,6.2059,6.2381,6.2127,6.1951,4.9001,4.9001,4.9001,4.9001,4.9001,4.9052,4.9221,4.9678,5.0355,5.1269,5.1894,5.2553,5.3348,5.3501,5.3501,5.3501,5.3501,5.3501,5.3501,5.3501,5.3501,5.3501,5.3501,5.3501,5.3501,5.3501,5.3501,5.3501,5.3501,5.3501,5.3501,5.3501,5.3501,5.3501,5.3501,5.3501,5.3501,5.3501,5.3501,5.3501,5.3501,5.3501,5.3501,5.3501,5.3501,5.3501,5.3501,5.3501,5.3501,5.3501,5.3501,5.3501,5.3501,5.3501,5.3501,5.3501,5.3501,5.3501,5.3501,5.3501,5.3501,5.3501,5.3501,5.3501,5.3501,5.3501,5.3501,5.3501,5.3619,5.3923,5.4668,5.5412,5.6139,5.6884,5.7492,5.79,5.79,5.79,5.79,5.79,5.79,5.79,5.79,5.79,5.79,5.79,5.79,5.79,5.79,5.79,5.79,5.79,5.79,5.7967,5.8135,5.8152,5.8541,5.947,5.9351,5.9607,6.0351,6.0385,6.0757,6.1535,6.1552,6.1839,6.24,6.2341,6.2322,6.2285,6.189,6.177,4.9001,4.9001,4.9001,4.9001,4.9001,4.9187,4.9847,5.0066,5.049,5.1928,5.2266,5.2553,5.3348,5.3501,5.3501,5.3501,5.3501,5.3501,5.3501,5.3501,5.3501,5.3501,5.3501,5.3501,5.3501,5.3501,5.3501,5.3501,5.3501,5.3501,5.3501,5.3501,5.3501,5.3501,5.3501,5.3501,5.3501,5.3501,5.3501,5.3501,5.3501,5.3501,5.3501,5.3501,5.3501,5.3501,5.3501,5.3501,5.3501,5.3501,5.3501,5.3501,5.3501,5.3501,5.3501,5.3501,5.3501,5.3501,5.3501,5.3501,5.3501,5.3501,5.3501,5.3501,5.3501,5.3501,5.3501,5.3501,5.3991,5.4685,5.5428,5.6173,5.6917,5.7663,5.7866,5.79,5.79,5.79,5.79,5.79,5.79,5.79,5.79,5.79,5.79,5.79,5.79,5.79,5.79,5.79,5.79,5.79,5.79,5.8169,5.8861,5.8912,5.9537,6.1044,6.0436,6.0385,6.118,6.1214,6.1552,6.2316,6.2313,6.235,6.24,6.2153,6.2037,6.2017,6.1793,6.1608,4.9001,4.9001,4.9001,4.9001,4.934,4.9761,5.0049,5.0811,5.1623,5.2181,5.2706,5.3145,5.345,5.3501,5.3501,5.3501,5.3501,5.3501,5.3501,5.3501,5.3501,5.3501,5.3501,5.3501,5.3501,5.3501,5.3501,5.3501,5.3501,5.3501,5.3501,5.3501,5.3501,5.3501,5.3501,5.3501,5.3501,5.3501,5.3501,5.3501,5.3501,5.3501,5.3501,5.3501,5.3501,5.3501,5.3501,5.3501,5.3501,5.3501,5.3501,5.3501,5.3501,5.3501,5.3501,5.3501,5.3501,5.3501,5.3501,5.3501,5.3501,5.3501,5.3501,5.3501,5.3501,5.3822,5.4177,5.4177,5.504,5.5936,5.575,5.624,5.6985,5.773,5.79,5.79,5.79,5.79,5.79,5.79,5.79,5.79,5.79,5.79,5.79,5.79,5.79,5.79,5.79,5.79,5.8086,5.8541,5.8998,5.9387,5.9674,6.0148,6.0689,6.1264,6.1011,6.1197,6.1941,6.1975,6.213,6.2381,6.2229,6.2153,6.2153,6.1914,6.1813,6.1813,6.1608,6.1465,4.9001,4.9001,4.9069,4.9289,4.9898,5.0507,5.0727,5.1572,5.2367,5.2638,5.3129,5.3501,5.3501,5.3501,5.3501,5.3501,5.3501,5.3501,5.3501,5.3501,5.3501,5.3501,5.3501,5.3501,5.3501,5.3501,5.3501,5.3501,5.3501,5.3501,5.3501,5.3501,5.3501,5.3501,5.3501,5.3501,5.3501,5.3501,5.3501,5.3501,5.3501,5.3501,5.3501,5.3501,5.3501,5.3501,5.3501,5.3501,5.3501,5.3501,5.3501,5.3501,5.3501,5.3501,5.3501,5.3501,5.3501,5.3501,5.3501,5.3501,5.3501,5.3501,5.367,5.3856,5.3856,5.4363,5.4955,5.4955,5.5835,5.6681,5.6172,5.6596,5.7273,5.7781,5.79,5.79,5.79,5.79,5.79,5.79,5.79,5.79,5.79,5.79,5.79,5.79,5.79,5.79,5.79,5.8101,5.8524,5.9285,5.981,6.0199,6.0469,6.0994,6.14,6.1637,6.1578,6.1798,6.2383,6.24,6.2361,6.2285,6.2093,6.1977,6.1897,6.177,6.1669,6.1608,6.1465,6.1379,4.9001,4.9001,4.9187,4.993,5.0659,5.1387,5.2131,5.2317,5.2536,5.3348,5.3501,5.3501,5.3501,5.3501,5.3501,5.3501,5.3501,5.3501,5.3501,5.3501,5.3501,5.3501,5.3501,5.3501,5.3501,5.3501,5.3501,5.3501,5.3501,5.3501,5.3501,5.3501,5.3501,5.3501,5.3501,5.3501,5.3501,5.3501,5.3501,5.3501,5.3501,5.3501,5.3501,5.3501,5.3501,5.3501,5.3501,5.3501,5.3501,5.3501,5.3501,5.3501,5.3501,5.3501,5.3501,5.3501,5.3501,5.3518,5.3518,5.3518,5.3518,5.3518,5.4008,5.46,5.46,5.5124,5.5716,5.5716,5.624,5.6816,5.6816,5.734,5.79,5.79,5.79,5.79,5.79,5.79,5.79,5.79,5.79,5.79,5.79,5.79,5.79,5.79,5.7898,5.7917,5.7915,5.8558,5.9301,6.003,6.0114,6.0436,6.1247,6.1315,6.162,6.2347,6.215,6.2113,6.2398,6.2381,6.2265,6.2017,6.1997,6.1897,6.1689,6.1689,6.1588,6.14,6.14,6.1276,4.9001,4.9001,4.9187,4.993,5.0659,5.1387,5.2131,5.2739,5.3213,5.345,5.3501,5.3501,5.3501,5.3501,5.3501,5.3501,5.3501,5.3501,5.3501,5.3501,5.3501,5.3501,5.3501,5.3501,5.3501,5.3501,5.3501,5.3501,5.3501,5.3501,5.3501,5.3501,5.3501,5.3501,5.3501,5.3501,5.3501,5.3501,5.3501,5.3501,5.3501,5.3501,5.3501,5.3501,5.3501,5.3501,5.3501,5.3501,5.3501,5.3501,5.3501,5.3501,5.3501,5.3501,5.3501,5.3501,5.3822,5.4262,5.4262,5.4617,5.5039,5.5039,5.5192,5.5361,5.5361,5.5885,5.6478,5.6478,5.7002,5.756,5.756,5.7747,5.79,5.79,5.79,5.79,5.79,5.79,5.79,5.79,5.79,5.79,5.79,5.79,5.79,5.79,5.8228,5.8639,5.9178,6.0053,6.0706,6.0926,6.14,6.1806,6.2042,6.1888,6.1894,6.2096,6.1914,6.1894,6.2113,6.1991,6.1951,6.1997,6.1874,6.177,6.1689,6.1547,6.1379,6.119,6.119,6.1165,4.9001,4.9221,4.961,5.0355,5.1099,5.1827,5.2604,5.3162,5.3501,5.3501,5.3501,5.3501,5.3501,5.3501,5.3501,5.3501,5.3501,5.3501,5.3501,5.3501,5.3501,5.3501,5.3501,5.3501,5.3501,5.3501,5.3501,5.3501,5.3501,5.3501,5.3501,5.3501,5.3501,5.3501,5.3501,5.3501,5.3501,5.3501,5.3501,5.3501,5.3501,5.3501,5.3501,5.3501,5.3501,5.3501,5.3501,5.3501,5.3501,5.3501,5.3501,5.3501,5.3501,5.3687,5.394,5.394,5.4397,5.504,5.504,5.5344,5.5699,5.5699,5.5902,5.6139,5.6139,5.6664,5.7239,5.7239,5.7561,5.79,5.79,5.79,5.79,5.79,5.79,5.79,5.79,5.79,5.79,5.79,5.79,5.79,5.79,5.7827,5.7808,5.7881,5.8413,5.9216,6.0259,6.0914,6.1361,6.1553,6.1976,6.2206,6.2127,6.1954,6.1894,6.1894,6.1672,6.1648,6.1753,6.1713,6.177,6.1894,6.1689,6.1543,6.1461,6.142,6.1314,6.1102,6.1186,6.1186,4.9001,4.9543,5.0286,5.1015,5.1809,5.2604,5.3331,5.3501,5.3501,5.3501,5.3501,5.3501,5.3501,5.3501,5.3501,5.3501,5.3501,5.3501,5.3501,5.3501,5.3501,5.3501,5.3501,5.3501,5.3501,5.3501,5.3501,5.3501,5.3501,5.3501,5.3501,5.3501,5.3501,5.3501,5.3501,5.3501,5.3501,5.3501,5.3501,5.3501,5.3501,5.3501,5.3501,5.3501,5.3501,5.3501,5.3501,5.3501,5.3501,5.3501,5.3501,5.3518,5.3568,5.4008,5.46,5.4668,5.5175,5.58,5.58,5.5834,5.5902,5.5902,5.6341,5.69,5.69,5.7357,5.79,5.79,5.79,5.79,5.79,5.79,5.79,5.79,5.79,5.79,5.79,5.79,5.79,5.79,5.79,5.7881,5.7863,5.7735,5.7731,5.7994,5.869,5.9686,6.1117,6.1322,6.15,6.1929,6.1977,6.1897,6.1709,6.1669,6.1669,6.1669,6.1465,6.1363,6.1404,6.1547,6.1648,6.1669,6.1486,6.1297,6.1123,6.1297,6.1314,6.1102,6.1276,6.1256,4.9001,4.9543,5.0286,5.1015,5.2232,5.3298,5.3467,5.3501,5.3501,5.3501,5.3501,5.3501,5.3501,5.3501,5.3501,5.3501,5.3501,5.3501,5.3501,5.3501,5.3501,5.3501,5.3501,5.3501,5.3501,5.3501,5.3501,5.3501,5.3501,5.3501,5.3501,5.3501,5.3501,5.3501,5.3501,5.3501,5.3501,5.3501,5.3501,5.3501,5.3501,5.3501,5.3501,5.3501,5.3501,5.3501,5.3501,5.3501,5.3501,5.3501,5.3501,5.3568,5.4143,5.4465,5.4685,5.526,5.5936,5.6562,5.6562,5.6934,5.7425,5.7425,5.7526,5.7645,5.7645,5.7781,5.79,5.79,5.79,5.79,5.79,5.79,5.79,5.79,5.79,5.79,5.79,5.79,5.79,5.79,5.79,5.7845,5.768,5.7753,5.814,5.9017,5.9919,6.071,6.1314,6.1512,6.1642,6.1736,6.1753,6.175,6.1709,6.1547,6.1465,6.1465,6.1272,6.1231,6.1383,6.1293,6.1314,6.1465,6.1424,6.1363,6.1338,6.1363,6.1314,6.1102,6.1144,6.1144,4.9001,4.9796,5.0896,5.2013,5.2909,5.3501,5.3501,5.3501,5.3501,5.3501,5.3501,5.3501,5.3501,5.3501,5.3501,5.3501,5.3501,5.3501,5.3501,5.3501,5.3501,5.3501,5.3501,5.3501,5.3501,5.3501,5.3501,5.3501,5.3501,5.3501,5.3501,5.3501,5.3501,5.3501,5.3501,5.3501,5.3501,5.3501,5.3501,5.3501,5.3501,5.3501,5.3501,5.3501,5.3501,5.3501,5.3501,5.3501,5.3501,5.3501,5.3501,5.3568,5.4296,5.482,5.5226,5.5936,5.6697,5.7323,5.7323,5.7595,5.79,5.79,5.79,5.79,5.79,5.79,5.79,5.79,5.79,5.79,5.79,5.79,5.79,5.79,5.79,5.79,5.79,5.79,5.79,5.79,5.79,5.788,5.7753,5.8039,5.8669,5.9857,6.0432,6.0952,6.1484,6.1628,6.1669,6.1567,6.1547,6.1523,6.142,6.1314,6.1252,6.1252,6.1165,6.1144,6.1252,6.1165,6.119,6.14,6.1297,6.1252,6.1252,6.1252,6.119,6.1102,6.1102,6.1102,4.9001,5.0068,5.1573,5.3112,5.3501,5.3501,5.3501,5.3501,5.3501,5.3501,5.3501,5.3501,5.3501,5.3501,5.3501,5.3501,5.3501,5.3501,5.3501,5.3501,5.3501,5.3501,5.3501,5.3501,5.3501,5.3501,5.3501,5.3501,5.3501,5.3501,5.3501,5.3501,5.3501,5.3501,5.3501,5.3501,5.3501,5.3501,5.3501,5.3501,5.3501,5.3501,5.3501,5.3501,5.3501,5.3501,5.3501,5.3501,5.3501,5.3501,5.3501,5.3602,5.4448,5.5158,5.58,5.6681,5.7374,5.79,5.79,5.79,5.79,5.79,5.79,5.79,5.79,5.79,5.79,5.79,5.79,5.79,5.79,5.79,5.79,5.79,5.79,5.79,5.79,5.79,5.79,5.79,5.7845,5.7859,5.7996,5.8452,5.9182,6.0384,6.0665,6.0963,6.1521,6.1604,6.1543,6.1379,6.1359,6.1293,6.1102,6.1102,6.1102,6.1102,6.1102,6.1102,6.1102,6.1102,6.1186,6.1338,6.1169,6.1102,6.1102,6.1102,6.1102,6.1102,6.1102,6.1102,4.9001,5.0068,5.1573,5.3112,5.3501,5.3501,5.3501,5.3501,5.3501,5.3501,5.3501,5.3501,5.3501,5.3501,5.3501,5.3501,5.3501,5.3501,5.3501,5.3501,5.3501,5.3501,5.3501,5.3501,5.3501,5.3501,5.3501,5.3501,5.3501,5.3501,5.3501,5.3501,5.3501,5.3501,5.3501,5.3501,5.3501,5.3501,5.3501,5.3501,5.3501,5.3501,5.3501,5.3501,5.3501,5.3501,5.3501,5.3501,5.3501,5.3501,5.3501,5.3653,5.5006,5.5614,5.5868,5.7239,5.7832,5.79,5.79,5.79,5.79,5.79,5.79,5.79,5.79,5.79,5.79,5.79,5.79,5.79,5.79,5.79,5.79,5.79,5.79,5.79,5.79,5.79,5.79,5.79,5.7625,5.7641,5.8446,5.8899,5.9411,6.0224,6.0874,6.1263,6.119,6.1186,6.1165,6.1144,6.1144,6.1123,6.1102,6.1102,6.1102,6.1102,6.1102,6.1102,6.1102,6.1102,6.1102,6.1144,6.1102,6.1102,6.1102,6.1102,6.1102,6.1102,6.1102,6.1102,5.0,5.0711,5.1573,5.3112,5.3501,5.3501,5.3501,5.3501,5.3501,5.3501,5.3501,5.3501,5.3501,5.3501,5.3501,5.3501,5.3501,5.3501,5.3501,5.3501,5.3501,5.3501,5.3501,5.3501,5.3501,5.3501,5.3501,5.3501,5.3501,5.3501,5.3501,5.3501,5.3501,5.3501,5.3501,5.3501,5.3501,5.3501,5.3501,5.3501,5.3501,5.3501,5.3501,5.3501,5.3501,5.3501,5.3501,5.3501,5.3501,5.3501,5.3501,5.3653,5.5124,5.5699,5.5885,5.7357,5.79,5.79,5.79,5.79,5.79,5.79,5.79,5.79,5.79,5.79,5.79,5.79,5.79,5.79,5.79,5.79,5.79,5.79,5.79,5.79,5.79,5.79,5.788,5.7753,5.7495,5.7696,5.8926,5.9182,5.9581,6.075,6.1098,6.119,6.1102,6.1102,6.1102,6.1102,6.1102,6.1102,6.1102,6.1102,6.1102,6.1102,6.1102,6.1102,6.1102,6.1102,6.1102,6.1102,6.1102,6.1102,6.1102,6.1102,6.1102,6.1102,6.1102,6.1102,5.0795,5.1201,5.1573,5.3112,5.3501,5.3501,5.3501,5.3501,5.3501,5.3501,5.3501,5.3501,5.3501,5.3501,5.3501,5.3501,5.3501,5.3501,5.3501,5.3501,5.3501,5.3501,5.3501,5.3501,5.3501,5.3501,5.3501,5.3501,5.3501,5.3501,5.3501,5.3501,5.3501,5.3501,5.3501,5.3501,5.3501,5.3501,5.3501,5.3501,5.3501,5.3501,5.3518,5.3687,5.3788,5.3771,5.3585,5.3501,5.3501,5.3501,5.3501,5.3653,5.5124,5.5699,5.5885,5.7357,5.79,5.79,5.79,5.79,5.79,5.79,5.79,5.79,5.79,5.79,5.79,5.79,5.79,5.79,5.79,5.79,5.79,5.79,5.79,5.7881,5.7827,5.7808,5.7753,5.7569,5.7515,5.7916,5.9201,5.9408,5.9854,6.1135,6.1206,6.1102,6.1102,6.1102,6.1102,6.1102,6.1102,6.1102,6.1102,6.1102,6.1102,6.1102,6.1102,6.1102,6.1102,6.1102,6.1102,6.1102,6.1102,6.1102,6.1102,6.1102,6.1102,6.1102,6.1102,6.1102,5.0795,5.1201,5.1573,5.3112,5.3501,5.3501,5.3501,5.3501,5.3501,5.3501,5.3501,5.3501,5.3501,5.3501,5.3501,5.3501,5.3501,5.3501,5.3501,5.3501,5.3501,5.3501,5.3501,5.3501,5.3501,5.3501,5.3501,5.3501,5.3501,5.3501,5.3501,5.3501,5.3501,5.3501,5.3501,5.3501,5.3501,5.3501,5.3501,5.3501,5.3501,5.3501,5.3518,5.4211,5.4532,5.4499,5.3805,5.3501,5.3501,5.3501,5.3501,5.3653,5.5124,5.5699,5.5885,5.7357,5.79,5.79,5.79,5.79,5.79,5.79,5.79,5.79,5.79,5.79,5.79,5.79,5.79,5.79,5.79,5.79,5.79,5.79,5.79,5.7845,5.7662,5.7625,5.7551,5.7364,5.7726,5.8305,5.9069,5.9641,6.0228,6.0986,6.1119,6.1102,6.1102,6.1102,6.1102,6.1102,6.1102,6.1102,6.1102,6.1102,6.1102,6.1102,6.1102,6.1102,6.1102,6.1102,6.1102,6.1102,6.1102,6.1102,6.1102,6.1102,6.1102,6.1102,6.1102,6.1102,5.0219,5.0845,5.1455,5.2469,5.3129,5.3501,5.3501,5.3501,5.3501,5.3501,5.3501,5.3501,5.3501,5.3501,5.3501,5.3501,5.3501,5.3501,5.3501,5.3501,5.3501,5.3501,5.3501,5.3501,5.3501,5.3501,5.3501,5.3501,5.3501,5.3501,5.3501,5.3501,5.3501,5.3501,5.3501,5.3501,5.3501,5.3501,5.3501,5.3518,5.3974,5.4211,5.4228,5.4972,5.531,5.5294,5.5023,5.4904,5.4904,5.4904,5.4904,5.5006,5.6003,5.6409,5.6528,5.7526,5.79,5.79,5.79,5.79,5.79,5.79,5.79,5.79,5.79,5.79,5.79,5.79,5.79,5.79,5.79,5.79,5.79,5.79,5.79,5.7808,5.7476,5.7402,5.7534,5.7928,5.7958,5.8289,5.9497,5.9868,6.0258,6.1003,6.1102,6.1102,6.1102,6.1102,6.1102,6.1102,6.1102,6.1102,6.1102,6.1102,6.1102,6.1102,6.1102,6.1102,6.1102,6.1102,6.1102,6.1102,6.1102,6.1102,6.1102,6.1102,6.1102,6.1102,6.1102,6.1102,4.9914,5.0642,5.1387,5.2131,5.2708,5.3178,5.3433,5.3297,5.3161,5.345,5.3501,5.3501,5.3501,5.3501,5.3501,5.3501,5.3501,5.3501,5.3501,5.3501,5.3501,5.3501,5.3501,5.3501,5.3501,5.3501,5.3501,5.3501,5.3501,5.3501,5.3501,5.3501,5.3501,5.3501,5.3501,5.3501,5.3501,5.3754,5.3873,5.3873,5.4617,5.4972,5.4989,5.5716,5.6071,5.6071,5.6342,5.6155,5.5699,5.5699,5.5699,5.5767,5.6511,5.6799,5.6884,5.7646,5.79,5.79,5.79,5.79,5.79,5.79,5.79,5.79,5.79,5.79,5.79,5.79,5.79,5.79,5.79,5.79,5.79,5.79,5.7845,5.7784,5.7777,5.7731,5.7771,5.8138,5.8385,5.885,5.9827,6.0208,6.0539,6.1036,6.1102,6.1102,6.1102,6.1102,6.1102,6.1102,6.1102,6.1102,6.1102,6.1102,6.1102,6.1102,6.1102,6.1102,6.1102,6.1102,6.1102,6.1102,6.1102,6.1102,6.1102,6.1102,6.1102,6.1102,6.1102,6.1102,0.0,0.0,0.0,5.2064,5.2266,5.2501,5.3263,5.2834,5.2501,5.3297,5.3467,5.3467,5.3501,5.3501,5.3501,5.3501,5.3501,5.3501,5.3501,5.3501,5.3501,5.3501,5.3501,5.3501,5.3501,5.3501,5.3501,5.3501,5.3501,5.3501,5.3501,5.3501,5.3501,5.3501,5.3518,5.3534,5.3534,5.4262,5.4634,5.4634,5.5395,5.5733,5.5767,5.6511,5.6833,5.6867,5.7577,5.7087,5.5767,5.5767,5.5767,5.5834,5.6544,5.6833,5.6917,5.7628,5.79,5.79,5.79,5.79,5.79,5.79,5.79,5.79,5.79,5.79,5.79,5.79,5.79,5.79,5.79,5.7898,5.7898,5.7915,5.7769,5.7823,5.8562,5.8576,5.8344,5.7954,5.9015,6.0009,6.0026,6.0639,6.1102,6.1102,6.1102,6.1102,6.1102,6.1102,6.1102,6.1102,6.1102,6.1102,6.1102,6.1102,6.1102,6.1102,6.1102,6.1102,6.1102,6.1102,6.1102,6.1102,6.1102,6.1102,6.1102,6.1102,6.1102,6.1102,6.1102,6.1102,4.9255,0.0,0.0,0.0,0.0,0.0,5.186,5.1588,5.1661,5.2467,5.2625,5.2816,5.3382,5.3501,5.3501,5.3501,5.3501,5.3501,5.3501,5.3501,5.3501,5.3501,5.3501,5.3501,5.3501,5.3501,5.3501,5.3501,5.3501,5.3501,5.3501,5.3501,5.3501,5.3501,5.4008,5.4313,5.4313,5.504,5.5395,5.5395,5.6139,5.6511,5.6528,5.7256,5.7612,5.7612,5.7815,5.768,5.7289,5.7289,5.7289,5.7306,5.7509,5.7612,5.7611,5.7832,5.79,5.79,5.79,5.79,5.79,5.79,5.79,5.79,5.79,5.79,5.79,5.79,5.79,5.79,5.79,5.779,5.7815,5.8352,5.832,5.8332,5.8931,5.9437,5.9741,5.9621,5.9829,6.0175,6.0705,6.097,6.1102,6.1102,6.1102,6.1102,6.1102,6.1102,6.1102,6.1102,6.1102,6.1102,6.1102,6.1102,6.1102,6.1102,6.1102,6.1102,6.1102,6.1102,6.1102,6.1102,6.1102,6.1102,6.1102,6.1102,6.1102,6.1102,6.1102,6.1102,4.9001,4.9829,5.0593,5.0122,0.0,0.0,5.1551,5.1331,5.1424,5.2572,5.2799,5.2938,5.3416,5.3501,5.3501,5.3501,5.3501,5.3501,5.3501,5.3501,5.3501,5.3501,5.3501,5.3501,5.3501,5.3501,5.3501,5.3501,5.3501,5.3501,5.3501,5.3501,5.3501,5.3501,5.4211,5.46,5.46,5.5649,5.6155,5.6172,5.6917,5.7256,5.7273,5.7714,5.79,5.79,5.79,5.79,5.79,5.79,5.79,5.79,5.79,5.79,5.79,5.79,5.79,5.79,5.79,5.79,5.79,5.79,5.79,5.79,5.79,5.79,5.79,5.79,5.79,5.7948,5.8179,5.8152,5.8225,5.8887,5.888,5.8906,5.9521,5.9937,6.0176,6.0176,6.034,6.0605,6.1036,6.1102,6.1102,6.1102,6.1102,6.1102,6.1102,6.1102,6.1102,6.1102,6.1102,6.1102,6.1102,6.1102,6.1102,6.1102,6.1102,6.1102,6.1102,6.1102,6.1102,6.1102,6.1102,6.1102,6.1102,6.1102,6.1102,6.1102,6.1102,6.1102,4.8909,4.9424,4.9969,4.978,4.9817,0.0,5.1586,5.1348,5.1257,5.2782,5.311,5.3127,5.3212,5.323,5.323,5.323,5.3314,5.3399,5.3484,5.3416,5.3382,5.3382,5.3297,5.323,5.323,5.3314,5.3382,5.3382,5.345,5.3501,5.3501,5.3501,5.3551,5.3619,5.4329,5.4752,5.4854,5.6224,5.6917,5.6934,5.7577,5.79,5.79,5.79,5.79,5.79,5.79,5.79,5.79,5.79,5.79,5.79,5.79,5.79,5.79,5.79,5.79,5.79,5.79,5.79,5.79,5.79,5.79,5.79,5.79,5.79,5.79,5.79,5.7949,5.8096,5.8568,5.8728,5.8885,5.9446,5.9434,5.9495,6.0224,6.0248,6.0125,6.0125,6.0655,6.1102,6.1102,6.1102,6.1102,6.1102,6.1102,6.1102,6.1102,6.1102,6.1102,6.1102,6.1102,6.1102,6.1102,6.1102,6.1102,6.1102,6.1102,6.1102,6.1102,6.1102,6.1102,6.1102,6.1102,6.1102,6.1102,6.1102,6.1102,6.1102,6.1102,6.104,4.829,4.9045,4.9693,4.846,4.9037,0.0,4.941,4.9188,4.939,5.04,5.0592,5.0802,5.1459,5.157,5.157,5.157,5.2112,5.2764,5.3416,5.2938,5.2537,5.2537,5.1969,5.157,5.157,5.2148,5.2537,5.2537,5.3127,5.3501,5.3501,5.3501,5.3771,5.438,5.5108,5.5767,5.6359,5.7239,5.7697,5.7697,5.7832,5.79,5.79,5.79,5.79,5.79,5.79,5.79,5.79,5.79,5.79,5.79,5.79,5.79,5.79,5.79,5.79,5.79,5.79,5.79,5.79,5.79,5.79,5.79,5.79,5.79,5.79,5.79,5.8211,5.8568,5.8665,5.8904,5.9284,5.9994,5.998,6.0054,6.0783,6.0908,6.0887,6.0887,6.1003,6.1102,6.1102,6.1102,6.1102,6.1102,6.1102,6.1102,6.1102,6.1102,6.1102,6.1102,6.1102,6.1102,6.1102,6.1102,6.1102,6.1102,6.1102,6.1102,6.1102,6.1102,6.1102,6.1102,6.1102,6.1102,6.1102,6.1102,6.1102,6.1102,6.1102,6.0671,4.8065,4.8578,4.9176,4.8387,4.8741,0.0,0.0,4.9244,4.949,5.0322,5.0496,5.0615,5.1032,5.1107,5.1107,5.1107,5.1787,5.2307,5.2308,5.266,5.2746,5.2343,5.1933,5.1533,5.1145,5.1459,5.186,5.2272,5.3058,5.3501,5.3501,5.3501,5.3839,5.4583,5.531,5.6037,5.6799,5.7526,5.79,5.79,5.79,5.79,5.79,5.79,5.79,5.79,5.79,5.79,5.79,5.79,5.79,5.79,5.79,5.79,5.79,5.79,5.79,5.79,5.79,5.79,5.79,5.79,5.79,5.79,5.79,5.7827,5.7753,5.7753,5.8126,5.861,5.8882,5.934,5.9911,6.0538,6.0618,6.0655,6.1036,6.1102,6.1102,6.1102,6.1102,6.1102,6.1102,6.1102,6.1102,6.1102,6.1102,6.1102,6.1102,6.1102,6.1102,6.1102,6.1102,6.1102,6.1102,6.1102,6.1102,6.1102,6.1102,6.1102,6.1102,6.1102,6.1102,6.1102,6.1102,6.0856,6.0361,6.0361,6.0361,6.0361,6.0361,5.9816,4.8021,4.8225,4.8674,4.8518,4.8548,4.879,0.0,0.0,0.0,5.048,5.0634,5.0634,5.0634,5.0634,5.0586,5.0457,5.1213,5.1574,5.0763,5.2014,5.2747,5.1931,5.1696,5.1329,5.0675,5.0767,5.1273,5.2236,5.2903,5.3348,5.3484,5.3501,5.3907,5.4769,5.5378,5.6122,5.7002,5.7594,5.79,5.79,5.79,5.79,5.79,5.79,5.79,5.79,5.79,5.79,5.79,5.79,5.79,5.79,5.79,5.79,5.79,5.79,5.79,5.79,5.79,5.79,5.79,5.79,5.79,5.7881,5.7845,5.7717,5.7621,5.7719,5.8138,5.87,5.9258,5.9944,6.0562,6.0991,6.1102,6.1102,6.1102,6.1102,6.1102,6.1102,6.1102,6.1102,6.1102,6.1102,6.1102,6.1102,6.1102,6.1102,6.1102,6.1102,6.1102,6.1102,6.1102,6.1102,6.1102,6.1102,6.1102,6.1102,6.1102,6.1102,6.1102,6.1102,6.1102,6.1102,6.0919,6.0404,5.9603,5.9411,5.9323,5.9323,5.9323,5.8777,4.8126,4.819,4.8537,4.7891,4.8173,4.864,4.8744,0.0,4.8769,4.8872,0.0,4.8877,4.8877,0.0,0.0,4.8092,4.9221,4.9905,4.9157,5.0403,5.107,5.028,4.949,4.898,4.8877,4.959,5.0669,5.2182,5.2378,5.2746,5.3467,5.3501,5.4126,5.553,5.5665,5.6376,5.7764,5.7866,5.79,5.79,5.79,5.79,5.79,5.79,5.79,5.79,5.79,5.79,5.79,5.79,5.79,5.79,5.79,5.79,5.79,5.79,5.79,5.79,5.79,5.79,5.79,5.79,5.79,5.788,5.768,5.7625,5.7704,5.8188,5.8697,5.9271,5.9981,6.0587,6.1024,6.1086,6.1102,6.1102,6.1102,6.1102,6.1102,6.1102,6.1102,6.1102,6.1102,6.1102,6.1102,6.1102,6.1102,6.1102,6.1102,6.1102,6.1102,6.1102,6.1102,6.1102,6.1102,6.1102,6.1102,6.1102,6.1102,6.1102,6.1102,6.1102,6.1102,6.1102,6.0216,5.9713,5.9603,5.8709,5.8284,5.8284,5.8284,5.773,4.7938,4.8053,4.8423,4.823,4.8301,4.8453,4.8578,4.8599,4.8599,4.8599,0.0,0.0,0.0,0.0,0.0,0.0,4.9157,4.9615,4.8798,4.9682,5.0283,4.9927,4.9586,4.9163,4.8646,4.9385,5.0361,5.1514,5.204,5.2448,5.2799,5.3246,5.3972,5.4958,5.5453,5.6409,5.79,5.79,5.79,5.79,5.79,5.79,5.79,5.79,5.79,5.79,5.79,5.79,5.79,5.79,5.79,5.79,5.79,5.79,5.79,5.79,5.79,5.79,5.79,5.79,5.7881,5.7753,5.7717,5.768,5.7495,5.7647,5.7952,5.8157,5.8932,5.9733,6.0049,6.0618,6.1102,6.1102,6.1102,6.1102,6.1102,6.1102,6.1102,6.1102,6.1102,6.1102,6.1102,6.1102,6.1102,6.1102,6.1102,6.1102,6.1102,6.1102,6.1102,6.1102,6.1102,6.1102,6.1102,6.1102,6.1102,6.1102,6.1102,6.0835,6.0259,6.0238,5.9963,5.9367,5.8934,5.8437,5.7862,5.7441,5.6959,5.6436,5.6983,5.671,4.7927,4.7961,4.8244,4.8391,4.8343,4.826,4.8412,4.8474,4.8516,4.8516,4.8557,0.0,0.0,0.0,4.8537,4.8373,0.0,4.9262,4.844,4.9034,4.953,4.953,4.953,4.9305,4.8666,4.9163,4.9971,5.1013,5.144,5.1931,5.259,5.2972,5.3678,5.4797,5.54,5.6409,5.79,5.79,5.79,5.79,5.79,5.79,5.79,5.79,5.79,5.79,5.79,5.79,5.79,5.79,5.79,5.79,5.79,5.79,5.79,5.79,5.79,5.79,5.79,5.7863,5.779,5.7643,5.7569,5.7476,5.7271,5.7637,5.8116,5.8274,5.9136,6.0059,6.0258,6.0705,6.1102,6.1102,6.1102,6.1102,6.1102,6.1102,6.1102,6.1102,6.1102,6.1102,6.1102,6.1102,6.1102,6.1102,6.1102,6.1102,6.1102,6.1102,6.1102,6.1102,6.1102,6.1102,6.1102,6.1102,6.1102,6.1102,6.0839,6.0345,5.9625,5.9345,5.8844,5.8108,5.7823,5.7323,5.659,5.6338,5.5869,5.5219,5.5893,5.5844,4.8261,4.7992,4.8007,4.8007,4.8007,4.8007,4.8007,4.816,4.8307,4.8307,4.8474,4.8599,4.8599,4.8599,4.8383,4.7742,4.8209,0.0,0.0,4.8225,4.8625,4.8625,4.8625,4.864,4.8599,4.864,4.9329,5.0976,5.04,5.0992,5.3331,5.2746,5.3344,5.5595,5.5681,5.6409,5.79,5.79,5.79,5.79,5.79,5.79,5.79,5.79,5.79,5.79,5.79,5.79,5.79,5.79,5.79,5.79,5.79,5.79,5.79,5.79,5.79,5.79,5.79,5.7772,5.7606,5.7606,5.7476,5.7271,5.7082,5.7522,5.8214,5.8731,5.9413,6.0158,6.0887,6.1086,6.1102,6.1102,6.1102,6.1102,6.1102,6.1102,6.1102,6.1102,6.1102,6.1102,6.1102,6.1102,6.1102,6.1102,6.1102,6.1102,6.1102,6.1102,6.1102,6.1102,6.1102,6.1102,6.1102,6.1102,6.1102,6.1102,6.0195,5.9625,5.9603,5.8664,5.8147,5.8101,5.7134,5.6638,5.659,5.5685,5.5244,5.5194,5.5244,5.5244,0.0,0.0,4.8007,4.8007,0.0,4.7773,4.7964,4.8154,4.8265,4.8133,4.837,4.8557,4.8432,4.8516,4.8522,4.8291,4.8445,4.8522,0.0,4.846,4.8599,4.8599,4.8599,4.8599,4.8599,4.8599,4.9081,5.0225,5.0014,5.0209,5.1067,5.186,5.2861,5.406,5.5134,5.6409,5.79,5.79,5.79,5.79,5.79,5.79,5.79,5.79,5.79,5.79,5.79,5.79,5.79,5.79,5.79,5.79,5.79,5.79,5.79,5.79,5.79,5.79,5.79,5.768,5.7402,5.7402,5.7271,5.7063,5.6853,5.7327,5.8037,5.8704,5.9429,6.0175,6.092,6.1102,6.1102,6.1102,6.1102,6.1102,6.1102,6.1102,6.1102,6.1102,6.1102,6.1102,6.1102,6.1102,6.1102,6.1102,6.1102,6.1102,6.1102,6.1102,6.1102,6.1102,6.1102,6.1102,6.1102,6.0489,6.0114,6.0114,5.9151,5.8323,5.7652,5.7276,5.6831,5.6198,5.5844,5.566,5.566,5.534,5.5194,5.5194,5.5194,5.5194,4.8007,4.7837,0.0,4.7767,4.7617,0.0,4.7724,0.0,4.8133,4.7901,4.8244,4.8516,4.8223,4.8412,4.8578,4.8495,4.8557,4.8599,0.0,4.8599,4.8599,4.8599,4.8599,4.8599,4.8599,4.8599,4.8975,4.9829,4.9574,4.9638,5.0283,5.1311,5.2427,5.3684,5.5007,5.6409,5.79,5.79,5.79,5.79,5.79,5.79,5.79,5.79,5.79,5.79,5.79,5.79,5.79,5.79,5.79,5.79,5.79,5.77,5.7478,5.779,5.7845,5.779,5.779,5.7532,5.7195,5.7195,5.7063,5.6872,5.6738,5.7229,5.7879,5.8252,5.9169,6.0093,6.0473,6.0835,6.1019,6.0654,6.0569,6.0468,6.0114,6.0028,6.0028,6.0028,6.0323,6.0569,6.0569,6.0856,6.1102,6.1102,6.1102,6.1102,6.1102,6.1102,6.1102,6.1102,6.1102,6.0977,6.0591,5.9647,5.9062,5.9062,5.8124,5.7276,5.6638,5.628,5.6046,5.5878,5.5418,5.5418,5.5867,5.5418,5.5194,5.5194,5.5194,5.5194]}]]